[[{"header":{"parameterUnit":"m.s-1","parameterCategory":1,"la1":30.6,"la2":28.766,"lo1":-90.7593,"lo2":-88.6598,"dy":0.0162,"dx":0.0183,"nx":116,"ny":114,"refTime":"2023-06-25T00:00:00:Z","depth":0,"parameterNumber":2,"parameterNumberName":"U-component_of_WINDS"},"data":[0.0,0.0,0.0,0.0,0.0,0.0,0.0,0.0,0.0,0.0,0.0,0.0,0.0,0.0,0.0,0.0,0.0,0.0,0.0,0.0,0.0,0.0,0.0,0.0,0.0,0.0,0.0,0.0,0.0,0.0,0.0,0.0,0.0,0.0,0.0,0.0,0.0,0.0,0.0,0.0,0.0,0.0,0.0,0.0,0.0,0.0,0.0,0.0,0.0,0.0,0.0,0.0,0.0,0.0,0.0,0.0,0.0,0.0,0.0,0.0,0.0,0.0,0.0,0.0,0.0,0.0,0.0,0.0,0.0,0.0,0.0,0.0,0.0,0.0,0.0,0.0,0.0,0.0,0.0,0.0,0.0,0.0,0.0,0.0,0.0,0.0,0.0,0.0,0.0,0.0,0.0,0.0,0.0,0.0,0.0,0.0,0.0,0.0,0.0,0.0,0.0,0.0,0.0,0.0,0.0,0.0,0.0,0.0,0.0,0.0,0.0,0.0,0.0,0.0,0.0,0.0,0.0,0.0,0.0,0.0,0.0,0.0,0.0,0.0,0.0,0.0,0.0,0.0,0.0,0.0,0.0,0.0,0.0,0.0,0.0,0.0,0.0,0.0,0.0,0.0,0.0,0.0,0.0,0.0,0.0,0.0,0.0,0.0,0.0,0.0,0.0,0.0,0.0,0.0,0.0,0.0,0.0,0.0,0.0,0.0,0.0,0.0,0.0,0.0,0.0,0.0,0.0,0.0,0.0,0.0,0.0,0.0,0.0,0.0,0.0,0.0,0.0,0.0,0.0,0.0,0.0,0.0,0.0,0.0,0.0,0.0,0.0,0.0,0.0,0.0,0.0,0.0,0.0,0.0,0.0,0.0,0.0,0.0,0.0,0.0,0.0,0.0,0.0,0.0,0.0,0.0,0.0,0.0,0.0,0.0,0.0,0.0,0.0,0.0,0.0,0.0,0.0,0.0,0.0,0.0,0.0,0.0,0.0,0.0,0.0,0.0,0.0,0.0,0.0,0.0,0.0,0.0,0.0,0.0,0.0,0.0,0.0,0.0,0.0,0.0,0.0,0.0,0.0,0.0,0.0,0.0,0.0,0.0,0.0,0.0,0.0,0.0,0.0,0.0,0.0,0.0,0.0,0.0,0.0,0.0,0.0,0.0,0.0,0.0,0.0,0.0,0.0,0.0,0.0,0.0,0.0,0.0,0.0,0.0,0.0,0.0,0.0,0.0,0.0,0.0,0.0,0.0,0.0,0.0,0.0,0.0,0.0,0.0,0.0,0.0,0.0,0.0,0.0,0.0,0.0,0.0,0.0,0.0,0.0,0.0,0.0,0.0,0.0,0.0,0.0,0.0,0.0,0.0,0.0,0.0,0.0,0.0,0.0,0.0,0.0,0.0,0.0,0.0,0.0,0.0,0.0,0.0,0.0,0.0,0.0,0.0,0.0,0.0,0.0,0.0,0.0,0.0,0.0,0.0,0.0,0.0,0.0,0.0,0.0,0.0,0.0,0.0,0.0,0.0,0.0,0.0,0.0,0.0,0.0,0.0,0.0,0.0,0.0,0.0,0.0,0.0,0.0,0.0,0.0,0.0,0.0,0.0,0.0,0.0,0.0,0.0,0.0,0.0,0.0,0.0,0.0,0.0,0.0,0.0,0.0,0.0,0.0,0.0,0.0,0.0,0.0,0.0,0.0,0.0,0.0,0.0,0.0,0.0,0.0,0.0,0.0,0.0,0.0,0.0,0.0,0.0,0.0,0.0,0.0,0.0,0.0,0.0,0.0,0.0,0.0,0.0,0.0,0.0,0.0,0.0,0.0,0.0,0.0,0.0,0.0,0.0,0.0,0.0,0.0,0.0,0.0,0.0,0.0,0.0,0.0,0.0,0.0,0.0,0.0,0.0,0.0,0.0,0.0,0.0,0.0,0.0,0.0,0.0,0.0,0.0,0.0,0.0,0.0,0.0,0.0,0.0,0.0,0.0,0.0,0.0,0.0,0.0,0.0,0.0,0.0,0.0,0.0,0.0,0.0,0.0,0.0,0.0,0.0,0.0,0.0,0.0,0.0,0.0,0.0,0.0,0.0,0.0,0.0,0.0,0.0,0.0,0.0,0.0,0.0,0.0,0.0,0.0,0.0,0.0,0.0,0.0,0.0,0.0,0.0,0.0,0.0,0.0,0.0,0.0,0.0,0.0,0.0,0.0,0.0,0.0,0.0,0.0,0.0,0.0,0.0,0.0,0.0,0.0,0.0,0.0,0.0,0.0,0.0,0.0,0.0,0.0,0.0,0.0,0.0,0.0,0.0,0.0,0.0,0.0,0.0,0.0,0.0,0.0,0.0,0.0,0.0,0.0,0.0,0.0,0.0,0.0,0.0,0.0,0.0,0.0,0.0,0.0,0.0,0.0,0.0,0.0,0.0,0.0,0.0,0.0,0.0,0.0,0.0,0.0,0.0,0.0,0.0,0.0,0.0,0.0,0.0,0.0,0.0,0.0,0.0,0.0,0.0,0.0,0.0,0.0,0.0,0.0,0.0,0.0,0.0,0.0,0.0,0.0,0.0,0.0,0.0,0.0,0.0,0.0,0.0,0.0,0.0,0.0,0.0,0.0,0.0,0.0,0.0,0.0,0.0,0.0,0.0,0.0,0.0,0.0,0.0,0.0,0.0,0.0,0.0,0.0,0.0,0.0,0.0,0.0,0.0,0.0,0.0,0.0,0.0,0.0,0.0,0.0,0.0,0.0,0.0,0.0,0.0,0.0,0.0,0.0,0.0,0.0,0.0,0.0,0.0,0.0,0.0,0.0,0.0,0.0,0.0,0.0,0.0,0.0,0.0,0.0,0.0,0.0,0.0,0.0,0.0,0.0,0.0,0.0,0.0,0.0,0.0,0.0,0.0,0.0,0.0,0.0,0.0,0.0,0.0,0.0,0.0,0.0,0.0,0.0,0.0,0.0,0.0,0.0,0.0,0.0,0.0,0.0,0.0,0.0,0.0,0.0,0.0,0.0,0.0,0.0,0.0,0.0,0.0,0.0,0.0,0.0,0.0,0.0,0.0,0.0,0.0,0.0,0.0,0.0,0.0,0.0,0.0,0.0,0.0,0.0,0.0,0.0,0.0,0.0,0.0,0.0,0.0,0.0,0.0,0.0,0.0,0.0,0.0,0.0,0.0,0.0,0.0,0.0,0.0,0.0,0.0,0.0,0.0,0.0,0.0,0.0,0.0,0.0,0.0,0.0,0.0,0.0,0.0,0.0,0.0,0.0,0.0,0.0,0.0,0.0,0.0,0.0,0.0,0.0,0.0,0.0,0.0,0.0,0.0,0.0,0.0,0.0,0.0,0.0,0.0,0.0,0.0,0.0,0.0,0.0,0.0,0.0,0.0,0.0,0.0,0.0,0.0,0.0,0.0,0.0,0.0,0.0,0.0,0.0,0.0,0.0,0.0,0.0,0.0,0.0,0.0,0.0,0.0,0.0,0.0,0.0,0.0,0.0,0.0,0.0,0.0,0.0,0.0,0.0,0.0,0.0,0.0,0.0,0.0,0.0,0.0,0.0,0.0,0.0,0.0,0.0,0.0,0.0,0.0,0.0,0.0,0.0,0.0,0.0,0.0,0.0,0.0,0.0,0.0,0.0,0.0,0.0,0.0,0.0,0.0,0.0,0.0,0.0,0.0,0.0,0.0,0.0,0.0,0.0,0.0,0.0,0.0,0.0,0.0,0.0,0.0,0.0,0.0,0.0,0.0,0.0,0.0,0.0,0.0,0.0,0.0,0.0,0.0,0.0,0.0,0.0,0.0,0.0,0.0,0.0,0.0,0.0,0.0,0.0,0.0,0.0,0.0,0.0,0.0,0.0,0.0,0.0,0.0,0.0,0.0,0.0,0.0,0.0,0.0,0.0,0.0,0.0,0.0,0.0,0.0,0.0,0.0,0.0,0.0,0.0,0.0,0.0,0.0,0.0,0.0,0.0,0.0,0.0,0.0,0.0,0.0,0.0,0.0,0.0,0.0,0.0,0.0,0.0,0.0,0.0,0.0,0.0,0.0,0.0,0.0,0.0,0.0,0.0,0.0,0.0,0.0,0.0,0.0,0.0,0.0,0.0,0.0,0.0,0.0,0.0,0.0,0.0,0.0,0.0,0.0,0.0,0.0,0.0,0.0,0.0,0.0,0.0,0.0,0.0,0.0,0.0,0.0,0.0,0.0,0.0,0.0,0.0,0.0,0.0,0.0,0.0,0.0,0.0,0.0,0.0,0.0,0.0,0.0,0.0,0.0,0.0,0.0,0.0,0.0,0.0,0.0,0.0,0.0,0.0,0.0,0.0,0.0,0.0,0.0,0.0,0.0,0.0,0.0,0.0,0.0,0.0,0.0,0.0,0.0,0.0,0.0,0.0,0.0,0.0,0.0,0.0,0.0,0.0,0.0,0.0,0.0,0.0,0.0,0.0,0.0,0.0,0.0,0.0,0.0,0.0,0.0,0.0,0.0,0.0,0.0,0.0,0.0,0.0,0.0,0.0,0.0,0.0,0.0,0.0,0.0,0.0,0.0,0.0,0.0,0.0,0.0,0.0,0.0,0.0,0.0,0.0,0.0,0.0,0.0,0.0,0.0,0.0,0.0,0.0,0.0,0.0,0.0,0.0,0.0,0.0,0.0,0.0,0.0,0.0,0.0,0.0,0.0,0.0,0.0,0.0,0.0,0.0,0.0,0.0,0.0,0.0,0.0,0.0,0.0,0.0,0.0,0.0,0.0,0.0,0.0,0.0,0.0,0.0,0.0,0.0,0.0,0.0,0.0,0.0,0.0,0.0,0.0,0.0,0.0,0.0,0.0,0.0,0.0,0.0,0.0,0.0,0.0,0.0,0.0,0.0,0.0,0.0,0.0,0.0,0.0,0.0,0.0,0.0,0.0,0.0,0.0,0.0,0.0,0.0,0.0,0.0,0.0,0.0,0.0,0.0,0.0,0.0,0.0,0.0,0.0,0.0,0.0,0.0,0.0,0.0,0.0,0.0,0.0,0.0,0.0,0.0,0.0,0.0,0.0,0.0,0.0,0.0,0.0,0.0,0.0,0.0,0.0,0.0,0.0,0.0,0.0,0.0,0.0,0.0,0.0,0.0,0.0,0.0,0.0,0.0,0.0,0.0,0.0,0.0,0.0,0.0,0.0,0.0,0.0,0.0,0.0,0.0,0.0,0.0,0.0,0.0,0.0,0.0,0.0,0.0,0.0,0.0,0.0,0.0,0.0,0.0,0.0,0.0,0.0,0.0,0.0,0.0,0.0,0.0,0.0,0.0,0.0,0.0,0.0,0.0,0.0,0.0,0.0,0.0,0.0,0.0,0.0,0.0,0.0,0.0,0.0,0.0,0.0,0.0,0.0,0.0,0.0,0.0,0.0,0.0,0.0,0.0,0.0,0.0,0.0,0.0,0.0,0.0,0.0,0.0,0.0,0.0,0.0,0.0,0.0,0.0,0.0,0.0,0.0,0.0,0.0,0.0,0.0,0.0,0.0,0.0,0.0,0.0,0.0,0.0,0.0,0.0,0.0,0.0,0.0,0.0,0.0,0.0,0.0,0.0,0.0,0.0,0.0,0.0,0.0,0.0,0.0,0.0,0.0,0.0,0.0,0.0,0.0,0.0,0.0,0.0,0.0,0.0,0.0,0.0,0.0,0.0,0.0,0.0,0.0,0.0,0.0,0.0,0.0,0.0,0.0,0.0,0.0,0.0,0.0,0.0,0.0,0.0,0.0,0.0,0.0,0.0,0.0,0.0,0.0,0.0,0.0,0.0,0.0,0.0,0.0,0.0,0.0,0.0,0.0,0.0,0.0,0.0,0.0,0.0,0.0,0.0,0.0,0.0,0.0,0.0,0.0,0.0,0.0,0.0,0.0,0.0,0.0,0.0,0.0,0.0,0.0,0.0,0.0,0.0,0.0,0.0,0.0,0.0,0.0,0.0,0.0,0.0,0.0,0.0,0.0,0.0,0.0,0.0,0.0,0.0,0.0,0.0,0.0,0.0,0.0,0.0,0.0,0.0,0.0,0.0,0.0,0.0,0.0,0.0,0.0,0.0,0.0,0.0,0.0,0.0,0.0,0.0,-3.8407,0.0,0.0,0.0,0.0,0.0,0.0,0.0,0.0,0.0,0.0,0.0,0.0,0.0,0.0,0.0,0.0,0.0,0.0,0.0,0.0,0.0,0.0,0.0,0.0,0.0,0.0,0.0,0.0,0.0,0.0,0.0,0.0,0.0,0.0,0.0,0.0,0.0,0.0,0.0,0.0,0.0,0.0,0.0,0.0,0.0,0.0,0.0,0.0,0.0,0.0,0.0,0.0,0.0,0.0,0.0,0.0,0.0,0.0,0.0,0.0,0.0,0.0,0.0,0.0,0.0,0.0,0.0,0.0,0.0,0.0,0.0,0.0,0.0,0.0,0.0,0.0,0.0,0.0,0.0,0.0,0.0,0.0,0.0,0.0,0.0,0.0,0.0,0.0,0.0,0.0,0.0,0.0,0.0,0.0,0.0,0.0,0.0,0.0,0.0,0.0,0.0,0.0,0.0,0.0,0.0,0.0,0.0,0.0,0.0,0.0,0.0,0.0,0.0,0.0,0.0,0.0,-4.0993,0.0,0.0,0.0,0.0,0.0,0.0,0.0,0.0,0.0,0.0,0.0,0.0,0.0,0.0,0.0,0.0,0.0,0.0,0.0,0.0,0.0,0.0,0.0,0.0,0.0,0.0,0.0,0.0,0.0,0.0,0.0,0.0,0.0,0.0,0.0,0.0,0.0,0.0,0.0,0.0,0.0,0.0,0.0,0.0,0.0,0.0,0.0,0.0,0.0,0.0,0.0,0.0,0.0,0.0,0.0,0.0,0.0,0.0,0.0,0.0,0.0,0.0,0.0,0.0,0.0,0.0,0.0,0.0,0.0,0.0,0.0,0.0,0.0,0.0,0.0,0.0,0.0,0.0,0.0,0.0,0.0,0.0,0.0,0.0,0.0,0.0,0.0,0.0,0.0,0.0,0.0,0.0,0.0,0.0,0.0,0.0,0.0,0.0,0.0,0.0,0.0,0.0,0.0,0.0,0.0,0.0,0.0,0.0,-5.3551,-5.4999,-5.5707,-5.595,-5.5879,-5.5226,-4.777,-4.565,-4.7353,-4.7379,0.0,0.0,0.0,0.0,0.0,0.0,0.0,0.0,0.0,0.0,0.0,0.0,0.0,0.0,0.0,0.0,0.0,0.0,0.0,0.0,0.0,0.0,0.0,0.0,0.0,0.0,0.0,0.0,0.0,0.0,0.0,0.0,0.0,0.0,0.0,0.0,0.0,0.0,-2.8036,-2.7475,-2.6948,-2.6661,0.0,0.0,0.0,0.0,0.0,0.0,0.0,0.0,0.0,0.0,0.0,0.0,0.0,0.0,0.0,0.0,0.0,0.0,0.0,0.0,0.0,0.0,0.0,0.0,0.0,0.0,0.0,0.0,0.0,0.0,0.0,0.0,0.0,0.0,0.0,0.0,0.0,0.0,0.0,0.0,0.0,0.0,0.0,0.0,-3.1966,-3.4798,0.0,0.0,0.0,0.0,0.0,0.0,0.0,0.0,0.0,0.0,0.0,0.0,0.0,-4.9661,-5.0338,-5.3957,-5.5818,-5.5953,-5.8863,-6.0655,-6.1366,-6.139,-6.114,-6.067,-5.8365,0.0,-5.0881,-5.0167,0.0,0.0,0.0,0.0,0.0,0.0,0.0,0.0,0.0,0.0,0.0,0.0,0.0,0.0,0.0,0.0,0.0,0.0,0.0,0.0,0.0,0.0,0.0,0.0,0.0,0.0,0.0,0.0,0.0,0.0,0.0,0.0,0.0,0.0,0.0,0.0,-2.5322,-2.6543,-2.7387,-2.6838,-2.6823,-2.7258,-2.7487,-2.8249,-2.9474,-2.977,0.0,0.0,0.0,0.0,0.0,0.0,0.0,0.0,0.0,0.0,0.0,0.0,0.0,0.0,0.0,0.0,0.0,0.0,0.0,0.0,0.0,0.0,0.0,0.0,0.0,0.0,0.0,0.0,0.0,0.0,0.0,0.0,0.0,0.0,0.0,0.0,0.0,0.0,0.0,-3.1209,-3.4823,-3.7577,-3.8004,-3.8212,0.0,0.0,0.0,0.0,0.0,0.0,0.0,0.0,0.0,-5.1831,-5.3991,-5.4494,-5.3268,-5.81,-6.0613,-6.0849,-6.3294,-6.4783,-6.5493,-6.5967,-6.588,-6.5297,-6.3964,-6.1343,-5.7774,-5.4202,-5.1486,-4.9486,0.0,0.0,0.0,0.0,-4.6711,-4.704,0.0,0.0,0.0,0.0,0.0,0.0,0.0,0.0,0.0,0.0,0.0,0.0,0.0,0.0,0.0,-2.3619,0.0,0.0,0.0,0.0,0.0,0.0,0.0,0.0,0.0,0.0,0.0,0.0,-2.5615,-2.6585,-2.73,-2.6768,-2.7072,-2.8121,-2.821,-2.8532,-2.8935,-2.9927,-3.0034,0.0,0.0,0.0,0.0,0.0,0.0,0.0,0.0,0.0,0.0,0.0,0.0,0.0,0.0,0.0,0.0,0.0,0.0,0.0,0.0,0.0,0.0,0.0,0.0,0.0,0.0,0.0,0.0,0.0,0.0,0.0,0.0,0.0,0.0,0.0,0.0,0.0,0.0,-3.425,-3.7403,-3.9617,-4.0697,-4.11,0.0,0.0,0.0,0.0,0.0,0.0,-5.106,-5.3044,-5.4898,-5.6583,-5.9295,-5.9674,-5.7553,-6.2333,-6.4686,-6.4705,-6.666,-6.803,-6.8808,-6.9383,-6.9357,-6.8837,-6.7131,-6.5401,-6.3464,-5.7537,-5.3977,-5.1931,-5.0547,-4.9524,-4.8832,-4.8805,-4.8895,-4.9134,0.0,0.0,0.0,0.0,0.0,0.0,0.0,0.0,0.0,0.0,0.0,0.0,0.0,0.0,-2.4184,-2.5675,-2.5844,-2.605,0.0,0.0,0.0,0.0,0.0,0.0,0.0,0.0,0.0,-2.5351,-2.5988,-2.7079,-2.8522,-2.7843,-2.815,-2.9329,-2.9329,-2.9942,-3.1009,-3.0745,-3.0294,-2.9845,0.0,0.0,0.0,0.0,0.0,0.0,0.0,0.0,0.0,0.0,0.0,0.0,0.0,0.0,0.0,0.0,0.0,0.0,0.0,0.0,0.0,0.0,0.0,0.0,0.0,0.0,0.0,0.0,0.0,0.0,0.0,0.0,0.0,0.0,0.0,0.0,0.0,0.0,0.0,-4.0003,-4.2601,0.0,0.0,0.0,0.0,-4.7537,-5.0787,-5.3516,-5.5274,-5.8005,-6.0603,-6.299,-6.4546,-6.5125,-6.4774,-6.6963,-6.755,-6.6651,-6.8648,-7.014,-7.1142,-7.1176,-7.112,-7.094,-6.8372,-6.6716,-6.5586,-5.949,-5.6629,-5.5842,-5.2462,-5.1656,-5.2141,-5.0693,-5.0541,-5.099,0.0,0.0,0.0,0.0,0.0,0.0,0.0,0.0,0.0,0.0,0.0,0.0,0.0,-2.6564,-2.7526,-2.8526,-2.9505,-2.9505,-2.8622,0.0,0.0,0.0,0.0,0.0,0.0,0.0,-2.4342,-2.5237,-2.5979,-2.6688,-2.714,-2.6936,-2.6952,-2.703,-2.7861,-2.8495,-2.8984,-3.0013,-2.9461,-2.785,-2.7167,-2.664,0.0,0.0,0.0,0.0,0.0,0.0,0.0,0.0,0.0,0.0,0.0,0.0,0.0,0.0,0.0,0.0,0.0,0.0,0.0,0.0,0.0,0.0,0.0,0.0,0.0,0.0,0.0,0.0,0.0,0.0,0.0,0.0,0.0,0.0,0.0,0.0,0.0,-4.2732,-4.557,0.0,-4.9406,-5.1458,-5.2929,-5.3551,-5.6119,-5.8552,-6.0622,-6.3012,-6.4768,-6.5631,-6.7539,-6.8316,-6.7719,-6.9377,-7.0107,-6.9748,-7.0411,-7.0973,-7.1312,-7.1312,-7.0389,-6.8634,-6.7604,-6.6027,-6.4022,-6.1368,-5.9159,-5.7348,-5.5628,-5.474,-5.4231,-5.4072,-5.4192,-5.4371,0.0,0.0,0.0,0.0,0.0,0.0,0.0,0.0,0.0,0.0,0.0,-2.5352,-2.7246,-2.8594,-2.9766,-3.0762,-3.1523,-3.1328,-2.9883,0.0,0.0,0.0,0.0,0.0,0.0,-2.457,-2.5234,-2.5508,-2.625,-2.6602,-2.6602,-2.6465,-2.6409,-2.66,-2.7282,-2.76,-2.7652,-2.8969,-2.8365,-2.6563,-2.6086,-2.5829,-2.583,0.0,0.0,0.0,0.0,0.0,0.0,0.0,0.0,0.0,0.0,0.0,0.0,0.0,0.0,0.0,0.0,0.0,0.0,0.0,0.0,0.0,0.0,0.0,0.0,0.0,0.0,0.0,0.0,0.0,0.0,0.0,0.0,0.0,0.0,0.0,-4.5001,-4.4892,-4.9053,-5.2401,-5.3413,-5.6508,-5.8424,-5.8361,-6.0588,-6.2787,-6.4532,-6.6627,-6.7809,-6.7858,-6.96,-7.0309,-6.9849,-7.0782,-7.1312,-7.1312,-7.1312,-7.1312,-7.1312,-7.1312,-7.0076,-6.7874,-6.7368,-6.5941,-6.3645,-6.2829,-6.1134,-5.9039,-5.8112,-5.7124,-5.6166,-5.6166,-5.6316,-5.6436,0.0,0.0,0.0,0.0,0.0,0.0,0.0,0.0,0.0,0.0,-2.459,-2.5977,-2.8144,-2.9512,-3.0801,-3.209,-3.1777,-3.1152,-3.0254,-2.8594,0.0,0.0,0.0,0.0,-2.4512,-2.5762,-2.6445,-2.6445,-2.6855,-2.7051,-2.7012,-2.6602,-2.7061,-2.8132,-2.7693,-2.7505,-2.7505,-2.7505,-2.7075,-2.6283,-2.6149,-2.5618,-2.5068,0.0,0.0,0.0,0.0,0.0,0.0,0.0,0.0,0.0,0.0,0.0,0.0,0.0,0.0,0.0,0.0,0.0,0.0,0.0,0.0,0.0,0.0,0.0,0.0,0.0,0.0,0.0,0.0,0.0,0.0,0.0,0.0,0.0,-4.1909,-4.601,-4.8241,-4.654,-5.3145,-5.6843,-5.4059,-5.9094,-6.2157,-6.1501,-6.414,-6.612,-6.6862,-6.8769,-6.9836,-6.9836,-7.0838,-7.1312,-7.1312,-7.1312,-7.1312,-7.1312,-7.1312,-7.1312,-7.1312,-7.1312,-7.0482,-6.9121,-6.7774,-6.6365,-6.4923,-6.3592,-6.2301,-6.1014,-5.9697,-5.874,-5.7992,-5.6735,-5.6615,-5.7004,0.0,0.0,0.0,0.0,0.0,0.0,0.0,0.0,0.0,0.0,-2.6016,-2.7773,-2.9941,-3.1309,-3.2344,-3.3008,-3.2129,-3.1152,-3.0254,0.0,0.0,0.0,0.0,0.0,-2.6289,-2.6973,-2.7461,-2.7773,-2.7891,-2.7617,-2.7012,-2.6894,-2.6704,-2.6366,-2.6247,-2.6207,-2.6207,-2.6207,-2.6247,-2.6304,-2.5297,-2.4846,-2.4794,0.0,0.0,0.0,0.0,0.0,0.0,0.0,0.0,0.0,0.0,0.0,0.0,0.0,0.0,0.0,0.0,0.0,0.0,0.0,0.0,0.0,0.0,0.0,0.0,0.0,0.0,0.0,0.0,0.0,0.0,0.0,0.0,-4.4461,-4.5202,-4.8321,-5.129,-5.3278,-5.6153,-5.8739,-6.0815,-6.2377,-6.3746,-6.5189,-6.7083,-6.8504,-6.9194,-7.0331,-7.0939,-7.0939,-7.1176,-7.1312,-7.1312,-7.1312,-7.1312,-7.1312,-7.1312,-7.1312,-7.1312,-7.1312,-6.9982,-6.7673,-6.7368,-6.5835,-6.3592,-6.3279,-6.26,-6.1732,-6.0894,-5.9847,-5.88,-5.8441,-5.7782,-5.7004,0.0,0.0,0.0,0.0,0.0,0.0,0.0,0.0,0.0,0.0,-2.6582,-2.8496,-3.0664,-3.1875,-3.2637,-3.2871,-3.1894,-3.0723,-2.9473,0.0,0.0,0.0,0.0,-2.6777,-2.7539,-2.8144,-2.8496,-2.8555,-2.8555,-2.8125,-2.7285,-2.709,-2.666,-2.5996,-2.582,-2.5742,-2.5742,-2.5742,-2.6094,-2.6543,-2.543,-2.529,-2.5563,-2.4595,-2.4625,-2.5157,-2.5145,-2.5493,-2.5946,-2.5679,0.0,0.0,0.0,0.0,0.0,0.0,0.0,0.0,0.0,0.0,0.0,0.0,0.0,0.0,0.0,0.0,0.0,0.0,0.0,0.0,0.0,0.0,0.0,0.0,-4.4384,-4.7417,-4.8644,-5.1258,-5.4058,-5.6723,-5.8383,-6.0528,-6.36,-6.4187,-6.5222,-6.7117,-6.8402,-6.9553,-7.0601,-7.1075,-7.1312,-7.1312,-7.1312,-7.1312,-7.1312,-7.1312,-7.1312,-7.1312,-7.1312,-7.1312,-7.1312,-7.1312,-7.0076,-6.7974,-6.747,-6.5941,-6.3902,-6.3279,-6.254,0.0,0.0,0.0,0.0,0.0,-5.7663,-5.6286,0.0,0.0,0.0,0.0,0.0,0.0,0.0,0.0,0.0,0.0,0.0,-2.8476,-3.0449,-3.1426,-3.1973,-3.2012,-3.1113,-2.9824,0.0,0.0,0.0,-2.6621,-2.7734,-2.8398,-2.8496,-2.9258,-2.9434,-2.8984,-2.8945,-2.8496,-2.7656,-2.7266,-2.6855,-2.6445,-2.6055,-2.5879,-2.5879,-2.584,-2.6269,-2.6934,-2.6074,-2.6211,-2.6758,-2.5421,-2.5317,-2.5853,-2.5542,-2.5169,-2.4885,-2.5071,0.0,0.0,0.0,0.0,0.0,0.0,0.0,0.0,0.0,0.0,0.0,0.0,0.0,0.0,0.0,0.0,0.0,0.0,0.0,0.0,0.0,0.0,0.0,0.0,-4.7335,-5.0109,-5.21,-5.4491,-5.6592,-5.7891,-6.003,-6.2076,-6.3814,-6.4986,-6.6339,-6.7929,-6.8707,-6.9755,-7.1244,0.0,0.0,0.0,0.0,-7.1312,-7.1312,-7.1312,-7.1312,-7.1312,-7.1312,-7.1312,-7.1312,-7.1312,-7.0574,-6.9121,-6.7974,-6.6543,-6.5032,-6.3789,-6.2415,-6.1104,-6.0954,-6.0505,-5.9817,-5.859,-5.7034,-5.5568,0.0,0.0,0.0,0.0,0.0,0.0,0.0,0.0,0.0,-2.5,-2.6875,-2.8457,-2.9219,-3.0059,-3.0723,-3.1113,-2.9394,-2.7851,0.0,0.0,-2.6562,-2.7871,-2.8476,-2.9121,-2.9824,-3.0,-2.9863,-2.9453,-2.9101,-2.8496,-2.7676,-2.7578,-2.7305,-2.6894,-2.6797,-2.6758,-2.6758,-2.6406,-2.6562,-2.6934,-2.6074,-2.6055,-2.6387,-2.5447,-2.4918,-2.4741,-2.4657,-2.5012,-2.5444,-2.5013,-2.5358,-2.5678,-2.4694,0.0,0.0,0.0,0.0,0.0,0.0,0.0,0.0,0.0,0.0,0.0,0.0,0.0,0.0,0.0,0.0,0.0,0.0,0.0,0.0,-4.5781,-4.9357,-5.2403,-5.4664,-5.693,-5.8511,-5.9093,-6.0941,-6.2787,-6.4309,-6.5189,-6.6576,-6.8707,-6.9011,-6.9755,-7.1244,-7.1312,-7.1312,-7.1312,-7.1312,-7.1312,-7.1312,-7.1312,-7.1312,-7.1312,0.0,0.0,-7.1312,-7.1312,-7.0574,-6.9217,-6.8894,-6.7368,-6.5111,-6.4813,-6.3305,-6.1014,-5.9907,-5.9428,-5.9189,-5.8411,-5.7872,-5.7423,0.0,0.0,0.0,0.0,0.0,0.0,0.0,0.0,0.0,0.0,-2.6719,-2.7891,-2.8535,-2.8984,-2.9258,-2.9277,-2.7695,0.0,0.0,-2.6582,-2.7266,-2.8555,-2.9219,-2.9505,-2.931,-2.931,-2.8639,-2.7409,-2.7128,-2.6865,-2.6761,-2.6642,-2.6655,-2.7012,-2.7012,-2.7012,-2.7012,-2.6797,-2.6816,-2.6851,-2.5572,-2.5139,-2.5252,-2.4632,-2.4256,-2.3954,-2.3044,-2.2925,-2.313,-2.2826,-2.2808,-2.2862,-2.2262,-2.2348,-2.2572,0.0,0.0,0.0,0.0,0.0,0.0,0.0,0.0,0.0,0.0,0.0,0.0,0.0,0.0,-3.8707,0.0,0.0,-4.5578,-4.9018,-5.2063,-5.4633,-5.6554,-5.8653,-6.0207,-6.0829,-6.1795,-6.3125,-6.4952,-6.5459,-6.6643,-6.8944,-6.9113,-6.9755,-7.1244,-7.1312,-7.1312,-7.1312,-7.1312,-7.1312,-7.1312,-7.1323,-7.1323,-7.1312,-7.1323,-7.1323,-7.1312,-7.1312,-7.0916,-7.017,-6.883,-6.7368,-6.6016,-6.4254,-6.2617,-6.1014,-5.9997,-5.9189,-5.859,-5.8231,-5.7902,-5.7513,0.0,0.0,0.0,0.0,0.0,0.0,0.0,0.0,0.0,0.0,0.0,-2.7129,-2.7734,-2.7793,-2.7598,0.0,0.0,0.0,0.0,-2.7226,-2.7999,-2.8661,-2.9449,-2.9291,-2.7913,-2.7931,-2.7123,-2.532,-2.5025,-2.5239,-2.571,-2.5392,-2.5845,-2.6979,-2.6646,-2.6855,-2.75,-2.7014,-2.6833,-2.6672,-2.5024,-2.4158,-2.3817,-2.3125,-2.3032,-2.3026,-2.1708,-2.0881,-2.0467,-2.0533,-2.0223,-1.9926,-1.9739,-2.0371,-2.1051,-2.0658,-2.1099,0.0,0.0,0.0,0.0,0.0,0.0,0.0,0.0,0.0,-3.6288,-3.6819,-3.8875,-4.1504,-4.4485,-4.621,-4.8376,-5.1961,-5.4431,-5.6423,-5.7897,-5.976,-6.1356,-6.2482,-6.2787,-6.3599,-6.529,-6.573,-6.6779,-6.8944,-6.9113,-6.9755,-7.1244,-7.1312,-7.1413,-7.1582,-7.1548,-7.1616,-7.1853,-7.1604,-7.1469,-7.1515,-7.1334,-7.1266,-7.1312,-7.1312,-7.1098,-7.0791,-6.8007,-6.6751,-6.6511,-6.3396,-6.1702,-6.1074,-6.0505,-5.9488,-5.8321,-5.8321,-5.7962,-5.7453,0.0,0.0,0.0,0.0,0.0,0.0,0.0,0.0,0.0,0.0,0.0,0.0,0.0,0.0,0.0,0.0,0.0,0.0,0.0,-2.7402,-2.7822,-2.7882,-2.8355,-2.7878,-2.6349,-2.6227,-2.5923,-2.532,-2.5271,-2.5175,-2.4779,-2.4862,-2.5617,-2.6983,-2.5583,-2.6626,-2.9108,-2.6992,-2.6136,-2.6045,-2.4814,-2.3545,-2.2171,-2.0679,-2.0639,-2.146,-2.1312,-2.0645,-2.0029,-2.0255,-2.0121,-1.9911,-1.9729,-2.0439,-2.1159,-2.0833,0.0,-2.1289,-2.125,-2.2886,-2.4991,-2.6704,-2.9831,-3.2871,0.0,0.0,-3.912,-3.9412,-4.137,-4.372,-4.6109,-4.7767,-4.9763,-5.2875,-5.5243,-5.7205,-5.8653,-6.0283,-6.1806,-6.3226,-6.4322,-6.4864,-6.4715,-6.5933,-6.7354,-6.8977,-6.9113,-6.9755,-7.1244,-7.1312,-7.1684,-7.2621,-7.236,-7.2858,-7.3932,-7.28,-7.2293,-7.2259,-7.165,-7.1345,-7.1312,-7.1312,-7.0574,-6.9313,-6.6543,-6.5328,-6.5188,-6.298,-6.1702,-6.1104,-6.1044,-6.0176,-5.9009,-5.9009,-5.8949,-5.871,0.0,0.0,0.0,0.0,0.0,0.0,0.0,0.0,0.0,0.0,0.0,0.0,0.0,0.0,0.0,0.0,0.0,0.0,-2.6934,-2.7656,-2.8,-2.7777,-2.821,-2.7211,-2.4655,-2.4655,-2.3978,-2.2857,-2.2681,-2.2991,-2.3696,-2.3495,-2.421,-2.5724,-2.5028,-2.5476,-2.6628,-2.5611,-2.4991,-2.4531,-2.2971,-2.1825,-2.0693,-1.8933,-1.811,-1.8104,-1.8296,-1.7986,0.0,0.0,-1.713,-1.7011,-1.7011,-1.7982,-1.9293,-1.9384,-2.0232,0.0,-2.217,-2.4311,-2.6446,0.0,-3.1355,-3.5019,-3.5355,-3.8056,-4.0759,-4.1741,-4.3415,-4.5568,-4.8206,-4.9593,-5.1285,0.0,-5.5919,-5.7476,-5.937,-6.0216,-6.0825,-6.1467,-6.2798,-6.4051,-6.5121,-6.5797,-6.6981,-6.8944,-6.9485,-7.0195,-7.1244,-7.1718,-7.2124,-7.2496,-7.2868,-7.3071,-7.3196,-7.3409,-7.2969,-7.1751,-7.2032,-7.183,-7.1312,-7.1312,-7.0076,-6.7874,-6.5941,-6.4623,-6.3872,-6.2979,-6.2061,-6.1104,-6.1104,-6.0296,-5.9159,-5.9548,-5.9428,-5.8979,0.0,0.0,0.0,0.0,0.0,0.0,0.0,0.0,0.0,0.0,0.0,0.0,0.0,0.0,0.0,0.0,0.0,0.0,0.0,-2.7578,-2.7782,-2.7034,-2.7812,0.0,-2.3698,-2.3664,-2.3039,-2.1853,-2.1227,-2.1479,-2.2356,-2.2262,-2.2977,-2.438,-2.3904,-2.4261,-2.5074,-2.4408,-2.3805,-2.3165,-2.1643,-2.0411,-1.9319,-1.7688,-1.6526,-1.5858,-1.6072,-1.5752,0.0,0.0,-1.4878,-1.4913,-1.5082,-1.6374,-1.8024,-1.8626,-2.0045,-2.1889,-2.3132,0.0,0.0,-2.8885,-3.2874,-3.6502,-3.6558,-3.8949,-4.1533,-4.2965,-4.4297,-4.6219,-4.9416,-5.0488,-5.1967,-5.541,-5.663,-5.7881,-6.0114,-6.0419,-6.0419,-6.0419,-6.1231,-6.255,-6.458,-6.5324,-6.6643,-6.8944,-6.9586,-7.0297,-7.1278,-7.1988,-7.2496,-7.2699,-7.3206,-7.3341,-7.3003,-7.3578,-7.3012,-7.1616,-7.2134,-7.1999,-7.1312,-7.0482,-6.883,-6.6543,-6.5111,-6.4015,-6.3079,-6.2869,-6.2121,-6.1104,-6.1104,-6.0296,-5.9159,-5.9638,-5.9398,-5.874,0.0,0.0,0.0,0.0,0.0,0.0,0.0,0.0,0.0,0.0,0.0,0.0,0.0,0.0,0.0,0.0,0.0,0.0,0.0,-2.6973,-2.6806,-2.4878,-2.6702,-2.6474,-2.3683,-2.3873,-2.3888,-2.3574,-2.2271,-2.1376,-2.1096,-2.1209,-2.2062,-2.3544,-2.1937,-2.3032,-2.5781,-2.3561,-2.2587,-2.2571,-2.1249,-1.9679,-1.7943,-1.7061,-1.6353,-1.5832,-1.5845,0.0,0.0,0.0,-1.4692,-1.4558,-1.529,-1.6703,0.0,-1.9363,-2.0968,-2.2667,-2.3807,0.0,-2.8371,-3.1129,-3.4198,-3.694,-3.8209,-3.9755,-4.1309,-4.2685,-4.3648,-4.5333,-4.9118,-4.9816,-5.1386,-5.6014,-5.7374,-5.866,-6.0926,-6.1264,-6.1264,-6.1264,-6.0622,-6.0791,0.0,-6.441,-6.6643,-6.8944,-6.9113,-6.9789,-7.1244,-7.1988,-7.2732,-7.3443,-7.3477,-7.3815,-7.4559,-7.3172,-7.2428,-7.236,-7.1684,-7.1345,-7.1222,-6.8503,-6.6543,-6.5111,-6.3676,-6.3194,-6.3019,-6.2391,-6.1732,-6.1104,-6.1104,-6.0296,-5.9099,-5.9129,-5.871,-5.8052,0.0,0.0,0.0,0.0,0.0,0.0,0.0,0.0,0.0,0.0,0.0,0.0,0.0,0.0,0.0,0.0,0.0,0.0,0.0,-2.668,-2.6692,-2.5499,-2.6733,-2.6446,-2.4325,-2.4658,-2.5019,-2.513,-2.3678,-2.2817,-2.2716,-2.1601,-2.1362,-2.1978,-2.1362,-2.1713,-2.2673,-2.1779,-2.1366,-2.1241,-1.9807,-1.8851,-1.8183,-1.6687,-1.5765,-1.5231,0.0,0.0,0.0,0.0,0.0,0.0,-1.5197,0.0,-1.7596,-1.9217,-2.141,-2.3519,-2.4048,-2.7318,-3.0788,-3.2138,-3.5554,-3.8769,-3.9234,-4.0858,-4.2396,-4.2941,-4.3746,-4.4879,-4.6876,-4.8396,-5.0357,-5.3539,-5.5808,-5.7949,-6.0182,-6.1366,-6.1637,-6.0622,-6.1603,0.0,0.0,0.0,0.0,-6.8132,-6.9248,-7.0208,-7.1233,-7.2438,-7.3138,-7.3046,-7.2897,-7.251,-7.1745,-7.0897,-6.9908,-6.8961,-6.8732,-6.8634,-6.8536,-6.6679,-6.5544,-6.5032,-6.3706,-6.2839,-6.2421,-6.2181,-6.1433,-6.0446,-6.0446,-5.9608,-5.8471,-5.8471,-5.7752,-5.6795,0.0,0.0,0.0,0.0,0.0,0.0,0.0,0.0,0.0,0.0,0.0,0.0,0.0,0.0,0.0,0.0,0.0,0.0,0.0,0.0,-2.5952,-2.5272,-2.6372,-2.6421,-2.5201,-2.5459,-2.5695,-2.5814,-2.4404,-2.358,-2.3352,-2.2506,-2.1831,-2.1354,-2.1479,-2.1286,-2.0775,-2.0374,-2.0268,-2.0053,-1.8677,-1.8158,-1.7808,-1.6233,-1.5378,0.0,0.0,0.0,0.0,0.0,0.0,0.0,0.0,-1.6984,-1.8356,-1.9757,-2.2087,-2.4469,-2.5406,-2.9073,-3.2889,-3.4094,-3.7184,-4.0025,-4.027,-4.121,-4.206,-4.2097,-4.2422,-4.3068,-4.4605,-4.6057,-4.81,-5.1658,-5.3883,-5.6427,-6.0047,-6.1129,-6.1704,-6.2042,-6.2922,-6.3531,0.0,0.0,0.0,-6.8199,-6.9485,-7.0478,-7.1266,-7.2404,-7.2785,-7.1922,-7.185,-7.1028,-6.958,-6.893,-6.8164,-6.7164,-6.7164,-6.6958,-6.647,-6.5544,-6.4813,-6.429,-6.3237,-6.248,-6.2061,-6.1583,-6.0864,-6.0057,-5.9817,-5.9219,-5.8411,-5.7932,-5.7214,-5.6466,0.0,0.0,0.0,0.0,0.0,0.0,0.0,0.0,0.0,0.0,0.0,0.0,0.0,0.0,0.0,0.0,0.0,0.0,0.0,0.0,0.0,-2.3949,-2.585,-2.6579,-2.5901,-2.6113,-2.6038,-2.559,-2.4474,-2.3667,-2.3119,-2.3683,-2.3142,-2.1772,-2.223,-2.168,-2.0227,-1.965,-1.9361,-1.9248,-1.8104,-1.7414,-1.7045,-1.59,0.0,0.0,0.0,0.0,0.0,0.0,0.0,0.0,0.0,-1.9039,-2.0504,-2.1089,-2.3071,-2.5588,-2.7575,-3.1006,-3.4502,-3.6706,-3.89,-4.0606,-4.1205,-4.0846,-4.0367,-4.0307,-3.9798,-4.007,0.0,0.0,-4.4851,-5.0185,-5.1866,-5.4566,-6.0486,-6.0825,-6.1806,0.0,0.0,0.0,0.0,0.0,0.0,-6.8958,0.0,-7.0411,-7.1131,-7.1806,-7.152,-7.0075,-7.0108,-6.9414,-6.8188,-6.7413,-6.6958,-6.6958,-6.6958,-6.6259,-6.5032,-6.5032,-6.429,-6.3049,-6.2421,-6.2121,-6.2002,-6.0685,-6.0116,-6.0027,-5.9368,-5.9069,-5.883,-5.7573,-5.7064,-5.6915,0.0,0.0,0.0,0.0,0.0,0.0,0.0,0.0,0.0,0.0,0.0,0.0,0.0,0.0,0.0,0.0,0.0,0.0,0.0,0.0,0.0,0.0,0.0,0.0,0.0,0.0,0.0,0.0,0.0,-2.4295,-2.4208,-2.2912,-2.2198,0.0,-2.1521,-2.1249,-2.0885,-2.0267,-2.0085,-1.988,0.0,-1.8081,-1.8067,0.0,0.0,0.0,0.0,0.0,0.0,0.0,0.0,0.0,0.0,-2.0454,-2.153,-2.1839,-2.443,-2.7326,-2.8418,-3.244,-3.6567,-3.7593,-3.9485,-4.1055,-4.0726,-4.0516,-4.0127,-3.911,-3.8923,-3.9022,0.0,0.0,0.0,-4.7596,-5.2084,0.0,-6.0492,-6.3856,0.0,-6.6474,0.0,-6.759,-6.7354,-6.7146,0.0,0.0,-6.8533,-6.8851,-6.9151,-6.9314,-6.8586,-6.7004,-6.7145,-6.6802,-6.5902,-6.4715,-6.4097,-6.4097,-6.4097,-6.4015,-6.3592,-6.3592,-6.3394,-6.3079,-6.2899,-6.254,-6.2032,-6.1194,-6.0565,-6.0027,-5.9368,-5.8501,-5.7573,-5.7214,-5.6496,-5.5658,0.0,0.0,0.0,0.0,0.0,0.0,0.0,0.0,0.0,0.0,0.0,0.0,0.0,0.0,0.0,0.0,0.0,0.0,0.0,0.0,0.0,0.0,0.0,0.0,0.0,0.0,0.0,0.0,0.0,0.0,0.0,-2.3604,-2.2775,-2.2012,-2.2138,-2.1667,-2.0898,0.0,0.0,0.0,0.0,0.0,0.0,0.0,0.0,0.0,0.0,0.0,0.0,0.0,0.0,-2.0534,-2.1315,-2.2244,-2.3086,-2.3427,0.0,-2.9147,-2.9941,-3.4401,-3.8891,-3.9526,-4.1184,-4.2491,-4.1833,-4.1025,-4.0008,-3.8661,-3.8012,0.0,0.0,0.0,0.0,0.0,0.0,0.0,-6.0425,-6.4194,-6.7049,0.0,-6.9248,0.0,-6.8573,-6.8142,-6.7653,0.0,-6.7392,-6.778,-6.7907,-6.7907,-6.7069,-6.5521,-6.5685,-6.5183,-6.4209,-6.3478,-6.3079,-6.3079,-6.3079,-6.3079,-6.3079,-6.3079,-6.3079,-6.3049,0.0,-6.2271,-6.1613,-6.0954,-6.0086,-5.9189,-5.883,-5.8022,-5.7064,-5.6795,-5.6226,-5.5598,0.0,0.0,0.0,0.0,0.0,0.0,0.0,0.0,0.0,0.0,0.0,0.0,0.0,0.0,0.0,0.0,0.0,0.0,0.0,0.0,0.0,0.0,0.0,0.0,0.0,0.0,0.0,0.0,0.0,0.0,0.0,0.0,0.0,0.0,0.0,0.0,0.0,0.0,0.0,0.0,0.0,0.0,0.0,0.0,0.0,0.0,0.0,0.0,0.0,0.0,-2.1407,-2.2165,-2.3191,-2.4082,-2.4844,-2.5559,-2.8116,-3.0891,-3.2036,-3.659,-4.119,-4.157,-4.3085,-4.4227,-4.3389,-4.1683,-3.9888,-3.8542,0.0,-3.6394,-3.6562,-3.7732,-3.9877,-4.3684,0.0,-5.3274,-5.9923,-6.3121,-6.6306,-7.0501,-7.0434,-6.987,-6.9247,-6.8894,-6.7673,-6.5328,-6.6048,-6.6679,-6.6679,-6.6679,-6.6048,-6.4923,-6.4813,-6.432,-6.3079,-6.3079,-6.3079,-6.3079,-6.3079,-6.3079,-6.3079,-6.3079,-6.3079,-6.3049,-6.248,0.0,-6.1194,-6.0505,-5.9428,-5.8231,-5.8141,-5.7663,-5.6915,-5.6376,-5.6107,-5.5957,0.0,0.0,0.0,0.0,0.0,0.0,0.0,0.0,0.0,0.0,0.0,0.0,0.0,0.0,0.0,0.0,0.0,0.0,0.0,0.0,0.0,0.0,0.0,0.0,0.0,0.0,0.0,0.0,0.0,0.0,0.0,0.0,0.0,0.0,0.0,0.0,0.0,0.0,0.0,0.0,0.0,0.0,0.0,0.0,0.0,0.0,0.0,0.0,0.0,0.0,-2.3038,-2.3411,-2.4774,-2.5879,-2.6842,-2.8549,-3.0513,-3.256,-3.4275,-3.8479,-4.227,-4.1791,-4.343,-4.4676,-4.294,-4.0995,0.0,0.0,-3.6567,-3.5734,-3.5868,-3.6671,-3.8508,-4.2248,0.0,0.0,0.0,0.0,-6.6635,0.0,0.0,0.0,0.0,0.0,0.0,0.0,0.0,-6.3789,-6.3789,-6.3789,-6.3706,-6.3478,-6.3508,-6.3394,-6.3079,-6.3079,-6.3079,-6.3079,-6.3079,-6.3079,-6.3079,-6.3079,-6.3079,-6.3079,-6.2959,0.0,-6.1882,-6.1194,-6.0146,-5.889,-5.8351,-5.7393,-5.6316,-5.6196,-5.5837,-5.5359,0.0,0.0,0.0,0.0,0.0,0.0,0.0,0.0,0.0,0.0,-2.4609,0.0,0.0,0.0,0.0,0.0,0.0,0.0,0.0,0.0,0.0,0.0,0.0,0.0,0.0,0.0,0.0,0.0,0.0,0.0,0.0,0.0,0.0,0.0,0.0,0.0,0.0,0.0,0.0,0.0,0.0,0.0,0.0,0.0,0.0,0.0,0.0,0.0,0.0,0.0,-2.4352,-2.5197,-2.6586,-2.7427,-2.8344,-3.0203,-3.2192,-3.4038,-3.5656,-3.9969,-4.378,-4.2868,-4.3977,-4.4766,-4.2821,0.0,0.0,0.0,-3.6178,-3.5489,-3.5589,0.0,0.0,0.0,0.0,0.0,0.0,0.0,0.0,0.0,0.0,0.0,0.0,0.0,0.0,0.0,0.0,-6.3079,-6.3079,-6.3079,-6.3079,-6.3079,-6.3079,-6.3079,-6.3079,-6.3079,-6.3079,-6.3079,-6.3079,-6.3079,-6.3079,-6.3079,-6.3079,-6.3049,-6.272,0.0,-6.1523,-6.0864,-5.9578,-5.8022,-5.7723,-5.6795,-5.5658,-5.5658,-5.5478,-5.5179,0.0,0.0,0.0,0.0,0.0,0.0,0.0,-2.4648,-2.5273,-2.5469,-2.5879,-2.5879,-2.5195,-2.4492,0.0,0.0,0.0,0.0,0.0,0.0,0.0,0.0,0.0,0.0,0.0,0.0,0.0,0.0,0.0,0.0,0.0,0.0,0.0,0.0,0.0,0.0,0.0,0.0,0.0,0.0,0.0,0.0,0.0,0.0,0.0,0.0,0.0,0.0,0.0,0.0,-2.5485,-2.6825,-2.7864,-2.8665,-2.9635,-3.1612,-3.3487,-3.535,-3.7139,-4.138,-4.5121,-4.4188,-4.4731,-4.4975,-4.2851,-4.0307,0.0,0.0,-3.5968,-3.5519,-3.5519,0.0,-3.7977,0.0,0.0,0.0,0.0,0.0,0.0,0.0,0.0,0.0,0.0,0.0,0.0,0.0,0.0,0.0,-6.3079,-6.3079,-6.3079,-6.3079,-6.3079,-6.3079,-6.3079,-6.3079,-6.3079,-6.3079,-6.3079,-6.3079,-6.3079,-6.3079,-6.2989,-6.2839,-6.2331,0.0,0.0,-6.0326,-5.889,-5.7094,-5.7094,-5.6316,-5.5179,-5.5179,-5.5179,-5.5179,0.0,0.0,0.0,0.0,0.0,0.0,0.0,-2.5098,-2.5957,-2.6738,-2.7207,-2.7461,-2.7383,-2.5918,0.0,0.0,0.0,0.0,0.0,0.0,0.0,0.0,0.0,0.0,0.0,0.0,0.0,0.0,0.0,0.0,0.0,0.0,0.0,0.0,0.0,0.0,0.0,0.0,0.0,0.0,0.0,0.0,0.0,0.0,0.0,0.0,0.0,0.0,0.0,0.0,0.0,-2.726,-2.8164,-2.9381,-3.0891,-3.3368,0.0,0.0,-3.9462,-4.2949,-4.5414,-4.5246,-4.5727,-4.5544,-4.3,0.0,0.0,-3.6746,-3.5968,-3.5519,-3.5519,-3.5609,-3.6496,0.0,0.0,-4.4541,0.0,0.0,0.0,0.0,0.0,0.0,0.0,0.0,0.0,0.0,0.0,0.0,-6.3079,-6.3079,-6.3079,-6.3079,-6.3079,-6.3079,-6.3079,-6.3079,-6.3079,-6.3079,-6.3079,-6.3079,-6.3079,-6.3079,-6.275,-6.2181,-6.2121,0.0,0.0,-6.0116,-5.889,-5.7094,-5.7094,-5.6316,-5.5179,-5.5179,-5.5179,-5.5179,0.0,0.0,0.0,0.0,0.0,0.0,0.0,-2.5391,-2.6348,-2.6934,-2.7617,-2.7949,-2.7695,-2.6816,0.0,0.0,0.0,0.0,0.0,0.0,0.0,0.0,0.0,0.0,0.0,0.0,0.0,0.0,0.0,0.0,0.0,0.0,0.0,0.0,0.0,0.0,0.0,0.0,0.0,0.0,0.0,0.0,0.0,0.0,0.0,0.0,0.0,0.0,0.0,0.0,0.0,0.0,-2.8498,-2.9443,0.0,0.0,-3.5427,-3.7767,-4.054,-4.4151,-4.7031,-4.6649,-4.6138,-4.5214,-4.3419,0.0,-3.7554,-3.6656,-3.5968,-3.5519,-3.5519,-3.5519,-3.6094,0.0,0.0,0.0,0.0,0.0,0.0,0.0,0.0,0.0,0.0,0.0,0.0,0.0,0.0,0.0,-6.3079,-6.3079,-6.3079,-6.3079,-6.3079,-6.3079,-6.3079,-6.3079,-6.3079,-6.3079,-6.3079,-6.3079,-6.3079,-6.266,-6.2331,-6.2061,-6.1224,0.0,0.0,-5.9219,-5.8201,-5.7064,-5.6675,-5.5987,-5.5179,-5.5179,-5.5179,-5.5179,0.0,0.0,0.0,0.0,0.0,0.0,-2.418,-2.5352,-2.6348,-2.6777,-2.7676,-2.8184,-2.7891,-2.7461,-2.6738,-2.5566,0.0,0.0,0.0,0.0,0.0,0.0,0.0,0.0,0.0,0.0,0.0,0.0,0.0,0.0,0.0,0.0,0.0,0.0,0.0,0.0,0.0,0.0,0.0,0.0,0.0,0.0,0.0,0.0,0.0,0.0,0.0,0.0,0.0,0.0,0.0,0.0,0.0,0.0,0.0,0.0,-3.5587,-3.848,-4.0979,-4.478,-4.7903,-4.7736,-4.6609,-4.5214,0.0,0.0,-3.7704,-3.6686,-3.6267,-3.5998,-3.5818,-3.5938,-3.6514,0.0,0.0,-4.1701,0.0,0.0,0.0,0.0,0.0,0.0,0.0,0.0,0.0,0.0,0.0,0.0,-6.3348,-6.3169,-6.3079,-6.3079,-6.3079,-6.3079,-6.3079,-6.3079,-6.3079,-6.3079,-6.3079,-6.3079,-6.3049,-6.2391,-6.2002,-6.1732,-6.0595,0.0,0.0,-5.859,-5.7723,-5.7034,-5.6406,-5.5777,-5.5179,-5.5179,-5.5179,-5.5179,0.0,0.0,0.0,0.0,0.0,0.0,0.0,-2.4902,-2.5898,-2.6328,-2.75,-2.8301,-2.8281,-2.791,-2.7305,-2.6445,0.0,0.0,0.0,0.0,0.0,0.0,0.0,0.0,0.0,0.0,0.0,0.0,0.0,0.0,0.0,0.0,0.0,0.0,0.0,0.0,0.0,0.0,0.0,0.0,0.0,0.0,0.0,0.0,0.0,0.0,0.0,0.0,0.0,0.0,0.0,0.0,0.0,0.0,0.0,0.0,-3.5103,-3.7987,-4.0858,-4.4409,-4.7521,-4.8149,-4.7279,-4.5783,0.0,0.0,-3.8841,-3.6896,-3.6956,-3.7195,-3.6596,-3.6985,-3.7614,-3.8272,-3.9529,0.0,0.0,0.0,0.0,0.0,0.0,0.0,0.0,0.0,0.0,0.0,0.0,0.0,-6.3977,-6.3408,-6.3079,-6.3079,-6.3079,-6.3079,-6.3079,-6.3079,-6.3079,-6.3079,-6.3079,-6.3079,-6.3049,-6.2391,-6.1732,0.0,0.0,0.0,0.0,-5.8411,-5.7723,-5.7034,-5.6406,-5.5777,-5.5179,-5.5179,-5.5179,-5.5179,0.0,0.0,0.0,0.0,0.0,0.0,0.0,0.0,-2.5098,-2.584,-2.6562,-2.7109,-2.7383,-2.7051,-2.668,-2.6406,0.0,0.0,0.0,0.0,0.0,0.0,0.0,0.0,0.0,0.0,0.0,0.0,0.0,0.0,0.0,0.0,0.0,0.0,0.0,0.0,0.0,0.0,0.0,0.0,0.0,0.0,0.0,0.0,0.0,0.0,0.0,0.0,0.0,0.0,0.0,0.0,0.0,0.0,0.0,0.0,0.0,0.0,-4.0009,-4.2734,-4.528,-4.6087,-4.4915,-4.3449,-4.2821,0.0,-3.8471,-3.7734,-3.7407,-3.707,-3.6586,-3.6803,-3.7493,-3.9062,-4.0218,0.0,0.0,0.0,0.0,0.0,0.0,0.0,0.0,0.0,0.0,0.0,0.0,0.0,-6.4006,-6.3408,-6.3079,-6.3079,-6.3079,-6.3079,-6.3079,-6.3079,-6.3079,-6.3079,-6.3079,-6.2839,-6.2391,-6.1732,-6.1044,0.0,0.0,0.0,0.0,-5.7872,-5.7304,-5.6974,-5.5927,-5.5388,-5.5179,-5.5179,-5.5179,-5.5119,0.0,0.0,0.0,0.0,0.0,0.0,0.0,0.0,-2.4375,-2.4922,-2.5527,-2.6055,-2.6484,-2.6309,-2.6269,-2.6501,0.0,0.0,0.0,0.0,0.0,0.0,0.0,0.0,0.0,0.0,0.0,0.0,0.0,0.0,0.0,0.0,0.0,0.0,0.0,0.0,0.0,0.0,0.0,0.0,0.0,0.0,-2.3769,0.0,0.0,0.0,0.0,0.0,0.0,0.0,0.0,0.0,0.0,0.0,0.0,0.0,-3.3642,0.0,0.0,-4.1192,-4.3418,-4.4077,-4.309,0.0,0.0,0.0,-3.8172,-3.7486,-3.7146,-3.6904,-3.6599,-3.6939,-3.7812,-3.9442,-4.0849,0.0,0.0,0.0,0.0,0.0,0.0,0.0,0.0,0.0,0.0,0.0,0.0,0.0,-6.4755,-6.3917,-6.3438,-6.3438,-6.3199,-6.3079,-6.3079,-6.3079,-6.3079,-6.3079,-6.3079,-6.272,-6.2061,-6.1403,-6.0745,0.0,0.0,0.0,0.0,-5.7663,-5.7094,-5.6974,-5.5688,-5.5029,-5.482,-5.482,-5.464,-5.4371,0.0,0.0,0.0,0.0,0.0,0.0,0.0,0.0,0.0,0.0,-2.4473,-2.5156,-2.5644,-2.5684,-2.5937,0.0,0.0,0.0,0.0,0.0,0.0,0.0,0.0,0.0,0.0,0.0,0.0,0.0,-2.5117,-2.5547,-2.5215,0.0,0.0,0.0,0.0,0.0,0.0,0.0,0.0,0.0,0.0,0.0,0.0,0.0,0.0,0.0,0.0,0.0,0.0,0.0,0.0,0.0,0.0,0.0,0.0,0.0,0.0,0.0,0.0,-3.9563,0.0,0.0,0.0,0.0,0.0,0.0,0.0,-3.6505,-3.6629,-3.6866,-3.6691,-3.7509,-3.851,-3.9547,-4.141,0.0,0.0,0.0,0.0,0.0,0.0,0.0,0.0,0.0,0.0,0.0,0.0,0.0,-6.5951,-6.4695,-6.3977,-6.3947,-6.3262,-6.2933,-6.3079,-6.3079,-6.3079,-6.3079,-6.3019,-6.266,-6.2002,-6.1343,-6.0655,0.0,0.0,0.0,0.0,-5.7573,-5.7034,-5.6915,-5.5628,-5.476,-5.4192,-5.4162,-5.3713,-5.3174,0.0,0.0,0.0,0.0,0.0,0.0,0.0,0.0,0.0,0.0,0.0,-2.4375,-2.5137,-2.5215,0.0,0.0,0.0,0.0,0.0,0.0,0.0,0.0,0.0,0.0,0.0,0.0,0.0,-2.4766,-2.541,-2.6016,-2.6562,-2.666,0.0,0.0,0.0,0.0,0.0,0.0,0.0,0.0,0.0,0.0,0.0,0.0,0.0,0.0,-2.5105,-2.5946,0.0,0.0,0.0,0.0,0.0,0.0,0.0,0.0,-3.2671,-3.368,-3.5116,0.0,-3.8767,-3.9133,-3.9546,-3.9709,0.0,0.0,0.0,0.0,0.0,0.0,0.0,-3.8217,-3.9535,-4.1579,-4.2636,-4.4579,0.0,0.0,0.0,0.0,0.0,0.0,0.0,0.0,0.0,0.0,0.0,-6.5263,-6.5263,-6.4455,-6.3767,-6.3318,-6.185,-6.1762,-6.3079,-6.3079,-6.3079,-6.3079,-6.257,-6.1972,-6.1313,-6.0625,-5.9967,0.0,0.0,0.0,-5.8261,-5.6944,-5.6376,-5.6256,-5.494,-5.4341,-5.4132,-5.3623,-5.3324,-5.3114,0.0,0.0,0.0,0.0,0.0,0.0,0.0,0.0,0.0,0.0,0.0,0.0,0.0,0.0,0.0,0.0,0.0,0.0,0.0,0.0,0.0,0.0,0.0,0.0,0.0,0.0,0.0,0.0,0.0,-2.6758,0.0,0.0,0.0,0.0,0.0,0.0,0.0,0.0,0.0,0.0,-2.5605,0.0,0.0,0.0,0.0,0.0,-2.5695,-2.6445,0.0,-2.7672,-2.8754,-2.9942,0.0,0.0,0.0,0.0,-3.2593,-3.3249,-3.4244,-3.5574,-3.6838,-3.7311,-3.7718,-3.8038,0.0,0.0,0.0,0.0,0.0,0.0,0.0,0.0,0.0,-4.2534,-4.4151,0.0,0.0,0.0,0.0,0.0,0.0,0.0,0.0,0.0,0.0,0.0,0.0,-6.5353,-6.5054,-6.4366,-6.3857,-6.3498,-6.2322,-6.2175,-6.3079,-6.2292,-6.2144,-6.263,-6.2271,-6.1583,-6.0625,-6.0266,-5.9548,0.0,0.0,0.0,-5.7467,-5.587,-5.559,-5.6047,-5.3963,-5.3385,-5.3653,-5.2965,-5.2546,-5.2187,0.0,0.0,0.0,0.0,0.0,0.0,0.0,0.0,0.0,0.0,0.0,0.0,0.0,0.0,0.0,0.0,0.0,0.0,0.0,0.0,0.0,0.0,0.0,0.0,0.0,0.0,0.0,0.0,0.0,0.0,0.0,0.0,-2.7656,0.0,0.0,0.0,0.0,0.0,0.0,0.0,-2.6717,0.0,0.0,0.0,0.0,0.0,0.0,0.0,0.0,-2.8235,-2.9229,-3.0388,-3.0388,0.0,0.0,0.0,0.0,0.0,-3.4018,-3.5018,-3.5872,-3.6577,-3.6852,-3.7097,-3.7275,0.0,0.0,0.0,0.0,0.0,0.0,0.0,0.0,0.0,0.0,0.0,0.0,0.0,0.0,0.0,0.0,0.0,0.0,0.0,0.0,0.0,0.0,-6.5622,-6.5054,-6.4366,-6.3947,-6.3857,-6.2822,-6.2438,-6.2672,-6.1258,-6.1056,-6.2091,-6.1486,-6.066,-5.9725,-5.9385,-5.8622,-5.7557,0.0,0.0,-5.6238,-5.4244,-5.4168,-5.5086,-5.2491,-5.1962,-5.2438,-5.1698,-5.1017,-5.0337,0.0,0.0,0.0,0.0,0.0,0.0,0.0,0.0,0.0,0.0,0.0,0.0,0.0,0.0,0.0,0.0,0.0,0.0,0.0,0.0,0.0,0.0,0.0,0.0,0.0,0.0,0.0,0.0,0.0,0.0,-2.8809,-2.8398,-2.7617,0.0,0.0,0.0,0.0,-2.5263,-2.5804,-2.6396,-2.741,0.0,0.0,0.0,0.0,0.0,0.0,0.0,0.0,-2.8712,-2.9714,-3.0959,-3.0959,0.0,0.0,0.0,0.0,0.0,-3.4731,-3.5425,-3.6198,-3.7535,-3.8638,-3.9218,-3.8472,0.0,0.0,0.0,0.0,0.0,0.0,0.0,0.0,0.0,0.0,0.0,0.0,0.0,0.0,0.0,0.0,0.0,0.0,0.0,0.0,0.0,0.0,-6.5144,-6.5024,-6.4366,-6.3767,-6.3228,-6.0323,-5.9503,-6.087,-6.06,-6.1056,-6.2091,-5.8684,-5.7435,-5.8002,-5.6188,-5.515,-5.4898,0.0,-5.3275,-5.3107,-5.1738,-5.1293,-5.14,-4.9955,-4.9426,-4.9414,-4.8266,-4.7584,-4.7081,0.0,0.0,0.0,0.0,0.0,0.0,0.0,0.0,0.0,0.0,0.0,0.0,0.0,0.0,0.0,0.0,0.0,0.0,0.0,0.0,0.0,0.0,0.0,0.0,0.0,0.0,0.0,0.0,0.0,-2.8242,-2.9258,-2.8828,-2.8086,-2.7031,0.0,0.0,0.0,-2.5744,-2.6263,-2.6955,0.0,0.0,0.0,0.0,0.0,0.0,0.0,0.0,0.0,0.0,-3.0332,-3.1297,-3.1572,0.0,0.0,0.0,0.0,0.0,-3.4889,-3.5557,-3.6485,-3.8174,-3.9172,-3.9662,-3.9463,0.0,0.0,0.0,0.0,0.0,0.0,0.0,0.0,0.0,0.0,0.0,0.0,0.0,0.0,0.0,0.0,0.0,0.0,0.0,0.0,0.0,0.0,0.0,-6.3051,-6.3327,-6.2969,-6.1762,-6.0116,-5.9228,-5.9104,-5.7897,-5.7796,-5.8832,-5.6716,-5.5742,-5.5866,-5.488,-5.4027,-5.3337,0.0,-5.2121,-5.1374,-5.0064,-4.9854,-5.0133,-4.8382,-4.8055,-4.831,-4.7426,-4.6708,-4.6228,0.0,0.0,0.0,0.0,0.0,0.0,0.0,0.0,0.0,0.0,0.0,0.0,0.0,0.0,0.0,0.0,0.0,0.0,0.0,0.0,0.0,0.0,0.0,0.0,0.0,0.0,0.0,-2.6836,-2.791,-2.8769,-2.9414,-2.918,-2.8516,0.0,0.0,0.0,0.0,-2.6209,-2.6816,-2.76,0.0,0.0,0.0,0.0,0.0,0.0,0.0,0.0,0.0,0.0,0.0,0.0,0.0,0.0,0.0,-3.3119,-3.3341,-3.373,-3.4743,-3.5442,-3.6389,-3.8266,-3.9321,-4.0034,-4.0802,0.0,0.0,0.0,0.0,0.0,0.0,0.0,0.0,0.0,0.0,0.0,0.0,0.0,0.0,0.0,0.0,0.0,0.0,0.0,0.0,0.0,0.0,0.0,-6.0812,-6.1488,-6.1287,-5.9994,-5.9475,-5.8731,-5.7341,-5.4967,-5.4666,-5.6182,-5.4678,-5.3903,-5.3599,-5.3239,-5.2523,-5.1467,-5.1467,-5.0871,-4.9783,-4.8311,-4.8171,-4.8649,-4.6731,-4.6429,-4.6783,-4.6188,-4.5678,-4.5353,0.0,0.0,0.0,0.0,0.0,0.0,0.0,0.0,0.0,0.0,0.0,0.0,0.0,0.0,0.0,0.0,0.0,0.0,0.0,0.0,0.0,0.0,0.0,0.0,0.0,-2.6497,-2.7324,-2.8144,-2.8633,-2.8906,-2.8965,-2.9355,-2.8633,-2.7051,0.0,0.0,0.0,-2.6628,-2.7389,-2.8445,-2.9669,0.0,0.0,0.0,0.0,0.0,0.0,0.0,0.0,0.0,0.0,0.0,0.0,0.0,-3.3746,-3.3219,-3.3445,-3.3972,-3.455,-3.4906,-3.5582,-3.726,-3.9494,0.0,-4.2592,-4.5217,0.0,-4.7433,0.0,0.0,0.0,0.0,0.0,0.0,0.0,0.0,0.0,0.0,0.0,0.0,0.0,0.0,0.0,0.0,0.0,0.0,0.0,0.0,-5.92,-5.8717,-5.8257,-5.8131,-5.6569,-5.5683,-5.5551,-5.2843,-5.3166,-5.6182,-5.1992,-5.0558,-5.1414,-4.9893,-4.8837,-4.8255,-4.8255,-4.7926,-4.7222,-4.6188,-4.5733,-4.5699,-4.4497,-4.3739,-4.327,-4.2713,-4.2815,-4.3288,0.0,0.0,0.0,0.0,0.0,0.0,0.0,0.0,0.0,0.0,0.0,0.0,0.0,0.0,0.0,0.0,0.0,0.0,0.0,0.0,0.0,0.0,0.0,-2.5741,-2.6267,-2.6695,-2.7441,-2.8301,-2.9258,-2.9707,-2.9707,-2.9609,0.0,0.0,0.0,0.0,0.0,-2.7262,-2.8063,-2.8724,-3.0283,-3.1086,0.0,0.0,0.0,0.0,0.0,0.0,0.0,0.0,-3.1235,-3.1612,0.0,-3.3545,-3.3922,-3.4073,-3.4248,-3.4525,-3.5077,-3.5663,-3.6506,-3.8231,0.0,0.0,0.0,0.0,-5.1439,-5.2553,-5.3965,0.0,0.0,0.0,0.0,0.0,0.0,0.0,0.0,0.0,0.0,0.0,0.0,0.0,0.0,0.0,0.0,0.0,0.0,0.0,-5.7918,-5.7888,-5.7496,-5.644,-5.5683,-5.4759,-5.3407,-5.2025,-5.1554,-5.2045,-5.0054,-4.9318,-4.9691,-4.8636,-4.7933,-4.7431,-4.7431,-4.7129,-4.6577,-4.5799,-4.5271,-4.4844,-4.3714,-4.3162,-4.2911,-4.2359,-4.2509,-4.2972,0.0,0.0,0.0,0.0,0.0,0.0,0.0,0.0,0.0,0.0,0.0,0.0,0.0,0.0,0.0,0.0,0.0,0.0,0.0,0.0,0.0,0.0,0.0,-2.5801,-2.6387,-2.6797,-2.75,-2.8496,-2.9629,-3.0137,-3.0,0.0,0.0,0.0,0.0,0.0,0.0,0.0,-2.8804,-2.9301,-3.1011,-3.1978,0.0,0.0,0.0,0.0,0.0,0.0,0.0,0.0,-3.1537,0.0,0.0,0.0,0.0,0.0,-3.4851,-3.5077,-3.5454,-3.6024,-3.7071,0.0,0.0,0.0,0.0,0.0,0.0,0.0,-5.7081,0.0,0.0,0.0,0.0,0.0,0.0,0.0,0.0,0.0,0.0,0.0,0.0,0.0,0.0,0.0,0.0,0.0,0.0,0.0,0.0,-5.624,-5.5841,-5.4675,-5.4541,-5.3772,-5.2101,-5.1548,-5.072,-4.959,-4.8862,-4.841,-4.8234,-4.7857,-4.738,-4.6878,-4.7054,-4.6828,-4.6276,-4.5723,-4.5045,-4.4267,-4.3338,-4.2861,-4.266,-4.2308,-4.2283,-4.2409,0.0,0.0,0.0,0.0,0.0,0.0,0.0,0.0,0.0,0.0,0.0,0.0,0.0,0.0,0.0,0.0,0.0,0.0,0.0,0.0,0.0,0.0,0.0,-2.5469,-2.6348,-2.6797,-2.7637,-2.8926,-2.9766,-2.998,-2.9551,-2.9121,0.0,0.0,0.0,0.0,0.0,0.0,-2.9443,-3.0352,-3.1865,-3.2918,-3.3493,0.0,0.0,0.0,0.0,0.0,0.0,0.0,-3.1863,-3.1687,0.0,0.0,0.0,0.0,-3.5127,-3.5554,-3.5554,-3.5956,-3.691,0.0,0.0,0.0,0.0,0.0,0.0,0.0,0.0,0.0,-5.6232,0.0,0.0,0.0,0.0,0.0,0.0,0.0,0.0,0.0,0.0,0.0,0.0,0.0,0.0,0.0,0.0,0.0,0.0,-5.3206,-5.2929,-5.2929,-5.2929,-5.2653,-5.2101,-5.1548,-5.0695,-4.9565,-4.8435,-4.7631,-4.7129,-4.7129,-4.6828,-4.6351,-4.6878,-4.6803,-4.6276,-4.5698,-4.4819,-4.374,-4.3187,-4.2635,-4.2158,-4.2158,-4.1806,-4.1329,0.0,0.0,0.0,0.0,0.0,0.0,0.0,0.0,0.0,0.0,0.0,0.0,0.0,0.0,0.0,0.0,0.0,0.0,0.0,0.0,0.0,0.0,0.0,0.0,0.0,0.0,-2.7949,-2.8926,-2.9473,-2.9531,0.0,0.0,0.0,-2.8529,0.0,0.0,0.0,0.0,-3.0628,-3.16,-3.2424,-3.3293,-3.4115,0.0,0.0,0.0,0.0,0.0,0.0,0.0,0.0,0.0,0.0,0.0,0.0,-3.5655,-3.5981,-3.6107,-3.6107,-3.6533,0.0,0.0,0.0,0.0,0.0,0.0,0.0,0.0,0.0,0.0,0.0,0.0,0.0,0.0,0.0,0.0,0.0,0.0,0.0,0.0,0.0,0.0,0.0,0.0,0.0,0.0,0.0,0.0,0.0,-5.3206,-5.2929,-5.2929,-5.2553,-5.2076,-5.1523,-5.0569,-4.9515,-4.841,-4.7707,-4.728,-4.7129,-4.6728,-4.6476,-4.6301,-4.6075,-4.61,-4.6225,-4.5271,-4.4217,-4.3162,-4.261,-4.2308,-4.2057,-4.1279,-4.1153,-4.1279,0.0,0.0,0.0,0.0,0.0,0.0,0.0,0.0,0.0,0.0,0.0,0.0,0.0,0.0,0.0,0.0,0.0,0.0,0.0,0.0,0.0,0.0,0.0,0.0,0.0,-2.6875,-2.7656,0.0,0.0,0.0,0.0,0.0,0.0,-2.9026,0.0,-3.0015,0.0,0.0,-3.157,-3.2322,-3.3168,-3.4008,-3.4869,0.0,0.0,0.0,0.0,0.0,0.0,0.0,0.0,0.0,0.0,0.0,0.0,-3.5981,-3.6207,-3.6182,-3.6835,0.0,0.0,0.0,0.0,0.0,0.0,0.0,0.0,0.0,0.0,0.0,0.0,0.0,0.0,0.0,0.0,0.0,0.0,0.0,0.0,0.0,0.0,0.0,0.0,0.0,0.0,0.0,0.0,0.0,0.0,-5.3206,-5.2829,-5.2603,-5.2277,-5.1624,-5.0619,-4.9941,-4.8912,-4.7581,-4.7054,-4.6702,-4.6476,-4.6125,-4.61,-4.6276,-4.5723,-4.5547,-4.5573,-4.4669,-4.3915,-4.3212,-4.2459,-4.2007,-4.1731,-4.0852,-4.0601,-4.0651,0.0,0.0,0.0,0.0,0.0,0.0,0.0,0.0,0.0,0.0,0.0,0.0,0.0,0.0,0.0,0.0,0.0,0.0,0.0,0.0,0.0,0.0,0.0,0.0,0.0,0.0,0.0,0.0,0.0,0.0,0.0,0.0,-2.854,-2.9444,0.0,-3.0696,0.0,0.0,-3.23,-3.2798,-3.39,-3.4785,-3.5444,-3.5444,0.0,0.0,0.0,0.0,0.0,0.0,0.0,0.0,0.0,0.0,-3.4274,-3.583,-3.5981,-3.5981,0.0,0.0,0.0,0.0,0.0,0.0,0.0,0.0,0.0,0.0,0.0,0.0,0.0,0.0,0.0,0.0,0.0,0.0,0.0,0.0,0.0,0.0,0.0,0.0,0.0,0.0,0.0,0.0,0.0,0.0,0.0,-5.3105,-5.2603,-5.2051,-5.1925,-5.1147,-4.9615,-4.9389,-4.8535,-4.7054,-4.6451,-4.5899,-4.5422,-4.5422,-4.5648,-4.605,-4.5598,-4.5045,-4.4443,-4.3991,-4.3765,-4.3614,-4.2509,-4.1781,-4.1254,-4.0651,-4.0124,-3.9697,0.0,0.0,0.0,0.0,0.0,0.0,0.0,0.0,0.0,0.0,0.0,0.0,0.0,0.0,0.0,0.0,0.0,0.0,0.0,0.0,0.0,0.0,0.0,0.0,0.0,0.0,0.0,0.0,0.0,0.0,0.0,0.0,0.0,-3.0595,0.0,-3.1979,0.0,0.0,-3.3361,-3.4006,-3.41,-3.4484,-3.4944,-3.5137,-3.4988,0.0,0.0,0.0,0.0,0.0,0.0,0.0,-3.45,-3.455,-3.47,-3.5479,-3.5956,-3.6458,0.0,0.0,0.0,0.0,0.0,0.0,0.0,0.0,0.0,0.0,0.0,0.0,0.0,0.0,0.0,0.0,0.0,0.0,0.0,0.0,0.0,0.0,0.0,0.0,0.0,0.0,0.0,0.0,0.0,0.0,-5.2477,-5.2352,-5.2026,-5.1473,-5.0594,-4.9967,-4.959,-4.7883,-4.6828,0.0,-4.5472,-4.492,-4.4819,-4.4819,-4.4644,-4.4367,-4.4669,-4.4242,-4.3363,-4.3664,-4.3539,-4.3037,-4.1957,-4.143,-4.1229,-4.0249,-3.9798,-3.9697,0.0,0.0,0.0,0.0,0.0,0.0,0.0,0.0,0.0,0.0,0.0,0.0,0.0,0.0,0.0,0.0,0.0,0.0,0.0,0.0,0.0,0.0,0.0,0.0,0.0,0.0,0.0,0.0,0.0,0.0,0.0,0.0,0.0,-3.09,0.0,-3.2421,0.0,0.0,-3.2957,-3.3457,-3.3387,-3.3577,-3.4149,-3.4342,-3.4221,-3.3974,-3.4711,0.0,0.0,0.0,0.0,0.0,0.0,0.0,-3.4876,-3.5705,-3.6157,-3.6684,0.0,0.0,0.0,0.0,0.0,0.0,0.0,0.0,0.0,0.0,0.0,0.0,0.0,0.0,0.0,0.0,0.0,0.0,0.0,0.0,0.0,0.0,0.0,0.0,0.0,0.0,0.0,0.0,0.0,-5.2302,-5.1749,-5.1699,-5.1322,-5.0494,-4.9891,-4.9213,-4.8435,-4.7004,-4.6175,-4.5899,-4.4769,-4.4091,-4.384,-4.4392,-4.4192,-4.3438,-4.3991,-4.3614,-4.261,-4.2886,-4.2685,-4.2108,-4.1279,-4.0953,-4.0852,-3.9998,-3.9697,-3.9697,0.0,0.0,0.0,0.0,0.0,0.0,0.0,0.0,0.0,0.0,0.0,0.0,0.0,0.0,0.0,0.0,0.0,0.0,0.0,0.0,0.0,0.0,0.0,0.0,0.0,0.0,0.0,0.0,0.0,0.0,0.0,0.0,0.0,-3.0888,0.0,0.0,0.0,0.0,-3.2132,-3.2227,-3.2227,-3.2436,-3.2642,-3.3121,-3.3126,-3.3005,-3.4092,-3.4686,-3.5158,-3.5344,0.0,0.0,0.0,0.0,-3.5052,-3.5956,-3.6307,-3.6734,0.0,0.0,0.0,0.0,0.0,0.0,0.0,0.0,0.0,0.0,0.0,0.0,0.0,0.0,0.0,0.0,0.0,0.0,0.0,0.0,0.0,0.0,0.0,0.0,0.0,0.0,0.0,0.0,0.0,-5.1724,-5.1172,-5.1046,-5.0519,-4.9464,-4.9264,-4.846,-4.7004,-4.6351,-4.5748,-4.5171,-4.4141,-4.3363,-4.2861,-4.379,-4.3689,-4.2861,-4.3212,-4.2861,-4.2007,-4.2007,-4.1756,-4.1279,-4.0727,-4.0526,-4.045,-3.9898,-3.9697,-3.9697,0.0,0.0,0.0,0.0,0.0,0.0,0.0,0.0,0.0,0.0,0.0,0.0,0.0,0.0,0.0,0.0,0.0,0.0,-2.3057,0.0,0.0,-2.5781,-2.623,0.0,0.0,0.0,0.0,0.0,0.0,0.0,0.0,0.0,0.0,-3.1018,0.0,0.0,0.0,0.0,-3.1569,-3.1174,-3.1097,-3.068,-3.0122,-3.0932,-3.127,-3.1399,-3.2418,-3.3621,-3.4691,-3.5065,-3.5669,0.0,0.0,0.0,-3.5454,-3.5604,-3.6006,-3.6634,0.0,0.0,0.0,0.0,0.0,0.0,0.0,0.0,0.0,0.0,0.0,0.0,0.0,0.0,0.0,0.0,0.0,0.0,0.0,0.0,0.0,0.0,0.0,0.0,0.0,0.0,0.0,0.0,-5.1164,-5.1172,-5.0801,-5.0117,-4.949,-4.866,-4.7933,-4.7129,-4.6426,-4.5372,-4.4568,-4.4016,-4.3388,-4.2811,-4.2258,-4.2409,-4.2409,-4.2233,-4.1856,-4.158,-4.1455,-4.1455,-4.1404,-4.1279,-4.0727,-4.0526,-4.045,-3.9898,-3.9697,-3.9697,0.0,0.0,0.0,0.0,0.0,0.0,0.0,0.0,0.0,0.0,0.0,0.0,0.0,0.0,0.0,-2.208,-2.2307,-2.2618,-2.3057,-2.3711,-2.4453,-2.5332,-2.5781,-2.6133,0.0,0.0,0.0,0.0,0.0,0.0,0.0,-2.8114,-2.949,0.0,0.0,0.0,0.0,0.0,0.0,-2.992,-2.9976,-2.9606,-2.9048,-3.0013,-3.0383,-3.0652,-3.1898,-3.3078,-3.429,-3.4947,-3.5694,-3.6307,-3.6081,0.0,0.0,0.0,-3.6383,0.0,0.0,0.0,0.0,0.0,0.0,0.0,0.0,0.0,0.0,0.0,0.0,0.0,0.0,0.0,0.0,0.0,0.0,0.0,0.0,0.0,0.0,0.0,0.0,0.0,0.0,0.0,0.0,0.0,-5.0594,-5.0293,-4.9138,-4.9113,-4.8736,-4.7708,-4.7054,-4.6401,-4.5849,-4.4719,-4.374,-4.2886,-4.2635,-4.2233,-4.1681,-4.1379,-4.1404,-4.1681,-4.1455,-4.1178,-4.0877,-4.0877,-4.0701,-4.04,-4.0149,-4.0049,-4.0023,-3.9798,-3.9697,-3.9697,0.0,0.0,0.0,0.0,0.0,0.0,0.0,0.0,0.0,0.0,0.0,0.0,0.0,0.0,0.0,0.0,-2.1896,-2.2353,-2.3057,-2.3555,-2.4121,-2.4863,-2.5332,-2.5781,-2.6211,0.0,0.0,0.0,0.0,0.0,-2.8144,-2.8476,-2.999,0.0,-3.2423,0.0,0.0,0.0,0.0,0.0,-2.884,-2.8533,-2.8105,-2.9063,-2.9568,-2.9947,-3.1275,-3.2697,-3.3887,-3.4809,-3.5625,-3.6168,-3.6168,-3.6168,0.0,0.0,0.0,0.0,0.0,0.0,0.0,0.0,0.0,0.0,0.0,0.0,0.0,0.0,0.0,0.0,0.0,0.0,0.0,0.0,0.0,0.0,0.0,0.0,0.0,0.0,0.0,0.0,0.0,0.0,0.0,0.0,-4.964,-4.9238,-4.8158,-4.8209,-4.7883,-4.6584,-4.623,-4.5698,-4.4869,-4.374,-4.276,-4.1957,-4.1957,-4.1656,-4.1128,-4.0701,-4.0651,-4.0927,-4.0927,-4.0701,-4.03,-4.03,-4.0074,-3.9697,-3.9697,-3.9697,-3.9697,-3.9697,-3.9697,-3.9697,0.0,0.0,0.0,0.0,0.0,0.0,0.0,0.0,0.0,0.0,0.0,0.0,-1.9081,-1.9958,-2.0718,-2.0995,-2.1642,-2.2353,-2.3057,-2.3555,-2.3984,-2.4434,-2.4863,0.0,-2.5762,0.0,0.0,0.0,0.0,0.0,-2.7734,-2.8945,-3.0664,-3.2819,-3.2196,-3.1916,-3.1741,0.0,0.0,0.0,0.0,0.0,0.0,0.0,-2.8468,-2.9085,-3.0493,-3.1916,-3.3307,-3.4389,-3.5178,-3.562,-3.562,-3.562,-3.562,0.0,0.0,0.0,0.0,0.0,0.0,0.0,0.0,0.0,0.0,0.0,0.0,0.0,0.0,0.0,0.0,0.0,0.0,0.0,0.0,0.0,0.0,0.0,0.0,0.0,0.0,0.0,0.0,0.0,0.0,0.0,-4.8335,-4.8183,-4.8383,-4.768,-4.6584,-4.5349,-4.5435,-4.4744,-4.3137,-4.2007,-4.143,-4.1379,-4.1379,-4.1103,-4.0551,-4.0526,-4.0249,-3.9772,-3.9772,-3.9772,-3.9747,-3.9747,-3.9722,-3.9697,-3.9697,-3.9697,-3.9697,-3.9697,-3.9697,-3.9697,0.0,0.0,0.0,0.0,0.0,0.0,0.0,0.0,0.0,0.0,0.0,0.0,0.0,-1.9262,-1.9862,-2.0651,-2.1298,-2.1928,-2.2441,-2.2593,-2.3152,-2.4117,-2.4384,-2.4811,-2.5723,0.0,0.0,0.0,0.0,-2.5684,-2.7676,-2.8418,-3.0059,-3.2402,-3.2466,-3.2175,-3.1584,-3.0833,0.0,0.0,0.0,0.0,0.0,0.0,0.0,-2.985,-3.0324,-3.1673,-3.3375,-3.3993,-3.4544,-3.5008,-3.523,-3.499,-3.4605,-3.4605,-3.4605,0.0,0.0,0.0,0.0,0.0,0.0,0.0,0.0,0.0,0.0,0.0,0.0,0.0,0.0,0.0,0.0,0.0,0.0,0.0,0.0,0.0,0.0,0.0,0.0,0.0,0.0,0.0,0.0,0.0,0.0,-4.7481,-4.6622,-4.6552,-4.6005,-4.4861,-4.4527,-4.3765,-4.2459,-4.1706,-4.1153,-4.0802,-4.0802,-4.0526,-3.9998,-3.9998,-3.9873,-3.9697,-3.9697,-3.9697,-3.9697,-3.9697,-3.9697,-3.9697,-3.9697,-3.9697,-3.9697,-3.9697,-3.9697,-3.9697,0.0,0.0,0.0,0.0,0.0,0.0,0.0,0.0,0.0,0.0,0.0,0.0,0.0,0.0,-1.9496,-2.0652,-2.1119,-2.15,-2.2023,-2.1983,-2.2531,-2.3932,-2.4063,-2.4562,-2.5723,0.0,0.0,0.0,0.0,0.0,0.0,-2.7754,-2.916,-3.1094,-3.168,-3.1699,0.0,0.0,0.0,-2.832,0.0,0.0,-2.834,0.0,0.0,0.0,-3.0818,-3.2038,-3.3748,-3.3877,-3.4233,-3.4647,-3.469,-3.4179,-3.3499,-3.3499,-3.3499,0.0,0.0,0.0,0.0,0.0,0.0,0.0,0.0,0.0,0.0,0.0,0.0,0.0,0.0,0.0,0.0,0.0,0.0,0.0,0.0,0.0,0.0,0.0,0.0,0.0,0.0,0.0,0.0,0.0,0.0,0.0,-4.5246,-4.5547,-4.5221,-4.4116,-4.3187,-4.2333,-4.1605,-4.1053,-4.0601,-4.0249,-4.0249,-4.0049,-3.9697,-3.9697,-3.9697,-3.9697,-3.9697,-3.9697,-3.9697,-3.9697,-3.9697,-3.9697,-3.9697,-3.9697,-3.9697,-3.9697,-3.9697,-3.9697,0.0,0.0,0.0,0.0,0.0,0.0,0.0,0.0,0.0,-1.6767,0.0,0.0,0.0,0.0,0.0,-2.0765,-2.1002,-2.134,-2.1767,-2.1753,-2.2261,-2.3634,-2.397,-2.4562,-2.5723,0.0,0.0,0.0,0.0,0.0,0.0,0.0,-2.8047,0.0,-2.9746,-3.0371,-3.0762,0.0,-2.9473,-2.834,0.0,-2.8711,-2.8476,0.0,0.0,0.0,-3.2014,-3.3142,-3.4379,-3.4427,-3.4511,-3.4422,-3.3866,-3.3123,-3.2319,-3.2319,-3.2319,0.0,0.0,0.0,0.0,0.0,0.0,0.0,0.0,0.0,0.0,0.0,0.0,0.0,0.0,0.0,0.0,0.0,0.0,0.0,0.0,0.0,0.0,0.0,0.0,0.0,0.0,0.0,0.0,0.0,-4.5246,-4.4618,-4.4568,-4.4543,-4.4041,-4.2961,-4.1354,-4.0526,-4.0526,-3.9973,-3.9697,-3.9697,-3.9697,-3.9697,-3.9697,-3.9697,-3.9697,-3.9697,-3.9697,-3.9697,-3.9697,-3.9697,-3.9697,-3.9697,-3.9697,-3.9697,-3.9697,-3.9697,-3.9697,-3.9697,0.0,0.0,0.0,0.0,0.0,0.0,0.0,0.0,0.0,0.0,0.0,0.0,-1.8628,-1.9141,-1.945,-1.9491,-1.975,-1.9973,-2.0218,-2.0348,-2.1264,-2.3093,-2.3411,-2.4278,-2.5723,0.0,0.0,0.0,0.0,0.0,0.0,0.0,0.0,0.0,-2.7988,-2.8262,-2.8184,-2.959,0.0,0.0,-2.9219,-2.9492,0.0,0.0,0.0,0.0,0.0,-3.4017,-3.5285,-3.519,-3.4867,-3.4244,-3.2564,-3.1571,-3.1021,-3.0809,-3.0703,-3.0827,-3.1451,0.0,0.0,0.0,0.0,0.0,0.0,0.0,0.0,0.0,0.0,0.0,0.0,0.0,0.0,0.0,0.0,0.0,0.0,0.0,0.0,0.0,0.0,0.0,0.0,0.0,0.0,0.0,-4.5045,-4.4267,-4.3489,-4.2685,-4.2108,-4.1806,-4.0953,-4.0526,-4.0526,-3.9973,-3.9697,-3.9697,-3.9697,-3.9697,-3.9697,-3.9697,-3.9697,-3.9697,-3.9697,-3.9697,-3.9697,-3.9697,-3.9697,-3.9697,-3.9697,-3.9697,-3.9697,-3.9697,-3.9697,-3.9697,0.0,0.0,0.0,0.0,0.0,0.0,0.0,0.0,-1.7769,0.0,0.0,0.0,0.0,-1.9301,-1.9584,-1.9313,-1.9435,-1.9552,-1.9715,-1.9971,-2.0925,-2.2462,-2.3206,-2.4089,-2.5449,0.0,0.0,0.0,0.0,0.0,0.0,0.0,0.0,0.0,0.0,0.0,0.0,0.0,0.0,0.0,-2.9453,0.0,0.0,-3.1777,-3.3066,0.0,0.0,0.0,-3.6749,-3.6062,-3.5214,-3.4085,-3.233,-3.1309,-3.0656,-3.013,-2.9966,-3.0052,-3.0453,-3.1188,0.0,0.0,0.0,0.0,-3.6887,-3.6881,0.0,0.0,0.0,0.0,0.0,0.0,0.0,0.0,0.0,0.0,0.0,0.0,0.0,0.0,0.0,0.0,0.0,0.0,0.0,-4.4819,-4.4041,-4.3212,-4.2333,-4.148,-4.1003,-4.1003,-4.0249,-3.9948,-4.0174,-3.9622,-3.9346,-3.9346,-3.9346,-3.9346,-3.9346,-3.9346,-3.9471,-3.9697,-3.9697,-3.9697,-3.9697,-3.9697,-3.9697,-3.9697,-3.9697,-3.9697,-3.9697,-3.9697,-3.9697,-3.9697,0.0,0.0,0.0,0.0,0.0,0.0,0.0,0.0,-1.8637,0.0,0.0,0.0,0.0,-1.9528,-1.9722,-1.9679,-1.9633,-1.9716,-1.9861,-2.0168,-2.0891,-2.2005,-2.3094,-2.4162,-2.5059,-2.5508,0.0,0.0,0.0,0.0,0.0,0.0,0.0,0.0,0.0,0.0,0.0,0.0,0.0,-2.7754,-2.9492,-3.0566,0.0,0.0,-3.4746,-3.5664,-3.6074,-3.7151,-3.83,-3.7055,-3.5759,-3.4318,-3.2955,-3.1872,-3.091,-3.0088,-2.9808,-2.9876,-3.0073,-3.0506,-3.1175,-3.2475,-3.2848,0.0,-3.4419,-3.393,-3.3788,0.0,0.0,0.0,0.0,0.0,0.0,0.0,0.0,0.0,0.0,0.0,0.0,0.0,0.0,0.0,0.0,-4.5095,-4.4217,-4.3664,-4.2585,-4.1756,-4.1279,-4.0727,-4.04,-4.0325,-3.9371,-3.9069,-3.9496,-3.9019,-3.8768,-3.8768,-3.8843,-3.8843,-3.8768,-3.8894,-3.9195,-3.9597,-3.944,-3.9569,-3.9697,-3.9465,-3.9569,-3.9697,-3.9697,-3.9697,-3.9697,-3.9697,-3.9697,-3.9697,-1.9346,0.0,0.0,0.0,0.0,0.0,0.0,0.0,0.0,0.0,0.0,0.0,0.0,0.0,-2.002,-1.9773,-1.975,-1.9769,-2.001,-2.013,-2.0808,-2.2438,-2.3074,-2.3975,-2.5059,-2.5508,-2.5684,0.0,0.0,0.0,0.0,0.0,0.0,0.0,0.0,0.0,0.0,0.0,0.0,-2.7324,-2.9375,0.0,-3.2578,-3.4023,-3.5547,-3.6973,-3.7402,-3.8144,-3.8955,-3.8014,-3.6563,-3.4916,0.0,0.0,-3.0876,-3.0344,-2.9931,0.0,-3.0008,-3.0326,-3.091,-3.1666,-3.1622,0.0,-3.2208,-3.1902,-3.1762,0.0,0.0,0.0,0.0,0.0,0.0,0.0,0.0,0.0,0.0,0.0,0.0,0.0,0.0,0.0,0.0,-4.394,-4.3062,-4.2509,-4.1455,-4.0802,-4.0676,-4.0149,-3.9647,-3.922,-3.8994,-3.8693,-3.8341,-3.8241,-3.8191,-3.8191,-3.8642,-3.8617,-3.8216,-3.912,-3.9346,-3.9044,-3.8282,-3.8582,-3.9594,-3.8453,-3.8582,-3.9697,-3.9697,-3.9697,-3.9697,-3.9697,-3.9697,-3.9697,-1.9126,0.0,0.0,0.0,0.0,0.0,0.0,0.0,0.0,0.0,0.0,0.0,0.0,0.0,-2.0488,-2.0289,-2.0515,-2.0669,-2.0674,-2.1159,-2.1896,-2.2753,-2.3598,-2.4373,-2.5059,-2.5508,-2.5742,0.0,0.0,0.0,0.0,0.0,0.0,0.0,0.0,0.0,0.0,0.0,-2.6875,-2.7812,-2.9766,0.0,-3.2676,-3.4394,-3.5976,-3.7383,-3.8027,-3.8652,-3.9004,-3.7734,-3.6738,0.0,-3.373,-3.2676,-3.2031,0.0,-3.0723,-3.0273,0.0,0.0,0.0,-3.1552,-3.1284,0.0,0.0,-3.0348,-2.9821,0.0,0.0,0.0,0.0,0.0,0.0,0.0,0.0,0.0,0.0,0.0,0.0,0.0,0.0,0.0,0.0,-4.2886,-4.2233,-4.1404,-4.0827,-4.0275,-3.9722,-3.9421,-3.8689,-3.7486,-3.7216,-3.7069,-3.6944,-3.6799,-3.6974,-3.7588,-3.7889,-3.7889,-3.7638,-3.8467,-3.8438,-3.78,-3.758,-3.7477,-3.7477,-3.7477,-3.7902,-3.8687,-3.9362,-3.9697,-3.9697,-3.9697,-3.9697,-3.9697,-1.881,0.0,0.0,0.0,0.0,0.0,0.0,0.0,0.0,0.0,0.0,0.0,0.0,0.0,0.0,-2.1143,-2.1511,-2.1765,-2.2024,-2.2688,-2.3216,-2.3278,-2.4298,-2.4927,-2.4941,-2.5469,-2.5742,-2.5742,0.0,0.0,0.0,0.0,0.0,0.0,0.0,0.0,0.0,0.0,0.0,-2.8437,0.0,-3.1426,-3.2617,-3.4531,-3.6113,-3.7422,-3.8359,-3.8867,-3.8867,-3.75,-3.6875,-3.6289,-3.4101,-3.3418,0.0,0.0,0.0,0.0,0.0,0.0,0.0,0.0,0.0,-3.0551,0.0,0.0,0.0,0.0,0.0,0.0,0.0,0.0,0.0,0.0,0.0,0.0,0.0,0.0,0.0,0.0,0.0,0.0,0.0,-4.0804,-4.0418,-3.9445,-3.9371,-3.8976,-3.8111,-3.8061,-3.7156,-3.5561,-3.5034,-3.4964,-3.527,-3.507,-3.5598,-3.6624,-3.7139,-3.7287,-3.7211,-3.7543,-3.7286,-3.6549,-3.645,-3.6079,-3.554,-3.64,-3.7215,-3.7887,-3.9208,-3.9697,-3.9697,-3.9697,-3.9697,-3.9697,-1.8413,-1.8577,0.0,0.0,0.0,0.0,0.0,0.0,0.0,0.0,0.0,0.0,0.0,0.0,0.0,0.0,0.0,0.0,-2.4427,-2.4239,-2.4049,-2.4183,-2.4929,-2.5082,-2.4512,-2.5312,-2.5742,-2.5742,0.0,0.0,0.0,0.0,0.0,0.0,-2.457,0.0,0.0,0.0,-2.7129,0.0,-2.9746,-3.1484,0.0,-3.4394,-3.582,-3.7461,-3.8691,-3.8926,-3.8613,0.0,-3.7598,-3.6562,0.0,-3.4629,-3.3398,-3.3301,0.0,0.0,0.0,0.0,0.0,0.0,-3.0859,0.0,0.0,0.0,-2.8073,-2.8261,0.0,0.0,0.0,0.0,0.0,0.0,0.0,0.0,0.0,0.0,0.0,0.0,0.0,0.0,0.0,0.0,-3.5561,-3.5445,-3.5445,-3.5398,-3.5282,-3.482,-3.4279,-3.3492,-3.3424,-3.322,-3.2712,-3.3889,-3.4579,-3.4774,-3.6924,-3.7663,-3.7211,-3.6986,-3.6589,-3.5979,-3.352,-3.3754,-3.5868,-3.4703,-3.6048,-3.8791,-3.9496,-3.9697,-3.9697,-3.9697,-3.9697,-3.9697,-1.7874,-1.8131,0.0,0.0,0.0,0.0,0.0,0.0,0.0,0.0,0.0,0.0,0.0,0.0,0.0,0.0,0.0,-2.506,0.0,0.0,-2.6597,-2.6015,-2.6454,-2.6345,-2.5586,-2.5918,-2.5996,-2.5742,-2.5742,0.0,0.0,0.0,0.0,0.0,-2.541,0.0,-2.582,0.0,0.0,0.0,0.0,0.0,0.0,-3.3535,-3.5039,-3.6699,-3.7715,-3.7988,-3.7676,0.0,-3.6309,0.0,0.0,0.0,0.0,-3.3809,0.0,0.0,0.0,0.0,0.0,0.0,0.0,0.0,-2.9726,0.0,-2.8486,0.0,0.0,0.0,0.0,0.0,0.0,0.0,-2.9327,0.0,0.0,0.0,0.0,0.0,0.0,0.0,0.0,0.0,0.0,0.0,-3.3731,-3.3435,-3.3138,-3.3085,-3.2508,-3.1251,-3.1387,-3.143,-3.1133,-3.2555,-3.3575,-3.4385,-3.6232,-3.6935,-3.6734,-3.6157,-3.5239,-3.4131,-3.2533,-3.2427,-3.3493,-3.4017,-3.5643,-3.7721,-3.9137,-3.9697,-3.9697,-3.9697,-3.9697,-3.9697,-1.7248,-1.7595,0.0,0.0,0.0,0.0,0.0,0.0,0.0,0.0,0.0,0.0,-2.2458,-2.3011,0.0,0.0,-2.6299,-2.7149,0.0,0.0,-2.8857,-2.7574,-2.7843,-2.7513,-2.6657,-2.6536,-2.6222,-2.5797,-2.5797,0.0,0.0,0.0,0.0,0.0,0.0,-2.6523,-2.6523,0.0,0.0,-2.8926,-3.0195,-3.1035,-3.168,-3.3203,-3.4629,-3.5937,-3.668,-3.6875,-3.6582,-3.5312,-3.5234,0.0,-3.418,0.0,0.0,0.0,0.0,0.0,-3.3203,0.0,0.0,0.0,0.0,0.0,0.0,0.0,0.0,0.0,0.0,0.0,0.0,0.0,0.0,-2.8799,0.0,-2.8337,0.0,0.0,0.0,0.0,0.0,0.0,0.0,0.0,0.0,-3.1753,-3.1526,-3.1196,-3.0844,-3.1061,-3.0563,-2.9167,-2.958,-2.9702,-2.9702,-3.1154,-3.2577,-3.3871,-3.5575,-3.6468,-3.6584,-3.5254,-3.4116,-3.2989,-3.1444,-3.1207,-3.1849,-3.3365,-3.5155,-3.7146,-3.8637,-3.9191,-3.9129,-3.9129,-3.9362,-3.9697,-1.6673,-1.6981,0.0,0.0,0.0,0.0,0.0,0.0,0.0,0.0,0.0,0.0,0.0,0.0,0.0,0.0,0.0,-2.8907,-2.8798,0.0,-3.0508,0.0,-2.8365,-2.8083,-2.7237,-2.6883,-2.6446,-2.605,-2.605,0.0,0.0,0.0,0.0,0.0,0.0,-2.7441,-2.8223,-2.8262,-2.9004,-3.0137,-3.0195,-3.0742,-3.1758,0.0,-3.498,-3.5469,-3.5898,0.0,0.0,-3.5391,-3.5098,0.0,0.0,0.0,0.0,0.0,0.0,0.0,0.0,0.0,0.0,-3.2363,0.0,0.0,0.0,0.0,-2.9043,0.0,0.0,0.0,0.0,-2.9199,-2.8906,-2.8906,-2.8223,0.0,0.0,0.0,0.0,0.0,0.0,0.0,0.0,0.0,0.0,-2.8006,-2.7965,-2.7945,-2.7925,-2.7855,-2.7885,-2.7761,-2.8172,-2.8388,-2.8388,-3.014,-3.1468,-3.2454,-3.5123,-3.6702,-3.7064,-3.442,-3.3196,-3.2967,-2.9843,-2.9848,-3.2275,-3.2398,-3.4604,-3.7941,-3.8065,-3.7857,-3.7583,-3.7583,-3.8477,-3.9465,-1.6687,0.0,0.0,0.0,0.0,0.0,0.0,-2.0641,0.0,0.0,0.0,0.0,0.0,-2.5545,-2.6172,0.0,0.0,-2.9093,-2.8611,-3.0977,0.0,0.0,-2.9483,-2.9268,-2.7107,-2.6721,-2.637,-2.6025,-2.5645,0.0,0.0,0.0,0.0,0.0,0.0,-2.7754,0.0,0.0,0.0,0.0,0.0,-3.1172,-3.2051,0.0,0.0,-3.3769,-3.4473,-3.4453,0.0,-3.4414,-3.4219,-3.3848,-3.3848,-3.375,-3.3613,-3.3457,-3.3418,0.0,0.0,0.0,-3.3359,-3.3066,0.0,0.0,0.0,0.0,0.0,0.0,0.0,0.0,0.0,-2.9394,-2.8926,-2.8926,-2.8203,-2.7559,0.0,0.0,0.0,0.0,0.0,0.0,0.0,0.0,0.0,-2.6507,-2.6172,-2.6014,-2.6014,-2.6526,-2.6953,-2.7226,-2.793,-2.8301,-2.8301,-2.9764,-3.066,-3.103,-3.3731,-3.4718,-3.3907,-3.3005,-3.209,-3.1163,-2.9172,-2.9807,-3.2376,-3.3128,-3.527,-3.809,-3.8843,-3.8472,-3.7477,-3.7477,-3.7263,-3.6727,-1.7168,0.0,0.0,0.0,0.0,0.0,0.0,0.0,0.0,0.0,-2.3728,0.0,-2.6226,0.0,-2.7468,0.0,-2.9542,-2.9981,-2.8447,-3.1104,0.0,-2.8293,-2.9389,-2.924,-2.7227,-2.676,-2.6133,-2.5474,0.0,-2.5353,0.0,0.0,0.0,0.0,0.0,0.0,0.0,0.0,-2.9434,0.0,0.0,-3.0976,0.0,0.0,-3.2168,-3.2637,0.0,-3.3223,-3.3027,-3.3301,-3.3203,-3.3008,-3.3144,-3.3203,-3.3203,-3.3203,-3.3301,-3.3457,-3.3574,-3.3516,0.0,-3.3242,-3.2578,0.0,-3.125,0.0,-3.0293,0.0,0.0,0.0,0.0,0.0,-2.9141,-2.9141,-2.8184,-2.7226,0.0,-2.6465,0.0,0.0,0.0,0.0,0.0,0.0,-2.6269,-2.5547,-2.5078,-2.4902,0.0,0.0,-2.6582,-2.7012,-2.7851,-2.8301,-2.8301,-2.9217,-2.9807,-3.0328,-3.2297,-3.2901,-3.223,-3.1825,-3.1133,-3.0224,-2.89,-2.9807,-3.2297,-3.296,-3.4843,-3.7267,-3.7612,-3.7098,-3.6031,-3.6487,-3.5836,-3.4626,0.0,0.0,0.0,0.0,-1.8624,0.0,0.0,0.0,-2.2645,0.0,-2.4422,-2.5504,-2.64,-2.7014,-2.7709,-2.8577,-3.0695,-3.112,-2.8526,-3.0903,0.0,0.0,-2.8451,-2.8106,-2.762,-2.6692,-2.5801,-2.4811,0.0,0.0,0.0,0.0,0.0,0.0,-2.7833,0.0,-2.8926,-2.8926,-2.918,-2.9609,-3.0,-3.0176,-3.0176,-3.0176,-3.0937,-3.2051,-3.209,-3.209,-3.207,-3.2129,-3.2148,-3.2207,-3.2598,-3.2754,-3.2773,-3.2793,-3.3086,-3.332,-3.2949,-3.3125,-3.332,-3.2949,0.0,0.0,0.0,0.0,-3.1426,0.0,0.0,0.0,0.0,0.0,0.0,-2.9551,-2.8144,-2.6758,-2.5918,0.0,-2.6602,0.0,0.0,0.0,0.0,-2.625,-2.5547,-2.5078,-2.4648,0.0,0.0,0.0,-2.6582,-2.7012,-2.7851,-2.8301,-2.8301,-2.8301,-2.89,-3.0224,-3.0766,-3.1365,-3.2028,-3.0927,-3.0328,-3.012,-2.89,-2.9807,-3.2196,-3.1949,-3.3331,-3.5647,-3.4797,-3.3878,-3.3304,-3.4626,-3.4181,-3.3191,-1.837,-1.8718,-1.9065,0.0,-1.9305,-1.9586,0.0,0.0,0.0,0.0,-2.5518,-2.68,-2.7909,-2.8364,-2.8764,-2.9219,-2.9431,0.0,0.0,0.0,0.0,-2.7776,-2.8867,-2.8903,-2.7276,-2.6052,-2.5441,-2.5559,0.0,0.0,-2.4842,0.0,0.0,0.0,0.0,0.0,-2.8616,-2.8816,-2.918,-2.959,-2.9687,-2.9726,0.0,0.0,-2.9941,-3.0332,-3.0976,-3.0996,-3.0801,-3.1465,-3.168,-3.1699,-3.1816,-3.207,-3.2383,-3.2695,-3.2871,-3.3066,-3.3594,-3.3594,-3.3476,-3.3691,-3.3262,-3.2734,0.0,0.0,0.0,0.0,0.0,0.0,0.0,0.0,0.0,-2.9141,-2.8203,-2.7305,-2.6758,0.0,0.0,-2.748,0.0,-2.7012,-2.7012,-2.625,-2.541,-2.4648,-2.4473,0.0,0.0,0.0,0.0,-2.7012,-2.7851,-2.8301,-2.8301,-2.8301,-2.8495,-2.8794,-3.0266,-3.0454,-2.9303,-3.0329,-3.012,-2.8794,-2.8495,-2.9303,-3.0888,-3.1551,-3.279,-3.432,-3.4881,-3.4294,-3.2964,-3.2322,-3.1767,-3.1556,-1.9038,0.0,0.0,-2.0134,0.0,0.0,-2.1296,0.0,0.0,-2.4649,-2.5999,0.0,-2.7575,-2.847,-2.9058,-2.9098,-2.8911,0.0,-2.847,0.0,0.0,-2.7445,-2.8216,-2.796,-2.6613,-2.5242,-2.4516,-2.4538,0.0,0.0,-2.385,0.0,0.0,0.0,0.0,-2.7188,0.0,-2.7841,-2.8288,-2.8894,-2.8894,0.0,0.0,-2.9277,-2.918,-2.9121,-3.0,-3.0254,-3.0312,-3.1016,-3.125,-3.1269,-3.1465,-3.168,-3.1973,-3.2402,-3.2519,-3.2617,-3.3105,-3.3066,-3.293,-3.3184,-3.3008,-3.2695,-3.2324,-3.2207,-3.1992,0.0,0.0,-3.1035,0.0,0.0,0.0,-2.8496,-2.7969,-2.7519,-2.707,0.0,0.0,0.0,-2.7441,-2.7226,-2.7031,-2.6055,-2.5234,-2.4746,-2.4531,0.0,0.0,0.0,0.0,-2.7012,-2.8027,-2.8476,-2.8301,-2.8476,-2.8476,-2.8281,-2.9278,-2.9278,-2.8301,-2.9384,-2.9278,-2.8301,-2.8301,-2.9212,-3.058,-3.0921,-3.186,-3.329,-3.3364,-3.2871,-3.2092,-3.1228,-3.0898,-3.0898,0.0,0.0,0.0,0.0,0.0,0.0,0.0,-2.3474,0.0,-2.5117,0.0,-2.6894,-2.6653,-2.7989,-2.8845,-2.8631,0.0,-2.8604,-2.7869,-2.827,-2.8177,-2.7362,-2.7041,-2.66,-2.6026,-2.4566,-2.3666,0.0,0.0,0.0,0.0,0.0,0.0,0.0,0.0,0.0,0.0,-2.6529,-2.7036,0.0,-2.7844,-2.8203,-2.8769,-2.8809,-2.8613,-2.8398,-2.9199,-2.9746,-3.0195,-3.0723,-3.0898,-3.0957,-3.1328,-3.1445,-3.1523,-3.1953,-3.209,-3.209,-3.2148,-3.2168,-3.2168,-3.2168,-3.2441,-3.2519,-3.1777,-3.1894,-3.1934,-3.1133,-3.0976,-3.082,0.0,0.0,0.0,0.0,0.0,0.0,0.0,0.0,0.0,0.0,0.0,0.0,-2.7051,-2.5879,-2.5137,-2.5078,0.0,0.0,0.0,0.0,0.0,-2.7012,-2.8144,-2.8613,-2.8301,0.0,-2.8652,-2.8301,-2.8301,-2.8301,-2.8301,-2.8359,-2.8379,-2.8379,-2.8379,-2.9347,-3.0719,-3.0229,-3.0934,-3.2413,-3.1321,-3.0898,-3.0898,-3.0898,-3.0898,-3.0898,0.0,0.0,0.0,0.0,0.0,-2.3821,-2.489,-2.5304,-2.5651,-2.6106,-2.7188,-2.7896,-2.7843,-2.811,-2.8377,-2.8591,-2.8417,0.0,0.0,0.0,0.0,-2.7642,-2.7348,-2.6921,-2.6319,-2.4743,-2.3776,0.0,0.0,0.0,0.0,0.0,0.0,0.0,0.0,0.0,-2.5331,-2.5748,0.0,-2.6522,-2.7408,-2.7812,-2.793,-2.8262,-2.8359,-2.8359,-2.8848,-2.9316,-2.9805,-3.0625,-3.0898,-3.0898,-3.0976,-3.0996,-3.1094,-3.1504,-3.1621,-3.1719,-3.207,-3.2168,-3.2168,-3.2168,-3.2226,-3.2246,-3.209,-3.2109,-3.2031,-3.1523,-3.1406,-3.1152,-3.0351,0.0,0.0,0.0,0.0,0.0,0.0,0.0,0.0,0.0,0.0,-2.75,-2.7051,-2.6172,0.0,0.0,0.0,0.0,0.0,0.0,0.0,0.0,-2.7578,0.0,0.0,0.0,-2.8359,-2.8301,-2.8301,-2.8301,-2.8301,-2.88,-2.9085,-2.8976,-2.8828,-2.9153,-2.9897,-2.9774,-3.0285,-3.1245,-3.0976,-3.0898,-3.0898,-3.0898,-3.0898,-3.0898,0.0,0.0,0.0,0.0,0.0,0.0,0.0,-2.6707,0.0,-2.6453,-2.6881,-2.7228,-2.7228,-2.7776,-2.8203,-2.835,-2.823,-2.8203,-2.835,-2.8083,-2.7843,-2.7709,-2.7134,-2.6613,-2.6172,-2.4275,-2.322,-2.3073,0.0,-2.1024,-2.1046,0.0,0.0,0.0,0.0,-2.2756,0.0,0.0,0.0,-2.5256,-2.6864,-2.7688,-2.8008,-2.8223,-2.8301,-2.834,-2.8769,-2.9062,-2.9336,-2.998,-3.0351,-3.0527,-3.0527,-3.0703,-3.0937,-3.1133,-3.1191,-3.125,-3.1445,-3.1504,-3.1504,-3.1504,-3.1504,-3.1504,-3.1504,-3.1504,-3.1445,-3.123,-3.1191,-3.0996,-3.0312,-2.9492,0.0,0.0,0.0,0.0,0.0,0.0,-2.8203,0.0,-2.7793,-2.7402,0.0,0.0,0.0,0.0,0.0,0.0,0.0,0.0,0.0,0.0,0.0,0.0,0.0,0.0,0.0,-2.8301,-2.8301,-2.8301,-2.8301,-2.8643,-2.8878,-2.9203,-2.8945,-2.8868,-2.9012,-2.985,-3.0508,-3.0898,-3.0898,-3.0898,-3.0898,-3.0898,-3.0898,-3.0898,0.0,-2.2298,0.0,0.0,-2.501,0.0,-2.68,-2.7615,-2.7816,-2.6881,-2.676,-2.6734,-2.6667,-2.7495,-2.803,-2.7963,-2.7963,-2.7963,-2.7963,-2.7682,-2.7482,-2.7428,-2.6694,-2.6106,-2.5692,-2.3888,-2.2686,0.0,0.0,0.0,-1.9835,-1.965,0.0,0.0,0.0,0.0,0.0,0.0,-2.4136,-2.4253,-2.6162,-2.741,-2.8164,-2.7921,-2.8067,-2.834,-2.8672,-2.8789,-2.8828,-2.918,-2.9648,-3.0078,-3.0176,-3.0449,-3.0762,-3.0859,-3.0898,-3.0859,-3.0762,-3.082,-3.0859,-3.0762,-3.082,-3.0898,-3.0898,-3.0898,-3.0898,-3.0898,-3.0898,-3.0742,-3.0293,-2.9648,0.0,0.0,0.0,0.0,0.0,0.0,-2.834,0.0,0.0,-2.7422,-2.6484,0.0,0.0,0.0,0.0,0.0,0.0,0.0,0.0,0.0,0.0,-2.8105,-2.8301,0.0,-2.8613,-2.8301,-2.8301,-2.8301,-2.8301,-2.8379,-2.878,-2.9341,-2.9082,-2.8891,-2.8747,-3.0238,-3.0898,-3.0898,-3.0898,-3.0898,-3.0898,-3.0898,-3.0898,-3.0898,0.0,0.0,0.0,0.0,0.0,0.0,0.0,-2.7749,-2.8096,-2.7989,-2.7976,-2.7869,-2.7602,-2.7669,-2.7629,-2.7375,-2.7348,-2.7348,-2.7348,-2.7068,-2.6787,-2.652,-2.6186,-2.5611,-2.4783,-2.3794,-2.2605,0.0,0.0,-1.9672,-1.8658,-1.8912,0.0,0.0,0.0,0.0,0.0,-2.2063,-2.3271,-2.4105,-2.5164,-2.6461,-2.7649,-2.6695,-2.7168,-2.8301,-2.834,-2.8359,-2.8359,-2.8398,-2.8945,-2.9687,-3.0078,-3.0234,-3.0351,-3.0762,-3.0898,-3.0801,-3.0371,-3.0566,-3.0781,-3.0371,-3.0586,-3.0898,-3.0898,-3.0898,-3.0898,-3.0898,-3.0898,-3.0742,-3.0293,-3.0137,-2.9824,0.0,0.0,0.0,0.0,0.0,-2.9004,-2.7812,0.0,0.0,-2.6504,-2.6387,0.0,0.0,0.0,0.0,0.0,0.0,0.0,-2.6992,0.0,-2.75,-2.8281,-2.834,-2.834,-2.8301,-2.8301,-2.8301,-2.8301,-2.8691,-2.9101,-2.9512,-2.9512,-2.9614,-2.9928,-3.0568,-3.0898,-3.0898,-3.0898,-3.0898,-3.0898,-3.0898,-3.0898,-3.0898,0.0,0.0,0.0,0.0,0.0,0.0,0.0,-2.7468,-2.7615,-2.7615,-2.7762,-2.7762,-2.7468,-2.7442,-2.7321,-2.7028,-2.7001,-2.6921,-2.6747,-2.6466,-2.6172,-2.5879,-2.5411,-2.4917,-2.4382,-2.3327,-2.2325,0.0,0.0,-1.9685,-1.8728,-1.8442,0.0,0.0,0.0,-1.8622,-1.8779,-2.1121,-2.206,-2.2156,-2.3813,-2.536,-2.671,-2.6209,-2.7041,-2.8174,-2.7276,-2.7511,-2.8174,-2.7276,-2.8,-2.9199,-2.9375,-2.9609,-2.9863,-3.0039,-3.0273,-3.0371,-2.9941,-3.0137,-3.0371,-2.9922,-2.9961,-3.0156,-3.041,-3.0469,-3.0547,-3.084,-3.0898,-3.084,-3.0644,-3.0391,-3.0078,0.0,0.0,0.0,0.0,0.0,0.0,-2.7402,0.0,-2.7129,-2.6094,0.0,0.0,0.0,0.0,0.0,0.0,0.0,0.0,-2.6992,0.0,-2.7422,-2.8281,-2.8301,-2.8301,-2.8301,-2.8301,-2.8301,-2.8301,-2.873,-2.9297,-2.9961,-3.0234,-3.0449,-3.0605,-3.0801,-3.0898,-3.0898,-3.0898,-3.0898,-3.0898,-3.0898,-3.0898,-3.0898,-2.4222,0.0,-2.5024,0.0,-2.6199,-2.6533,-2.6947,-2.7001,-2.6974,-2.6894,-2.7054,-2.7134,-2.7028,-2.6934,-2.676,-2.6466,-2.644,-2.6319,-2.6026,-2.5732,-2.5438,-2.5144,-2.4649,0.0,-2.3821,-2.2899,-2.2044,-2.1296,-2.0575,-1.9744,-1.8809,0.0,0.0,0.0,-1.7929,-1.8025,-1.8058,-2.0278,-2.1012,-2.0903,-2.2466,-2.3978,-2.5212,-2.4758,-2.5793,-2.7256,-2.6261,-2.6873,-2.8019,-2.7023,-2.7592,-2.875,-2.8887,-2.9141,-2.9394,-2.9531,-2.9785,-2.9922,-2.9492,-2.9785,-3.0059,-2.9512,-2.9668,-3.0,-3.0156,-3.0195,-3.0293,-3.0625,-3.0801,-3.0898,-3.0898,-3.0508,-3.0156,-3.0039,0.0,0.0,0.0,-2.8594,0.0,-2.7129,-2.7012,-2.668,-2.582,-2.5742,0.0,0.0,0.0,0.0,0.0,0.0,0.0,0.0,0.0,0.0,0.0,-2.8301,-2.8301,-2.8301,-2.8418,-2.8476,-2.8496,-2.9043,-2.9629,-3.0215,-3.0684,-3.0898,-3.0898,-3.0898,-3.0898,-3.0898,-3.0898,-3.0898,-3.0898,-3.0898,-3.0898,-3.0898,-2.4396,-2.4863,-2.5264,-2.5852,-2.6199,-2.6386,-2.64,-2.64,-2.6293,-2.6012,-2.5972,-2.6092,-2.6373,-2.6146,-2.5852,-2.5558,-2.5531,-2.5411,-2.5117,-2.4823,-2.4516,0.0,0.0,-2.35,-2.2886,-2.2579,-2.1844,-2.0681,0.0,0.0,-1.8477,0.0,-1.7582,-1.7569,-1.7275,-1.7315,-1.7701,-1.9579,-2.0602,-2.1107,-2.1451,-2.2386,-2.3293,-2.1757,-2.2738,-2.5136,-2.543,-2.6548,-2.7734,-2.8144,-2.8301,-2.8379,-2.8789,-2.8926,-2.9004,-2.9453,-2.957,-2.9492,-2.9043,-2.9551,-3.0,-2.9141,-2.9902,-3.0762,-3.0293,-3.0195,-3.0195,-3.0195,-3.0566,-3.0898,-3.0898,-3.0508,-3.0059,-2.9648,0.0,0.0,0.0,-2.8652,0.0,-2.7168,-2.7012,-2.668,-2.582,-2.5742,0.0,0.0,0.0,0.0,0.0,0.0,0.0,-2.6992,-2.7012,0.0,-2.8281,-2.8301,-2.8301,-2.8301,-2.8711,-2.8906,-2.8945,-2.9785,-3.0176,-3.0062,-3.0684,-3.0898,-3.0898,-3.0898,-3.0898,-3.0898,-3.0898,-3.0898,-3.0898,-3.0898,-3.0898,-3.0898,-2.4529,-2.4877,-2.5197,-2.5585,-2.5732,-2.5785,-2.5785,-2.5785,-2.5758,-2.5665,-2.5478,-2.5317,-2.5211,-2.5464,-2.5451,0.0,-2.4917,-2.4703,0.0,-2.4102,-2.3821,-2.3313,-2.3193,-2.2873,-2.2271,-2.1977,-2.155,-2.0975,0.0,0.0,0.0,-1.8277,-1.8009,-1.8196,-1.8103,-1.8223,-1.8517,-1.936,-1.9821,-1.9873,-1.9763,-2.0783,-2.205,-2.1148,-2.2132,-2.3849,-2.3713,-2.4792,-2.6231,-2.6254,-2.7157,-2.832,-2.8457,-2.8496,-2.8516,-2.8652,-2.8906,-2.9043,-2.8613,-2.9121,-2.9629,-2.9062,-2.9238,-2.959,-2.9726,-3.0,-3.0195,-3.0195,-3.0566,-3.0703,-3.0098,-3.0098,-3.0059,-2.9648,-2.9316,0.0,-2.8379,0.0,-2.7695,-2.6699,-2.6582,-2.6367,-2.5801,-2.5742,0.0,0.0,0.0,0.0,0.0,0.0,0.0,0.0,-2.7012,0.0,-2.8281,-2.8301,-2.8301,-2.8301,-2.8711,-2.9219,-2.9805,-3.0078,-3.0371,-3.0664,-3.082,-3.0898,-3.0898,-3.0898,-3.0898,-3.0898,-3.0898,-3.0898,-3.0898,-3.0898,-3.0898,-3.0898,-2.4249,-2.4462,-2.4676,-2.497,-2.5024,-2.5064,-2.517,-2.5184,-2.5184,-2.5184,-2.5024,-2.4796,-2.4502,-2.4796,0.0,-2.4356,-2.4315,-2.4102,-2.3634,-2.3607,-2.3327,-2.2726,-2.2699,-2.2418,-2.183,-2.1643,0.0,-2.1109,-2.0601,-2.0067,-1.9506,-1.8624,-1.837,-1.8651,-1.8544,-1.8597,-1.8784,-1.9078,-1.9199,-1.9199,-1.9118,-1.9676,-2.0571,-2.0068,-2.0843,-2.2304,-2.2081,-2.3087,-2.4826,-2.5398,-2.6063,-2.6844,-2.796,-2.796,-2.7618,-2.8174,-2.8476,-2.8633,-2.8359,-2.8789,-2.9219,-2.8789,-2.8926,-2.9238,-2.9512,-2.9902,-3.0156,-3.0,-3.0195,-3.0234,-2.9668,-2.9648,-2.9629,-2.9375,-2.8965,-2.8535,-2.8125,0.0,-2.7168,0.0,0.0,0.0,0.0,-2.5742,-2.5742,0.0,0.0,0.0,0.0,0.0,0.0,-2.6992,-2.7168,0.0,-2.8281,-2.8301,-2.8379,-2.8535,-2.9121,-2.9766,-3.0449,-3.0449,-3.0605,-3.0898,-3.0898,-3.0898,-3.0898,-3.0898,-3.0898,-3.0898,-3.0898,-3.0898,-3.0898,-3.0898,-3.0898,-3.0898,-2.3688,-2.3754,0.0,0.0,-2.4168,0.0,-2.4529,-2.4569,-2.4569,-2.4569,-2.4569,-2.4462,-2.4168,-2.4142,-2.4022,-2.3728,0.0,0.0,0.0,-2.326,-2.2993,-2.2392,-2.2352,-2.2098,-2.1537,-2.1523,-2.1376,-2.1082,-2.0241,-1.9813,-1.9786,-1.8945,-1.8691,-1.8945,-1.8677,-1.8557,-1.8571,-1.8838,-1.8958,-1.8971,-1.9239,-1.9185,-1.8918,-1.8611,-1.925,-2.0426,-2.0614,-2.1791,-2.3452,-2.5322,-2.5133,-2.4599,-2.7276,-2.7276,-2.6499,-2.7941,-2.8301,-2.8301,-2.8301,-2.8633,-2.8867,-2.8437,-2.8965,-2.957,-2.9609,-2.9922,-3.0078,-2.9687,-2.9648,-2.9629,-2.9551,-2.9219,-2.8945,-2.8887,-2.8516,-2.8105,-2.7676,-2.7246,-2.6836,0.0,0.0,0.0,0.0,-2.5762,-2.5742,0.0,0.0,0.0,0.0,0.0,-2.6641,-2.7012,-2.7461,-2.7891,-2.8281,-2.8359,-2.8594,-2.9023,-2.9805,-3.0449,-3.0898,-3.0898,-3.0898,-3.0898,-3.0898,-3.0898,-3.0898,-3.0898,-3.0898,-3.0898,-3.0898,-3.0898,-3.0898,-3.0898,-3.0898,-3.0898,0.0,0.0,-2.3794,-2.3861,-2.3875,-2.3901,-2.3968,-2.3981,-2.3981,-2.3981,-2.3981,-2.3861,-2.3567,-2.3541,-2.3407,-2.31,-2.33,-2.3207,-2.2672,-2.2632,-2.2378,-2.1777,-2.1764,-2.159,-2.1229,-2.1216,-2.1069,-2.0775,-2.0347,-2.0013,-1.9786,-1.9359,-1.9199,-1.9265,-1.9199,-1.9158,-1.9158,-1.9239,-1.9265,-1.9252,-1.9092,-1.9118,-1.9199,-1.8691,-1.8847,-1.9444,-2.0267,-2.1791,-2.3419,-2.372,-2.536,-2.7168,-2.6717,-2.7168,-2.7853,-2.8174,-2.8301,-2.8301,-2.8301,-2.8848,-2.9316,-2.8867,-2.918,-2.9648,-2.998,-3.0117,-3.0176,-3.0078,-3.0332,-3.0273,-2.9258,-2.9258,-2.9199,-2.8555,-2.8086,-2.7656,-2.7226,-2.6816,-2.6504,0.0,-2.5996,-2.5859,-2.6191,-2.5937,-2.5879,0.0,0.0,0.0,0.0,-2.6953,-2.7246,-2.7031,-2.7754,-2.8184,-2.8301,-2.8945,-2.9473,-2.9902,-3.0098,-3.0449,-3.0898,-3.0898,-3.0898,-3.0898,-3.0898,-3.0898,-3.0898,-3.0898,-3.0898,-3.0898,-3.0898,-3.0898,-3.0898,-3.0898,-3.0898,-3.0898,-2.3113,-2.3247,-2.3394,-2.3541,-2.3567,-2.3621,-2.3754,-2.3768,-2.3768,-2.3768,-2.3768,-2.3661,-2.3367,-2.3327,-2.314,-2.2699,-2.2806,-2.2766,-2.2445,-2.2298,-2.2017,-2.1577,-2.155,-2.1416,-2.1122,-2.1109,-2.0962,-2.0681,-2.0374,-2.008,-1.9786,-1.9506,-1.9372,-1.9372,-1.9372,-1.9372,-1.9372,-1.9372,-1.9372,-1.9359,-1.9185,-1.9225,-1.9319,-1.8865,-1.8878,-1.9193,-1.9654,-2.0937,-2.2656,-2.3321,-2.4665,-2.6391,-2.6933,-2.7168,-2.7403,-2.8067,-2.8301,-2.8301,-2.8301,-2.8769,-2.9258,-2.9219,-2.9531,-2.9922,-3.0137,-3.0195,-3.0195,-3.0195,-3.0078,-2.9766,-2.9043,-2.8965,-2.8769,-2.8105,-2.7812,-2.7441,-2.6816,-2.6523,0.0,-2.6387,-2.6191,-2.6211,-2.6641,-2.6465,-2.6426,-2.666,-2.6855,0.0,-2.668,-2.748,-2.7656,-2.7031,-2.7851,-2.8301,-2.8301,-2.9141,-2.9785,-3.0195,-3.041,-3.0644,-3.0898,-3.0898,-3.0898,-3.0898,-3.0898,-3.0898,-3.0898,-3.0898,-3.0898,-3.0898,-3.0898,-3.0898,-3.0898,-3.0898,-3.0898,-3.0898,-2.2792,-2.2832,-2.2939,-2.3207,-2.326,-2.334,-2.3594,-2.3634,-2.3634,-2.3634,-2.3634,-2.3541,-2.3287,-2.326,-2.3033,-2.2472,-2.2378,-2.2338,-2.2298,-2.2058,-2.179,-2.1496,-2.1483,-2.1363,-2.1109,-2.1069,-2.0895,-2.0615,-2.0307,-2.0013,-1.9733,-1.9479,-1.9372,-1.9372,-1.9372,-1.9372,-1.9372,-1.9372,-1.9372,-1.9372,-1.9372,-1.9372,-1.9345,-1.9092,-1.9145,-1.9332,-1.9078,-2.0146,-2.1813,-2.3039,-2.3822,-2.4599,-2.7168,-2.7276,-2.6608,-2.7618,-2.8174,-2.8301,-2.8301,-2.8594,-2.9062,-2.9629,-2.998,-3.0215,-3.0293,-3.0293,-3.0293,-3.0293,-2.9726,-2.918,-2.9043,-2.8672,-2.8242,-2.7832,-2.7598,-2.7246,-2.6582,0.0,-2.6406,-2.6465,-2.6484,-2.6641,-2.707,-2.7051,-2.7051,-2.7109,-2.7461,-2.75,-2.7129,-2.7871,-2.793,-2.7129,-2.7949,-2.8437,-2.8574,-2.9238,-2.9824,-3.0312,-3.0703,-3.0898,-3.0898,-3.0898,-3.0898,-3.0898,-3.0898,-3.0898,-3.0898,-3.0898,-3.0898,-3.0898,-3.0898,-3.0898,-3.0898,-3.0898,-3.0898,-3.0898,-2.2485,-2.2686,-2.2873,-2.2926,-2.2939,-2.2953,-2.2993,-2.3006,-2.3006,-2.3006,-2.3006,-2.2979,-2.2939,-2.2939,-2.2792,-2.2445,-2.2191,-2.1951,-2.171,-2.1643,-2.1483,-2.1189,-2.1176,-2.1162,-2.1109,-2.0869,-2.0601,-2.0307,-2.0013,-1.972,-1.9439,-1.9386,-1.9372,-1.9372,-1.9372,-1.9372,-1.9372,-1.9372,-1.9372,-1.9372,-1.9372,-1.9372,-1.9359,-1.9319,-1.9332,-1.9359,-1.9319,-2.0329,-2.1586,-2.1813,-2.3599,-2.5827,-2.6264,-2.7168,-2.7726,-2.6717,-2.7276,-2.8301,-2.8301,-2.8594,-2.9199,-3.0391,-3.0449,-3.0293,-3.0703,-3.0781,-3.0781,-3.0781,-3.0684,-3.0351,-2.9609,-2.9121,-2.8691,-2.8262,-2.7285,-2.666,-2.6894,0.0,-2.6523,-2.6875,-2.6914,-2.709,-2.7519,-2.7226,-2.7168,-2.7539,-2.7637,-2.7637,-2.7578,-2.8027,-2.8066,-2.7578,-2.8379,-2.918,-2.9902,-2.9687,-2.998,-3.0781,-3.0859,-3.0898,-3.0898,-3.0898,-3.0898,-3.0898,-3.0898,-3.0898,-3.0898,-3.0898,-3.0898,-3.0898,-3.0898,-3.0898,-3.0898,-3.0898,-3.0898,-3.0898,-2.2178,-2.2298,-2.2432,-2.2592,-2.2498,-2.2445,-2.2605,-2.2498,-2.2445,-2.2605,-2.2485,-2.2445,-2.2605,-2.2485,-2.2271,-2.1977,-2.183,-2.163,-2.1336,-2.1309,-2.1256,-2.1122,-2.1109,-2.1042,-2.0882,-2.0748,-2.0454,-2.0,-1.9867,-1.9653,-1.9372,-1.9372,-1.9372,-1.9372,-1.9372,-1.9372,-1.9372,-1.9372,-1.9372,-1.9372,-1.9372,-1.9372,-1.9372,-1.9372,-1.9372,-1.9372,-1.9372,-2.0816,-2.2814,-2.2814,-2.482,-2.7276,-2.7276,-2.7726,-2.8174,-2.7492,-2.7337,-2.7672,-2.8687,-2.9277,-2.9805,-3.0684,-3.0723,-3.0625,-3.084,-3.0898,-3.0898,-3.0898,-3.0703,-3.0312,-2.9687,-2.9219,-2.8789,-2.8359,-2.7402,0.0,0.0,-2.6797,-2.6621,-2.7285,-2.7363,-2.7617,-2.8281,-2.8164,-2.8223,-2.8652,-2.8691,-2.8594,-2.8359,-2.8516,-2.8437,-2.8027,-2.8594,-2.9219,-2.9863,-2.9883,-3.0234,-3.0898,-3.0898,-3.0898,-3.0898,-3.0898,-3.0898,-3.0898,-3.0898,-3.0898,-3.0898,-3.0898,-3.0898,-3.0898,-3.0898,-3.0898,-3.0898,-3.0898,-3.0898,-3.0898,-2.1884,-2.1937,-2.2058,-2.2271,-2.2138,-2.2058,-2.2285,-2.2124,-2.2071,-2.2285,-2.2124,-2.2071,-2.2298,-2.2124,-2.1871,-2.1577,-2.155,-2.143,-2.1122,-2.1109,-2.1109,-2.1109,-2.1042,-2.0909,-2.0681,-2.0548,-2.0254,-1.98,-1.9733,-1.9586,-1.9372,-1.9372,-1.9372,-1.9372,-1.9372,-1.9372,-1.9372,-1.9372,-1.9372,-1.9372,-1.9372,-1.9372,-1.9372,-1.9372,-1.9372,-1.9488,-1.9822,-2.1373,-2.3375,-2.4156,-2.5827,-2.7853,-2.8174,-2.8301,-2.8174,-2.7853,-2.7306,-2.7212,-2.9138,-2.9883,-3.0312,-3.0781,-3.0898,-3.0898,-3.0898,-3.0898,-3.0898,-3.0898,-3.0605,-3.0234,-2.9785,-2.9355,-2.8926,-2.8516,0.0,0.0,0.0,-2.7246,-2.7109,-2.7871,-2.8047,-2.8359,-2.9004,-2.9062,-2.9199,-2.9551,-2.957,-2.9414,-2.9082,-2.9062,-2.8926,-2.8594,-2.8809,-2.918,-2.9707,-3.0039,-3.043,-3.0898,-3.0898,-3.0898,-3.0898,-3.0898,-3.0898,-3.0898,-3.0898,-3.0898,-3.0898,-3.0898,-3.0898,-3.0898,-3.0898,-3.0898,-3.0898,-3.0898,-3.0898,-3.0898,-2.159,-2.1804,-2.1991,-2.2017,-2.2004,-2.1991,-2.2017,-2.2004,-2.1991,-2.2017,-2.2004,-2.1991,-2.2017,-2.2004,-2.1871,-2.1577,-2.155,-2.143,-2.1122,-2.1109,-2.1109,-2.1109,-2.0855,-2.0695,-2.0681,-2.0147,-1.984,-1.98,-1.9533,-1.9386,-1.9372,-1.9372,-1.9372,-1.9372,-1.9372,-1.9372,-1.9372,-1.9372,-1.9372,-1.9372,-1.9372,-1.9372,-1.9372,-1.9372,-1.9372,-1.9591,-2.0916,-2.1586,-2.2138,-2.5041,-2.6045,-2.6499,-2.7853,-2.8301,-2.8067,-2.6717,-2.6698,-2.7559,-2.9215,-2.9883,-3.0312,-3.0781,-3.0898,-3.0898,-3.0898,-3.0898,-3.0898,-3.0898,-3.0859,-3.0703,-3.0234,-2.9805,-2.9375,-2.8945,0.0,0.0,-2.8184,-2.8203,-2.832,-2.8769,-2.918,-2.9453,-2.9512,-2.9531,-2.9531,-2.957,-2.957,-2.9551,-2.9531,-2.9531,-2.9512,-2.9473,-2.9121,-2.9316,-3.0137,-3.0176,-3.043,-3.0898,-3.0898,-3.0898,-3.0898,-3.0898,-3.0898,-3.0898,-3.0898,-3.0898,-3.0898,-3.0898,-3.0898,-3.0898,-3.0898,-3.0898,-3.0898,-3.0898,-3.0898,-3.0898,-2.1283,-2.1363,-2.1496,-2.1683,-2.1563,-2.151,-2.1683,-2.1563,-2.151,-2.1697,-2.155,-2.151,-2.1697,-2.155,-2.1403,-2.1283,-2.1283,-2.1229,-2.1122,-2.1109,-2.1109,-2.1109,-2.0828,-2.0588,-2.0401,-2.0,-1.972,-1.9533,-1.9426,-1.9372,-1.9372,-1.9372,-1.9372,-1.9372,-1.9372,-1.9372,-1.9372,-1.9372,-1.9372,-1.9372,-1.9372,-1.9372,-1.9372,-1.9372,-1.9372,-1.9591,-2.1031,-2.2138,-2.3263,-2.5371,-2.6717,-2.7511,-2.8067,-2.8476,-2.8563,-2.8,-2.848,-2.9184,-2.9517,-3.0078,-3.0664,-3.084,-3.0898,-3.0898,-3.0898,-3.0898,-3.0898,-3.0898,-3.0898,-3.0742,-3.0293,-3.0059,-2.9902,-2.9746,0.0,-2.8691,-2.9375,-2.9023,-2.8848,-2.9277,-2.9473,-2.9668,-2.9941,-2.9961,-3.0078,-3.0371,-3.0391,-3.0273,-2.998,-2.9707,-2.9687,-2.9941,-2.9805,-2.9863,-3.0195,-3.0488,-3.0723,-3.0898,-3.0898,-3.0898,-3.0898,-3.0898,-3.0898,-3.0898,-3.0898,-3.0898,-3.0898,-3.0898,-3.0898,-3.0898,-3.0898,-3.0898,-3.0898,-3.0898,-3.0898,-3.0898,-2.1109,-2.1109,-2.1176,-2.1376,-2.1243,-2.1176,-2.139,-2.1243,-2.1189,-2.139,-2.1229,-2.1189,-2.139,-2.1229,-2.1109,-2.1109,-2.1109,-2.1109,-2.1109,-2.1109,-2.1109,-2.1109,-2.0828,-2.0535,-2.0241,-1.9947,-1.9653,-1.9372,-1.9372,-1.9372,-1.9372,-1.9372,-1.9372,-1.9372,-1.9372,-1.9372,-1.9372,-1.9372,-1.9372,-1.9372,-1.9372,-1.9372,-1.9372,-1.9372,-1.9707,-2.0256,-2.1813,-2.3263,-2.471,-2.6264,-2.7492,-2.8301,-2.8301,-2.8574,-2.8945,-2.9082,-2.9629,-3.0156,-3.0019,-3.043,-3.0898,-3.0898,-3.0898,-3.0898,-3.0898,-3.0898,-3.0898,-3.0898,-3.0898,-3.0801,-3.0469,-3.041,-3.0371,-3.0215,-2.9707,-2.9531,-3.0117,-2.9687,-2.9492,-2.9922,-2.998,-3.0098,-3.0391,-3.041,-3.0547,-3.0859,-3.0898,-3.0762,-3.043,-3.0137,-3.0117,-3.041,-3.041,-3.041,-3.041,-3.0723,-3.0898,-3.0898,-3.0898,-3.0898,-3.0898,-3.0898,-3.0898,-3.0898,-3.0898,-3.0898,-3.0898,-3.0898,-3.0898,-3.0898,-3.0898,-3.0898,-3.0898,-3.0898,-3.0898,-3.0898,-2.1109,-2.1109,-2.1109,-2.1109,-2.1109,-2.1109,-2.1109,-2.1109,-2.1109,-2.1109,-2.1109,-2.1109,-2.1109,-2.1109,-2.1109,-2.1109,-2.1109,-2.1109,-2.1109,-2.1109,-2.1109,-2.1109,-2.0828,-2.0535,-2.0241,-1.9947,-1.9653,-1.9372,-1.9372,-1.9372,-1.9372,-1.9372,-1.9372,-1.9372,-1.9372,-1.9372,-1.9372,-1.9372,-1.9372,-1.9372,-1.9372,-1.9372,-1.9372,-1.9372,-2.0371,-2.1813,-2.3263,-2.482,-2.6372,-2.7833,-2.8301,-2.8301,-2.8301,-2.8594,-2.9004,-2.9453,-2.9863,-3.0293,-3.0762,-3.0898,-3.0898,-3.0898,-3.0898,-3.0898,-3.0898,-3.0898,-3.0898,-3.0898,-3.0898,-3.0898,-3.0898,-3.0898,-3.0742,-3.0273,-3.0195,-3.0195,-3.0195,-3.0195,-3.0371,-3.084,-3.0898,-3.0898,-3.0898,-3.0898,-3.0898,-3.0898,-3.0898,-3.0898,-3.0898,-3.0898,-3.0898,-3.0898,-3.0898,-3.0898,-3.0898,-3.0898,-3.0898,-3.0898,-3.0898,-3.0898,-3.0898,-3.0898,-3.0898,-3.0898,-3.0898,-3.0898,-3.0898,-3.0898,-3.0898,-3.0898,-3.0898,-3.0898,-3.0898,-3.0898,-3.0898,-3.0898,-2.1109,-2.1109,-2.1109,-2.1109,-2.1109,-2.1109,-2.1109,-2.1109,-2.1109,-2.1109,-2.1109,-2.1109,-2.1109,-2.1109,-2.1109,-2.1109,-2.1109,-2.1109,-2.1109,-2.1109,-2.1109,-2.1109,-2.0828,-2.0535,-2.0241,-1.9947,-1.9653,-1.9372,-1.9372,-1.9372,-1.9372,-1.9372,-1.9372,-1.9372,-1.9372,-1.9372,-1.9372,-1.9372,-1.9372,-1.9372,-1.9372,-2.004,-2.0916,-2.0916,-2.1813,-2.3375,-2.482,-2.5717,-2.6372,-2.7833,-2.8496,-2.8828,-2.9434,-2.9512,-2.9453,-2.9883,-3.0332,-3.0644,-3.0449,-3.0644,-3.0898,-3.0898,-3.0898,-3.0898,-3.0898,-3.0898,-3.0898,-3.0898,-3.0898,-3.0898,-3.0898,-3.0898,-3.084,-3.0703,-3.0684,-3.0684,-3.0684,-3.0684,-3.0742,-3.0879,-3.0898,-3.0898,-3.0898,-3.0898,-3.0898,-3.0898,-3.0898,-3.0898,-3.0898,-3.0898,-3.0898,-3.0898,-3.0898,-3.0898,-3.0898,-3.0898,-3.0898,-3.0898,-3.0898,-3.0898,-3.0898,-3.0898,-3.0898,-3.0898,-3.0898,-3.0898,-3.0898,-3.0898,-3.0898,-3.0898,-3.0898,-3.0898,-3.0898,-3.0898,-3.0898,-3.0898,-2.1109,-2.1109,-2.1109,-2.1109,-2.1109,-2.1109,-2.1109,-2.1109,-2.1109,-2.1109,-2.1109,-2.1109,-2.1109,-2.1109,-2.1109,-2.1109,-2.1002,-2.0935,-2.0935,-2.0935,-2.0989,-2.1109,-2.0828,-2.0535,-2.0241,-2.0054,-1.9773,-1.9372,-1.9372,-1.9372,-1.9372,-1.9372,-1.9372,-1.9372,-1.9372,-1.9372,-1.9372,-1.9372,-1.9372,-1.9372,-1.9372,-1.9924,-2.0816,-2.1358,-2.2476,-2.4044,-2.559,-2.6481,-2.7079,-2.8134,-2.8828,-2.9238,-2.959,-2.9746,-2.9863,-3.0117,-3.0527,-3.082,-3.0547,-3.0684,-3.0898,-3.0898,-3.0898,-3.0898,-3.0898,-3.0898,-3.0898,-3.0898,-3.0898,-3.0898,-3.0898,-3.0898,-3.0898,-3.0898,-3.0898,-3.0898,-3.0898,-3.0898,-3.0898,-3.0898,-3.0898,-3.0898,-3.0898,-3.0898,-3.0898,-3.0898,-3.0898,-3.0898,-3.0898,-3.0898,-3.0898,-3.0898,-3.0898,-3.0898,-3.0898,-3.0898,-3.0898,-3.0898,-3.0898,-3.0898,-3.0898,-3.0898,-3.0898,-3.0898,-3.0898,-3.0898,-3.0898,-3.0898,-3.0898,-3.0898,-3.0898,-3.0898,-3.0898,-3.0898,-3.0898,-3.0898,-2.1109,-2.1109,-2.1109,-2.1109,-2.1109,-2.1109,-2.1109,-2.1109,-2.1109,-2.1109,-2.1109,-2.1109,-2.1109,-2.1109,-2.1109,-2.1109,-2.0869,-2.0722,-2.0722,-2.0695,-2.0802,-2.1096,-2.0802,-2.0508,-2.0241,-2.0214,-1.992,-1.9372,-1.9372,-1.9488,-1.9591,-1.9475,-1.9475,-1.9591,-1.9475,-1.9372,-1.9372,-1.9372,-1.9372,-1.9372,-1.9372,-1.9475,-1.9822,-2.1259,-2.2702,-2.4156,-2.5717,-2.706,-2.8145,-2.8591,-2.8978,-2.9342,-2.918,-2.9609,-3.0195,-3.0254,-3.0566,-3.0898,-3.0898,-3.0898,-3.0898,-3.0898,-3.0898,-3.0898,-3.0898,-3.0898,-3.0898,-3.0898,-3.0898,-3.0898,-3.0898,-3.0898,-3.0898,-3.0898,-3.0898,-3.0898,-3.0898,-3.0898,-3.0898,-3.0898,-3.0898,-3.0898,-3.0898,-3.0898,-3.0898,-3.0898,-3.0898,-3.0898,-3.0898,-3.0898,-3.0898,-3.0898,-3.0898,-3.0898,-3.0898,-3.0898,-3.0898,-3.0898,-3.0898,-3.0898,-3.0898,-3.0898,-3.0898,-3.0898,-3.0898,-3.0898,-3.0898,-3.0898,-3.0898,-3.0898,-3.0898,-3.0898,-3.0898,-3.0898,-3.0898,-3.0898,-2.1109,-2.1109,-2.1109,-2.1109,-2.1109,-2.1109,-2.1109,-2.1109,-2.1109,-2.1109,-2.1109,-2.1109,-2.1109,-2.1109,-2.1109,-2.1109,-2.1056,-2.1015,-2.1015,-2.0802,-2.0802,-2.1096,-2.0615,-2.0294,-2.0227,-2.0013,-1.972,-1.9372,-1.9372,-2.004,-2.1145,-1.9924,-2.004,-2.1031,-1.9924,-1.9372,-1.9372,-1.9372,-1.9372,-1.9372,-1.9372,-2.0141,-2.1259,-2.2702,-2.4267,-2.5827,-2.7276,-2.7276,-2.6719,-2.7437,-2.7547,-2.7735,-2.9814,-3.0332,-3.0273,-3.0625,-3.082,-3.0898,-3.0898,-3.0898,-3.0898,-3.0898,-3.0898,-3.0898,-3.0898,-3.0898,-3.0898,-3.0898,-3.0898,-3.0898,-3.0898,-3.0898,-3.0898,-3.0898,-3.0898,-3.0898,-3.0898,-3.0898,-3.0898,-3.0898,-3.0898,-3.0898,-3.0898,-3.0898,-3.0898,-3.0898,-3.0898,-3.0898,-3.0898,-3.0898,-3.0898,-3.0898,-3.0898,-3.0898,-3.0898,-3.0898,-3.0898,-3.0898,-3.0898,-3.0898,-3.0898,-3.0898,-3.0898,-3.0898,-3.0898,-3.0898,-3.0898,-3.0898,-3.0898,-3.0898,-3.0898,-3.0898,-3.0898,-3.0898,-3.0898,-3.0898,-2.1109,-2.1109,-2.1109,-2.1109,-2.1109,-2.1109,-2.1109,-2.1109,-2.1109,-2.1109,-2.1109,-2.1109,-2.1109,-2.1109,-2.1056,-2.0909,-2.0909,-2.0909,-2.0909,-2.0628,-2.0601,-2.0895,-2.0347,-2.0027,-2.0027,-1.9746,-1.9519,-1.9372,-1.9372,-1.9809,-2.0472,-1.9822,-1.9809,-2.0472,-1.9707,-1.9372,-1.9372,-1.9372,-1.9372,-1.9372,-1.9372,-2.0256,-2.1813,-2.3263,-2.471,-2.6264,-2.7726,-2.8103,-2.7788,-2.8033,-2.8371,-2.8899,-3.018,-3.0547,-3.0586,-3.082,-3.0898,-3.0898,-3.0898,-3.0898,-3.0898,-3.0898,-3.0898,-3.0898,-3.0898,-3.0898,-3.0898,-3.0898,-3.0898,-3.0898,-3.0898,-3.0898,-3.0898,-3.0898,-3.0898,-3.0898,-3.0898,-3.0898,-3.0898,-3.0898,-3.0898,-3.0898,-3.0898,-3.0898,-3.0898,-3.0898,-3.0898,-3.0898,-3.0898,-3.0898,-3.0898,-3.0898,-3.0138,-3.0138,-3.0898,-3.0138,-3.0138,-3.0898,-3.0898,-3.0898,-3.0898,-3.0898,-3.0898,-3.0898,-3.0898,-3.0898,-3.0898,-3.0898,-3.0898,-3.0898,-3.0898,-3.0898,-3.0898,-3.0898,-3.0898,-3.0898,-2.1096,-2.1109,-2.1109,-2.1109,-2.1109,-2.1109,-2.1109,-2.1109,-2.1109,-2.1109,-2.1109,-2.1109,-2.1109,-2.1109,-2.1015,-2.0775,-2.0708,-2.0681,-2.0681,-2.0401,-2.0361,-2.0668,-2.012,-1.9932,-2.0223,-1.965,-1.9372,-1.9372,-1.9372,-1.9475,-1.9809,-1.9475,-1.9475,-1.9822,-1.9475,-1.9372,-1.9372,-1.9372,-1.9372,-1.9372,-1.9372,-2.0256,-2.1813,-2.3263,-2.471,-2.6282,-2.7803,-2.8797,-2.9176,-2.8887,-2.9505,-3.0354,-3.0295,-3.0586,-3.0898,-3.0898,-3.0898,-3.0898,-3.0898,-3.0645,-3.0509,-3.0509,-3.0509,-3.0509,-3.0509,-3.0645,-3.0898,-3.0898,-3.0898,-3.0898,-3.0898,-3.0898,-3.0898,-3.0898,-3.0898,-3.0898,-3.0898,-3.0898,-3.0898,-3.0898,-3.0898,-3.0898,-3.0898,-3.0898,-3.0898,-3.0898,-3.0645,-3.0509,-3.0509,-3.0157,-3.0157,-3.0509,-2.9157,-2.9157,-3.0898,-2.953,-2.953,-3.0898,-3.0898,-3.0898,-3.0898,-3.0898,-3.0898,-3.0898,-3.0898,-3.0898,-3.0898,-3.0898,-3.0898,-3.0898,-3.0898,-3.0898,-3.0898,-3.0898,-3.0898,-3.0898,-2.1056,-2.1109,-2.1109,-2.1109,-2.1109,-2.1109,-2.1109,-2.1109,-2.1109,-2.1109,-2.1109,-2.1109,-2.1109,-2.1109,-2.1096,-2.1056,-2.0815,-2.0681,-2.0681,-2.0401,-2.0361,-2.0668,-2.012,-2.0502,-2.2052,-2.033,-1.9372,-1.9372,-1.9372,-2.004,-2.1244,-2.004,-2.004,-2.1259,-1.9924,-1.9372,-1.9372,-1.9372,-1.9372,-1.9372,-1.9372,-2.0256,-2.1813,-2.3263,-2.471,-2.6318,-2.8128,-2.8347,-2.7633,-2.804,-2.826,-2.8695,-3.0335,-3.084,-3.0898,-3.0898,-3.0898,-3.0898,-3.0898,-2.9903,-2.8783,-2.8783,-2.8783,-2.8783,-2.8783,-2.9903,-3.0898,-3.0898,-3.0898,-3.0898,-3.0898,-3.0898,-3.0898,-3.0898,-3.0898,-3.0898,-3.0898,-3.0898,-3.0898,-3.0898,-3.0898,-3.0898,-3.0898,-3.0898,-3.0898,-3.0898,-2.953,-2.8783,-2.8783,-2.7452,-2.7314,-2.8664,-2.8545,-2.9157,-3.0898,-3.0645,-3.0645,-3.0898,-3.0898,-3.0898,-3.0898,-3.0898,-3.0898,-3.0898,-3.0898,-3.0898,-3.0898,-3.0898,-3.0898,-3.0898,-3.0898,-3.0898,-3.0898,-3.0898,-3.0898,-3.0898,-2.0842,-2.1002,-2.1109,-2.1109,-2.1109,-2.1109,-2.1109,-2.1109,-2.1109,-2.1109,-2.1109,-2.1109,-2.1109,-2.0962,-2.0869,-2.0869,-2.0601,-2.0561,-2.0895,-2.0494,-2.0361,-2.0668,-2.012,-2.021,-2.0928,-1.9924,-1.9372,-1.9372,-1.9372,-1.9693,-2.0371,-1.9707,-1.9707,-2.0371,-1.9707,-1.9372,-1.9372,-1.9372,-1.9372,-1.9372,-1.9372,-2.0256,-2.1813,-2.3263,-2.4847,-2.6664,-2.855,-2.8521,-2.7712,-2.8838,-2.8811,-2.8564,-3.0334,-3.0898,-3.0898,-3.0898,-3.0898,-3.0645,-2.9766,-2.892,-2.817,-2.7314,-2.7073,-2.7314,-2.817,-2.8307,-2.8498,-2.9591,-2.9748,-2.9748,-2.9748,-2.9748,-2.9673,-2.9568,-3.0274,-3.0528,-2.9648,-3.0274,-3.0898,-3.0898,-3.0898,-3.0898,-3.0898,-3.002,-2.9903,-3.0879,-2.9394,-2.8783,-2.9785,-2.9157,-2.9039,-2.9785,-2.892,-2.9157,-3.0898,-3.002,-3.002,-3.0898,-3.0898,-3.0898,-3.0898,-3.0898,-3.0898,-3.0898,-3.0898,-3.0898,-3.0898,-3.0898,-3.0898,-3.0898,-3.0898,-3.0898,-3.0898,-3.0898,-3.0898,-3.0898]},{"header":{"parameterUnit":"m.s-1","parameterCategory":1,"la1":30.6,"la2":28.766,"lo1":-90.7593,"lo2":-88.6598,"dy":0.0162,"dx":0.0183,"nx":116,"ny":114,"refTime":"2023-06-25T00:00:00:Z","depth":0,"parameterNumber":3,"parameterNumberName":"V-component_of_WINDS"},"data":[0.0,0.0,0.0,0.0,0.0,0.0,0.0,0.0,0.0,0.0,0.0,0.0,0.0,0.0,0.0,0.0,0.0,0.0,0.0,0.0,0.0,0.0,0.0,0.0,0.0,0.0,0.0,0.0,0.0,0.0,0.0,0.0,0.0,0.0,0.0,0.0,0.0,0.0,0.0,0.0,0.0,0.0,0.0,0.0,0.0,0.0,0.0,0.0,0.0,0.0,0.0,0.0,0.0,0.0,0.0,0.0,0.0,0.0,0.0,0.0,0.0,0.0,0.0,0.0,0.0,0.0,0.0,0.0,0.0,0.0,0.0,0.0,0.0,0.0,0.0,0.0,0.0,0.0,0.0,0.0,0.0,0.0,0.0,0.0,0.0,0.0,0.0,0.0,0.0,0.0,0.0,0.0,0.0,0.0,0.0,0.0,0.0,0.0,0.0,0.0,0.0,0.0,0.0,0.0,0.0,0.0,0.0,0.0,0.0,0.0,0.0,0.0,0.0,0.0,0.0,0.0,0.0,0.0,0.0,0.0,0.0,0.0,0.0,0.0,0.0,0.0,0.0,0.0,0.0,0.0,0.0,0.0,0.0,0.0,0.0,0.0,0.0,0.0,0.0,0.0,0.0,0.0,0.0,0.0,0.0,0.0,0.0,0.0,0.0,0.0,0.0,0.0,0.0,0.0,0.0,0.0,0.0,0.0,0.0,0.0,0.0,0.0,0.0,0.0,0.0,0.0,0.0,0.0,0.0,0.0,0.0,0.0,0.0,0.0,0.0,0.0,0.0,0.0,0.0,0.0,0.0,0.0,0.0,0.0,0.0,0.0,0.0,0.0,0.0,0.0,0.0,0.0,0.0,0.0,0.0,0.0,0.0,0.0,0.0,0.0,0.0,0.0,0.0,0.0,0.0,0.0,0.0,0.0,0.0,0.0,0.0,0.0,0.0,0.0,0.0,0.0,0.0,0.0,0.0,0.0,0.0,0.0,0.0,0.0,0.0,0.0,0.0,0.0,0.0,0.0,0.0,0.0,0.0,0.0,0.0,0.0,0.0,0.0,0.0,0.0,0.0,0.0,0.0,0.0,0.0,0.0,0.0,0.0,0.0,0.0,0.0,0.0,0.0,0.0,0.0,0.0,0.0,0.0,0.0,0.0,0.0,0.0,0.0,0.0,0.0,0.0,0.0,0.0,0.0,0.0,0.0,0.0,0.0,0.0,0.0,0.0,0.0,0.0,0.0,0.0,0.0,0.0,0.0,0.0,0.0,0.0,0.0,0.0,0.0,0.0,0.0,0.0,0.0,0.0,0.0,0.0,0.0,0.0,0.0,0.0,0.0,0.0,0.0,0.0,0.0,0.0,0.0,0.0,0.0,0.0,0.0,0.0,0.0,0.0,0.0,0.0,0.0,0.0,0.0,0.0,0.0,0.0,0.0,0.0,0.0,0.0,0.0,0.0,0.0,0.0,0.0,0.0,0.0,0.0,0.0,0.0,0.0,0.0,0.0,0.0,0.0,0.0,0.0,0.0,0.0,0.0,0.0,0.0,0.0,0.0,0.0,0.0,0.0,0.0,0.0,0.0,0.0,0.0,0.0,0.0,0.0,0.0,0.0,0.0,0.0,0.0,0.0,0.0,0.0,0.0,0.0,0.0,0.0,0.0,0.0,0.0,0.0,0.0,0.0,0.0,0.0,0.0,0.0,0.0,0.0,0.0,0.0,0.0,0.0,0.0,0.0,0.0,0.0,0.0,0.0,0.0,0.0,0.0,0.0,0.0,0.0,0.0,0.0,0.0,0.0,0.0,0.0,0.0,0.0,0.0,0.0,0.0,0.0,0.0,0.0,0.0,0.0,0.0,0.0,0.0,0.0,0.0,0.0,0.0,0.0,0.0,0.0,0.0,0.0,0.0,0.0,0.0,0.0,0.0,0.0,0.0,0.0,0.0,0.0,0.0,0.0,0.0,0.0,0.0,0.0,0.0,0.0,0.0,0.0,0.0,0.0,0.0,0.0,0.0,0.0,0.0,0.0,0.0,0.0,0.0,0.0,0.0,0.0,0.0,0.0,0.0,0.0,0.0,0.0,0.0,0.0,0.0,0.0,0.0,0.0,0.0,0.0,0.0,0.0,0.0,0.0,0.0,0.0,0.0,0.0,0.0,0.0,0.0,0.0,0.0,0.0,0.0,0.0,0.0,0.0,0.0,0.0,0.0,0.0,0.0,0.0,0.0,0.0,0.0,0.0,0.0,0.0,0.0,0.0,0.0,0.0,0.0,0.0,0.0,0.0,0.0,0.0,0.0,0.0,0.0,0.0,0.0,0.0,0.0,0.0,0.0,0.0,0.0,0.0,0.0,0.0,0.0,0.0,0.0,0.0,0.0,0.0,0.0,0.0,0.0,0.0,0.0,0.0,0.0,0.0,0.0,0.0,0.0,0.0,0.0,0.0,0.0,0.0,0.0,0.0,0.0,0.0,0.0,0.0,0.0,0.0,0.0,0.0,0.0,0.0,0.0,0.0,0.0,0.0,0.0,0.0,0.0,0.0,0.0,0.0,0.0,0.0,0.0,0.0,0.0,0.0,0.0,0.0,0.0,0.0,0.0,0.0,0.0,0.0,0.0,0.0,0.0,0.0,0.0,0.0,0.0,0.0,0.0,0.0,0.0,0.0,0.0,0.0,0.0,0.0,0.0,0.0,0.0,0.0,0.0,0.0,0.0,0.0,0.0,0.0,0.0,0.0,0.0,0.0,0.0,0.0,0.0,0.0,0.0,0.0,0.0,0.0,0.0,0.0,0.0,0.0,0.0,0.0,0.0,0.0,0.0,0.0,0.0,0.0,0.0,0.0,0.0,0.0,0.0,0.0,0.0,0.0,0.0,0.0,0.0,0.0,0.0,0.0,0.0,0.0,0.0,0.0,0.0,0.0,0.0,0.0,0.0,0.0,0.0,0.0,0.0,0.0,0.0,0.0,0.0,0.0,0.0,0.0,0.0,0.0,0.0,0.0,0.0,0.0,0.0,0.0,0.0,0.0,0.0,0.0,0.0,0.0,0.0,0.0,0.0,0.0,0.0,0.0,0.0,0.0,0.0,0.0,0.0,0.0,0.0,0.0,0.0,0.0,0.0,0.0,0.0,0.0,0.0,0.0,0.0,0.0,0.0,0.0,0.0,0.0,0.0,0.0,0.0,0.0,0.0,0.0,0.0,0.0,0.0,0.0,0.0,0.0,0.0,0.0,0.0,0.0,0.0,0.0,0.0,0.0,0.0,0.0,0.0,0.0,0.0,0.0,0.0,0.0,0.0,0.0,0.0,0.0,0.0,0.0,0.0,0.0,0.0,0.0,0.0,0.0,0.0,0.0,0.0,0.0,0.0,0.0,0.0,0.0,0.0,0.0,0.0,0.0,0.0,0.0,0.0,0.0,0.0,0.0,0.0,0.0,0.0,0.0,0.0,0.0,0.0,0.0,0.0,0.0,0.0,0.0,0.0,0.0,0.0,0.0,0.0,0.0,0.0,0.0,0.0,0.0,0.0,0.0,0.0,0.0,0.0,0.0,0.0,0.0,0.0,0.0,0.0,0.0,0.0,0.0,0.0,0.0,0.0,0.0,0.0,0.0,0.0,0.0,0.0,0.0,0.0,0.0,0.0,0.0,0.0,0.0,0.0,0.0,0.0,0.0,0.0,0.0,0.0,0.0,0.0,0.0,0.0,0.0,0.0,0.0,0.0,0.0,0.0,0.0,0.0,0.0,0.0,0.0,0.0,0.0,0.0,0.0,0.0,0.0,0.0,0.0,0.0,0.0,0.0,0.0,0.0,0.0,0.0,0.0,0.0,0.0,0.0,0.0,0.0,0.0,0.0,0.0,0.0,0.0,0.0,0.0,0.0,0.0,0.0,0.0,0.0,0.0,0.0,0.0,0.0,0.0,0.0,0.0,0.0,0.0,0.0,0.0,0.0,0.0,0.0,0.0,0.0,0.0,0.0,0.0,0.0,0.0,0.0,0.0,0.0,0.0,0.0,0.0,0.0,0.0,0.0,0.0,0.0,0.0,0.0,0.0,0.0,0.0,0.0,0.0,0.0,0.0,0.0,0.0,0.0,0.0,0.0,0.0,0.0,0.0,0.0,0.0,0.0,0.0,0.0,0.0,0.0,0.0,0.0,0.0,0.0,0.0,0.0,0.0,0.0,0.0,0.0,0.0,0.0,0.0,0.0,0.0,0.0,0.0,0.0,0.0,0.0,0.0,0.0,0.0,0.0,0.0,0.0,0.0,0.0,0.0,0.0,0.0,0.0,0.0,0.0,0.0,0.0,0.0,0.0,0.0,0.0,0.0,0.0,0.0,0.0,0.0,0.0,0.0,0.0,0.0,0.0,0.0,0.0,0.0,0.0,0.0,0.0,0.0,0.0,0.0,0.0,0.0,0.0,0.0,0.0,0.0,0.0,0.0,0.0,0.0,0.0,0.0,0.0,0.0,0.0,0.0,0.0,0.0,0.0,0.0,0.0,0.0,0.0,0.0,0.0,0.0,0.0,0.0,0.0,0.0,0.0,0.0,0.0,0.0,0.0,0.0,0.0,0.0,0.0,0.0,0.0,0.0,0.0,0.0,0.0,0.0,0.0,0.0,0.0,0.0,0.0,0.0,0.0,0.0,0.0,0.0,0.0,0.0,0.0,0.0,0.0,0.0,0.0,0.0,0.0,0.0,0.0,0.0,0.0,0.0,0.0,0.0,0.0,0.0,0.0,0.0,0.0,0.0,0.0,0.0,0.0,0.0,0.0,0.0,0.0,0.0,0.0,0.0,0.0,0.0,0.0,0.0,0.0,0.0,0.0,0.0,0.0,0.0,0.0,0.0,0.0,0.0,0.0,0.0,0.0,0.0,0.0,0.0,0.0,0.0,0.0,0.0,0.0,0.0,0.0,0.0,0.0,0.0,0.0,0.0,0.0,0.0,0.0,0.0,0.0,0.0,0.0,0.0,0.0,0.0,0.0,0.0,0.0,0.0,0.0,0.0,0.0,0.0,0.0,0.0,0.0,0.0,0.0,0.0,0.0,0.0,0.0,0.0,0.0,0.0,0.0,0.0,0.0,0.0,0.0,0.0,0.0,0.0,0.0,0.0,0.0,0.0,0.0,0.0,0.0,0.0,0.0,0.0,0.0,0.0,0.0,0.0,0.0,0.0,0.0,0.0,0.0,0.0,0.0,0.0,0.0,0.0,0.0,0.0,0.0,0.0,0.0,0.0,0.0,0.0,0.0,0.0,0.0,0.0,0.0,0.0,0.0,0.0,0.0,0.0,0.0,0.0,0.0,0.0,0.0,0.0,0.0,0.0,0.0,0.0,0.0,0.0,0.0,0.0,0.0,0.0,0.0,0.0,0.0,0.0,0.0,0.0,0.0,0.0,0.0,0.0,0.0,0.0,0.0,0.0,0.0,0.0,0.0,0.0,0.0,0.0,0.0,0.0,0.0,0.0,0.0,0.0,0.0,0.0,0.0,0.0,0.0,0.0,0.0,0.0,0.0,0.0,0.0,0.0,0.0,0.0,0.0,0.0,0.0,0.0,0.0,0.0,0.0,0.0,0.0,0.0,0.0,0.0,0.0,0.0,0.0,0.0,0.0,0.0,0.0,0.0,0.0,0.0,0.0,0.0,0.0,0.0,0.0,0.0,0.0,0.0,0.0,0.0,0.0,0.0,0.0,0.0,0.0,0.0,0.0,0.0,0.0,0.0,0.0,0.0,0.0,0.0,0.0,0.0,0.0,0.0,0.0,0.0,0.0,0.0,0.0,0.0,0.0,0.0,0.0,0.0,0.0,0.0,0.0,0.0,0.0,0.0,0.0,0.0,0.0,0.0,0.0,0.0,0.0,0.0,0.0,0.0,0.0,0.0,0.0,0.0,0.0,0.0,0.0,0.0,0.0,0.0,0.0,0.0,0.0,0.0,0.0,0.0,0.0,0.0,0.0,0.0,0.0,0.0,0.0,0.0,0.0,0.0,0.0,0.0,0.0,0.0,0.0,0.0,0.0,0.0,0.0,0.0,0.0,0.0,0.0,0.0,0.0,0.0,0.0,0.0,0.0,0.0,0.0,0.0,0.0,0.0,0.0,0.0,0.0,-3.0277,0.0,0.0,0.0,0.0,0.0,0.0,0.0,0.0,0.0,0.0,0.0,0.0,0.0,0.0,0.0,0.0,0.0,0.0,0.0,0.0,0.0,0.0,0.0,0.0,0.0,0.0,0.0,0.0,0.0,0.0,0.0,0.0,0.0,0.0,0.0,0.0,0.0,0.0,0.0,0.0,0.0,0.0,0.0,0.0,0.0,0.0,0.0,0.0,0.0,0.0,0.0,0.0,0.0,0.0,0.0,0.0,0.0,0.0,0.0,0.0,0.0,0.0,0.0,0.0,0.0,0.0,0.0,0.0,0.0,0.0,0.0,0.0,0.0,0.0,0.0,0.0,0.0,0.0,0.0,0.0,0.0,0.0,0.0,0.0,0.0,0.0,0.0,0.0,0.0,0.0,0.0,0.0,0.0,0.0,0.0,0.0,0.0,0.0,0.0,0.0,0.0,0.0,0.0,0.0,0.0,0.0,0.0,0.0,0.0,0.0,0.0,0.0,0.0,0.0,0.0,0.0,-3.2171,0.0,0.0,0.0,0.0,0.0,0.0,0.0,0.0,0.0,0.0,0.0,0.0,0.0,0.0,0.0,0.0,0.0,0.0,0.0,0.0,0.0,0.0,0.0,0.0,0.0,0.0,0.0,0.0,0.0,0.0,0.0,0.0,0.0,0.0,0.0,0.0,0.0,0.0,0.0,0.0,0.0,0.0,0.0,0.0,0.0,0.0,0.0,0.0,0.0,0.0,0.0,0.0,0.0,0.0,0.0,0.0,0.0,0.0,0.0,0.0,0.0,0.0,0.0,0.0,0.0,0.0,0.0,0.0,0.0,0.0,0.0,0.0,0.0,0.0,0.0,0.0,0.0,0.0,0.0,0.0,0.0,0.0,0.0,0.0,0.0,0.0,0.0,0.0,0.0,0.0,0.0,0.0,0.0,0.0,0.0,0.0,0.0,0.0,0.0,0.0,0.0,0.0,0.0,0.0,0.0,0.0,0.0,0.0,-3.123,-3.2236,-3.265,-3.3618,-3.4411,-3.5014,-3.4866,-3.5346,-3.6335,-3.6685,0.0,0.0,0.0,0.0,0.0,0.0,0.0,0.0,0.0,0.0,0.0,0.0,0.0,0.0,0.0,0.0,0.0,0.0,0.0,0.0,0.0,0.0,0.0,0.0,0.0,0.0,0.0,0.0,0.0,0.0,0.0,0.0,0.0,0.0,0.0,0.0,0.0,0.0,-3.6538,-3.6961,-3.778,-3.8792,0.0,0.0,0.0,0.0,0.0,0.0,0.0,0.0,0.0,0.0,0.0,0.0,0.0,0.0,0.0,0.0,0.0,0.0,0.0,0.0,0.0,0.0,0.0,0.0,0.0,0.0,0.0,0.0,0.0,0.0,0.0,0.0,0.0,0.0,0.0,0.0,0.0,0.0,0.0,0.0,0.0,0.0,0.0,0.0,-2.1765,-2.1116,0.0,0.0,0.0,0.0,0.0,0.0,0.0,0.0,0.0,0.0,0.0,0.0,0.0,-2.8672,-2.9062,-3.1152,-3.2226,-3.2305,-3.3984,-3.5019,-3.543,-3.5622,-3.6737,-3.8465,-4.0113,0.0,-3.7822,-3.9019,0.0,0.0,0.0,0.0,0.0,0.0,0.0,0.0,0.0,0.0,0.0,0.0,0.0,0.0,0.0,0.0,0.0,0.0,0.0,0.0,0.0,0.0,0.0,0.0,0.0,0.0,0.0,0.0,0.0,0.0,0.0,0.0,0.0,0.0,0.0,0.0,-3.7718,-3.7732,-3.8042,-3.9049,-3.958,-3.9661,-3.9074,-3.8527,-3.7895,-3.6763,0.0,0.0,0.0,0.0,0.0,0.0,0.0,0.0,0.0,0.0,0.0,0.0,0.0,0.0,0.0,0.0,0.0,0.0,0.0,0.0,0.0,0.0,0.0,0.0,0.0,0.0,0.0,0.0,0.0,0.0,0.0,0.0,0.0,0.0,0.0,0.0,0.0,0.0,0.0,-2.2571,-2.2185,-2.1477,-2.1831,-2.2173,0.0,0.0,0.0,0.0,0.0,0.0,0.0,0.0,0.0,-3.0379,-3.1329,-3.1939,-3.2165,-3.4053,-3.5171,-3.5309,-3.6543,-3.7402,-3.7812,-3.8086,-3.9389,-4.1599,-4.3551,-4.4161,-4.3734,-4.3114,-4.1879,-4.0252,0.0,0.0,0.0,0.0,-3.9195,-3.9471,0.0,0.0,0.0,0.0,0.0,0.0,0.0,0.0,0.0,0.0,0.0,0.0,0.0,0.0,0.0,-4.5131,0.0,0.0,0.0,0.0,0.0,0.0,0.0,0.0,0.0,0.0,0.0,0.0,-3.9444,-3.9787,-3.9537,-4.1023,-4.1292,-4.0537,-4.0475,-3.9817,-3.8748,-3.7288,-3.6597,0.0,0.0,0.0,0.0,0.0,0.0,0.0,0.0,0.0,0.0,0.0,0.0,0.0,0.0,0.0,0.0,0.0,0.0,0.0,0.0,0.0,0.0,0.0,0.0,0.0,0.0,0.0,0.0,0.0,0.0,0.0,0.0,0.0,0.0,0.0,0.0,0.0,0.0,-2.2777,-2.292,-2.2073,-2.326,-2.3969,0.0,0.0,0.0,0.0,0.0,0.0,-3.0227,-3.1245,-3.2176,-3.3164,-3.4407,-3.5151,-3.5269,-3.6717,-3.7724,-3.7924,-3.8681,-3.9277,-3.9726,-4.0059,-4.1263,-4.3014,-4.5494,-4.7082,-4.7607,-4.6385,-4.4693,-4.2999,-4.1853,-4.1006,-4.0433,-4.0771,-4.1028,-4.1229,0.0,0.0,0.0,0.0,0.0,0.0,0.0,0.0,0.0,0.0,0.0,0.0,0.0,0.0,-4.5008,-4.7043,-4.7352,-4.7238,0.0,0.0,0.0,0.0,0.0,0.0,0.0,0.0,0.0,-3.9985,-4.0597,-4.0912,-4.0924,-4.2468,-4.2733,-4.1885,-4.1885,-4.1401,-4.0411,-3.7631,-3.7243,-3.82,0.0,0.0,0.0,0.0,0.0,0.0,0.0,0.0,0.0,0.0,0.0,0.0,0.0,0.0,0.0,0.0,0.0,0.0,0.0,0.0,0.0,0.0,0.0,0.0,0.0,0.0,0.0,0.0,0.0,0.0,0.0,0.0,0.0,0.0,0.0,0.0,0.0,0.0,0.0,-2.3212,-2.5345,0.0,0.0,0.0,0.0,-2.7584,-2.9767,-3.1366,-3.2074,-3.3828,-3.5343,-3.6367,-3.7266,-3.798,-3.8345,-3.9248,-3.979,-3.9851,-4.0235,-4.07,-4.1074,-4.1094,-4.1268,-4.1578,-4.5254,-4.6715,-4.6352,-4.7321,-4.7307,-4.6238,-4.3826,-4.2962,-4.3173,-4.2349,-4.2409,-4.2785,0.0,0.0,0.0,0.0,0.0,0.0,0.0,0.0,0.0,0.0,0.0,0.0,0.0,-4.6952,-4.8651,-5.0419,-5.1885,-5.1885,-4.9825,0.0,0.0,0.0,0.0,0.0,0.0,0.0,-4.1741,-4.221,-4.3451,-4.3981,-4.4072,-4.4608,-4.4415,-4.368,-4.3108,-4.2645,-4.2172,-3.9648,-3.8743,-3.8864,-3.7912,-3.752,0.0,0.0,0.0,0.0,0.0,0.0,0.0,0.0,0.0,0.0,0.0,0.0,0.0,0.0,0.0,0.0,0.0,0.0,0.0,0.0,0.0,0.0,0.0,0.0,0.0,0.0,0.0,0.0,0.0,0.0,0.0,0.0,0.0,0.0,0.0,0.0,0.0,-2.6186,-2.7381,0.0,-2.8095,-2.8671,-2.9642,-3.0918,-3.2564,-3.3975,-3.5,-3.6563,-3.7583,-3.8275,-3.919,-3.9641,-3.9889,-4.0459,-4.068,-4.0676,-4.0857,-4.0976,-4.1172,-4.1172,-4.2503,-4.4998,-4.6463,-4.8413,-5.0471,-5.0588,-4.964,-4.7908,-4.6677,-4.5729,-4.5304,-4.5372,-4.5472,-4.5623,0.0,0.0,0.0,0.0,0.0,0.0,0.0,0.0,0.0,0.0,0.0,-4.391,-4.7192,-4.9526,-5.1555,-5.3281,-5.46,-5.4262,-5.1758,0.0,0.0,0.0,0.0,0.0,0.0,-4.2557,-4.3707,-4.4181,-4.5466,-4.6075,-4.6075,-4.5838,-4.5284,-4.449,-4.3661,-4.3323,-4.3196,-4.1565,-4.051,-3.9755,-3.904,-3.9023,-3.921,0.0,0.0,0.0,0.0,0.0,0.0,0.0,0.0,0.0,0.0,0.0,0.0,0.0,0.0,0.0,0.0,0.0,0.0,0.0,0.0,0.0,0.0,0.0,0.0,0.0,0.0,0.0,0.0,0.0,0.0,0.0,0.0,0.0,0.0,0.0,-2.7039,-2.8188,-2.9474,-3.0254,-3.0374,-3.1162,-3.2218,-3.3525,-3.498,-3.625,-3.7445,-3.8661,-3.9347,-3.9574,-4.0386,-4.0798,-4.0735,-4.1072,-4.1172,-4.1172,-4.1172,-4.1172,-4.1172,-4.1172,-4.2943,-4.5998,-4.6735,-4.8794,-5.2,-5.2254,-5.1297,-4.954,-4.8761,-4.7933,-4.7129,-4.7129,-4.7255,-4.7355,0.0,0.0,0.0,0.0,0.0,0.0,0.0,0.0,0.0,0.0,-4.2591,-4.4993,-4.8748,-5.1116,-5.3348,-5.5581,-5.504,-5.3957,-5.2401,-4.9526,0.0,0.0,0.0,0.0,-4.2455,-4.4621,-4.5805,-4.5805,-4.6515,-4.6853,-4.6786,-4.6075,-4.5261,-4.4372,-4.368,-4.3383,-4.3383,-4.3383,-4.2499,-4.1058,-4.0075,-4.0601,-4.172,0.0,0.0,0.0,0.0,0.0,0.0,0.0,0.0,0.0,0.0,0.0,0.0,0.0,0.0,0.0,0.0,0.0,0.0,0.0,0.0,0.0,0.0,0.0,0.0,0.0,0.0,0.0,0.0,0.0,0.0,0.0,0.0,0.0,-2.5057,-2.7102,-2.87,-2.8941,-3.1305,-3.2324,-3.1211,-3.3264,-3.4988,-3.5508,-3.7031,-3.8367,-3.9188,-4.0105,-4.0523,-4.0523,-4.0898,-4.1172,-4.1172,-4.1172,-4.1172,-4.1172,-4.1172,-4.1172,-4.1172,-4.1172,-4.235,-4.4247,-4.6146,-4.8217,-5.0269,-5.2189,-5.2277,-5.1197,-5.0092,-4.9289,-4.8661,-4.7606,-4.7506,-4.7832,0.0,0.0,0.0,0.0,0.0,0.0,0.0,0.0,0.0,0.0,-4.506,-4.8105,-5.186,-5.4228,-5.6021,-5.7171,-5.5649,-5.3957,-5.2401,0.0,0.0,0.0,0.0,0.0,-4.5534,-4.6718,-4.7564,-4.8105,-4.8308,-4.7834,-4.6786,-4.6583,-4.579,-4.4539,-4.4337,-4.427,-4.427,-4.427,-4.4337,-4.4212,-4.2311,-4.1762,-4.1883,0.0,0.0,0.0,0.0,0.0,0.0,0.0,0.0,0.0,0.0,0.0,0.0,0.0,0.0,0.0,0.0,0.0,0.0,0.0,0.0,0.0,0.0,0.0,0.0,0.0,0.0,0.0,0.0,0.0,0.0,0.0,0.0,-2.619,-2.6626,-2.818,-2.9912,-3.154,-3.2583,-3.3572,-3.4583,-3.5471,-3.6619,-3.7637,-3.873,-3.9551,-4.0151,-4.0605,-4.0957,-4.0957,-4.1094,-4.1172,-4.1172,-4.1172,-4.1172,-4.1172,-4.1172,-4.1172,-4.1172,-4.1172,-4.3096,-4.6293,-4.6735,-4.8938,-5.2189,-5.2629,-5.2528,-5.18,-5.1096,-5.0218,-4.9339,-4.9038,-4.8485,-4.7832,0.0,0.0,0.0,0.0,0.0,0.0,0.0,0.0,0.0,0.0,-4.6041,-4.9357,-5.3112,-5.5209,-5.6528,-5.6934,-5.5243,-5.3213,-5.1048,0.0,0.0,0.0,0.0,-4.638,-4.7699,-4.8748,-4.9357,-4.9458,-4.9458,-4.8714,-4.7259,-4.6921,-4.6177,-4.5026,-4.4722,-4.4587,-4.4587,-4.4587,-4.5196,-4.5974,-4.4045,-4.3584,-4.3833,-4.1547,-4.0983,-4.1255,-4.0437,-4.0403,-4.0532,-3.9542,0.0,0.0,0.0,0.0,0.0,0.0,0.0,0.0,0.0,0.0,0.0,0.0,0.0,0.0,0.0,0.0,0.0,0.0,0.0,0.0,0.0,0.0,0.0,0.0,-2.6014,-2.7791,-2.894,-3.0043,-3.1368,-3.308,-3.3877,-3.477,-3.6166,-3.6872,-3.7656,-3.875,-3.9492,-4.0156,-4.0762,-4.1035,-4.1172,-4.1172,-4.1172,-4.1172,-4.1172,-4.1172,-4.1172,-4.1172,-4.1172,-4.1172,-4.1172,-4.1172,-4.2943,-4.5849,-4.6588,-4.8794,-5.1747,-5.2629,-5.2477,0.0,0.0,0.0,0.0,0.0,-4.8385,-4.723,0.0,0.0,0.0,0.0,0.0,0.0,0.0,0.0,0.0,0.0,0.0,-4.9323,-5.2739,-5.4431,-5.5378,-5.5446,-5.389,-5.1657,0.0,0.0,0.0,-4.6109,-4.8037,-4.9187,-4.9357,-5.0676,-5.098,-5.0202,-5.0135,-4.9357,-4.7902,-4.7225,-4.6515,-4.5805,-4.5128,-4.4823,-4.4823,-4.4756,-4.55,-4.665,-4.5162,-4.5399,-4.6346,-4.3373,-4.298,-4.3889,-4.23,-4.1476,-4.1009,-4.0712,0.0,0.0,0.0,0.0,0.0,0.0,0.0,0.0,0.0,0.0,0.0,0.0,0.0,0.0,0.0,0.0,0.0,0.0,0.0,0.0,0.0,0.0,0.0,0.0,-2.7467,-2.9223,-3.1305,-3.2098,-3.2838,-3.41,-3.5008,-3.584,-3.6658,-3.7519,-3.8301,-3.9219,-3.9668,-4.0273,-4.1133,0.0,0.0,0.0,0.0,-4.1172,-4.1172,-4.1172,-4.1172,-4.1172,-4.1172,-4.1172,-4.1172,-4.1172,-4.2196,-4.4247,-4.5849,-4.7904,-5.0127,-5.1886,-5.2141,-5.1272,-5.1147,-5.077,-5.0193,-4.9163,-4.7857,-4.6627,0.0,0.0,0.0,0.0,0.0,0.0,0.0,0.0,0.0,-4.3301,-4.6549,-4.9289,-5.0608,-5.2063,-5.3213,-5.389,-5.0913,-4.824,0.0,0.0,-4.6007,-4.8274,-4.9323,-5.0439,-5.1657,-5.1961,-5.1725,-5.1014,-5.0405,-4.9357,-4.7936,-4.7767,-4.7293,-4.6583,-4.6413,-4.6346,-4.6346,-4.5737,-4.6007,-4.665,-4.5162,-4.5128,-4.5703,-4.3855,-4.2942,-4.2638,-4.2281,-4.2888,-4.363,-4.2253,-4.2411,-4.2948,-4.0896,0.0,0.0,0.0,0.0,0.0,0.0,0.0,0.0,0.0,0.0,0.0,0.0,0.0,0.0,0.0,0.0,0.0,0.0,0.0,0.0,-2.6565,-2.8496,-3.0407,-3.1879,-3.3034,-3.4123,-3.4983,-3.554,-3.625,-3.7129,-3.7637,-3.8437,-3.9668,-3.9844,-4.0273,-4.1133,-4.1172,-4.1172,-4.1172,-4.1172,-4.1172,-4.1172,-4.1172,-4.1172,-4.1172,0.0,0.0,-4.1172,-4.1172,-4.2196,-4.4096,-4.4527,-4.6735,-4.9961,-5.041,-5.0807,-5.1197,-5.0268,-4.9866,-4.9665,-4.9012,-4.856,-4.8184,0.0,0.0,0.0,0.0,0.0,0.0,0.0,0.0,0.0,0.0,-4.6278,-4.8308,-4.9424,-5.0202,-5.0676,-5.071,-4.797,0.0,0.0,-4.6041,-4.7225,-4.9458,-5.0608,-5.1885,-5.3425,-5.3425,-5.3301,-5.2934,-5.2112,-5.0794,-4.9032,-4.8562,-4.7841,-4.6786,-4.6786,-4.6786,-4.6786,-4.6413,-4.6447,-4.6743,-4.5896,-4.5823,-4.6028,-4.4898,-4.4213,-4.3889,-4.38,-4.4039,-4.4196,-4.3385,-4.335,-4.3454,-4.2313,-4.116,-4.0099,0.0,0.0,0.0,0.0,0.0,0.0,0.0,0.0,0.0,0.0,0.0,0.0,0.0,0.0,-2.3028,0.0,0.0,-2.6447,-2.8301,-3.0059,-3.1701,-3.2981,-3.4034,-3.4936,-3.5653,-3.5857,-3.6445,-3.75,-3.7793,-3.8476,-3.9805,-3.9902,-4.0273,-4.1133,-4.1172,-4.1172,-4.1172,-4.1172,-4.1172,-4.1172,-4.1386,-4.1386,-4.1172,-4.1386,-4.1386,-4.1172,-4.1172,-4.1773,-4.279,-4.4699,-4.6735,-4.8627,-5.0427,-5.116,-5.1197,-5.0343,-4.9665,-4.9163,-4.8862,-4.8586,-4.8259,0.0,0.0,0.0,0.0,0.0,0.0,0.0,0.0,0.0,0.0,0.0,-4.6989,-4.8037,-4.8139,-4.78,0.0,0.0,0.0,0.0,-4.7158,-4.8741,-5.0657,-5.2051,-5.3391,-5.4783,-5.4818,-5.4699,-5.4611,-5.3973,-5.2619,-5.0732,-5.0105,-4.9124,-4.7928,-4.807,-4.7953,-4.7631,-4.7505,-4.7427,-4.7384,-4.6818,-4.6655,-4.6743,-4.613,-4.5695,-4.5436,-4.5258,-4.4526,-4.3642,-4.3784,-4.3368,-4.2731,-4.2817,-4.2,-4.0874,-4.011,-3.886,0.0,0.0,0.0,0.0,0.0,0.0,0.0,0.0,0.0,-2.3229,-2.2452,-2.3128,-2.4205,-2.5684,-2.668,-2.793,-3.0,-3.1426,-3.274,-3.3934,-3.4851,-3.5603,-3.6074,-3.625,-3.6719,-3.7695,-3.7949,-3.8555,-3.9805,-3.9902,-4.0273,-4.1133,-4.1172,-4.123,-4.1328,-4.1308,-4.1348,-4.1484,-4.1758,-4.1679,-4.1289,-4.1601,-4.1561,-4.1172,-4.1172,-4.1463,-4.1907,-4.5871,-4.7613,-4.7881,-5.0881,-5.1774,-5.1247,-5.077,-4.9916,-4.8937,-4.8937,-4.8636,-4.8209,0.0,0.0,0.0,0.0,0.0,0.0,0.0,0.0,0.0,0.0,0.0,0.0,0.0,0.0,0.0,0.0,0.0,0.0,0.0,-4.7462,-4.9426,-5.2995,-5.3894,-5.4713,-5.5552,-5.561,-5.5278,-5.4611,-5.4504,-5.3989,-5.3139,-5.3014,-5.2523,-5.1835,-5.2453,-5.1975,-5.0672,-4.9973,-4.9677,-4.9504,-4.7415,-4.6968,-4.7546,-4.7277,-4.6355,-4.5247,-4.5187,-4.3774,-4.1991,-4.2705,-4.2423,-4.1744,-4.1831,-4.1445,-4.0863,-4.0019,0.0,-3.6874,-3.6806,-3.4741,-3.2276,-3.0719,-2.8433,-2.6382,0.0,0.0,-2.3856,-2.3448,-2.4126,-2.5369,-2.6621,-2.7578,-2.873,-3.0527,-3.1894,-3.3027,-3.4034,-3.4805,-3.5684,-3.6504,-3.695,-3.7261,-3.7363,-3.8066,-3.8887,-3.9824,-3.9902,-4.0273,-4.1133,-4.1172,-4.1387,-4.1717,-4.1777,-4.1853,-4.2256,-4.2031,-4.1738,-4.1719,-4.1367,-4.1191,-4.1172,-4.1172,-4.2196,-4.3945,-4.7904,-4.9677,-4.9795,-5.1457,-5.1774,-5.1272,-5.1222,-5.0494,-4.9515,-4.9515,-4.9464,-4.9264,0.0,0.0,0.0,0.0,0.0,0.0,0.0,0.0,0.0,0.0,0.0,0.0,0.0,0.0,0.0,0.0,0.0,0.0,-4.665,-4.7902,-4.9998,-5.3359,-5.4191,-5.5179,-5.6367,-5.6367,-5.6489,-5.6573,-5.6138,-5.5505,-5.4825,-5.4358,-5.3744,-5.3036,-5.3368,-5.3112,-5.2544,-5.2222,-5.1525,-5.0576,-4.9543,-4.8734,-4.8165,-4.7456,-4.5976,-4.4252,-4.4722,-4.3963,0.0,0.0,-4.1612,-4.1323,-4.1323,-4.0867,-4.0222,-3.9743,-3.8659,0.0,-3.5479,-3.3615,-3.1657,0.0,-2.8108,-2.6871,-2.557,-2.4596,-2.4009,-2.4342,-2.5192,-2.6309,-2.7832,-2.8633,-2.9609,0.0,-3.2285,-3.3184,-3.4277,-3.4766,-3.5117,-3.5488,-3.6074,-3.6794,-3.7598,-3.7988,-3.8672,-3.9805,-4.0117,-4.0527,-4.1133,-4.1406,-4.1641,-4.1855,-4.207,-4.2187,-4.2047,-4.2383,-4.2129,-4.1426,-4.1798,-4.168,-4.1172,-4.1172,-4.2943,-4.5998,-4.8794,-5.0717,-5.1722,-5.2379,-5.2076,-5.1272,-5.1272,-5.0594,-4.964,-4.9967,-4.9866,-4.949,0.0,0.0,0.0,0.0,0.0,0.0,0.0,0.0,0.0,0.0,0.0,0.0,0.0,0.0,0.0,0.0,0.0,0.0,0.0,-4.7767,-5.012,-5.3345,-5.4001,0.0,-5.6861,-5.7129,-5.7384,-5.7679,-5.7537,-5.7068,-5.6394,-5.5801,-5.513,-5.4438,-5.4649,-5.4491,-5.4079,-5.3869,-5.3155,-5.2029,-5.0987,-4.9892,-4.8732,-4.7309,-4.5406,-4.3571,-4.4158,-4.3277,0.0,0.0,-4.0602,-4.0423,-4.061,-4.0275,-3.9779,-3.9717,-3.8712,-3.6975,-3.4295,0.0,0.0,-2.9394,-2.8451,-2.7631,-2.6439,-2.5658,-2.5451,-2.6329,-2.7145,-2.8046,-2.9399,-2.9888,-3.0611,-3.2152,-3.2695,-3.3418,-3.4707,-3.4883,-3.4883,-3.4883,-3.5351,-3.6113,-3.7285,-3.7715,-3.8476,-3.9805,-4.0176,-4.0586,-4.1152,-4.1562,-4.1855,-4.1973,-4.2266,-4.2344,-4.2148,-4.248,-4.2366,-4.1348,-4.1857,-4.1778,-4.1172,-4.235,-4.4699,-4.7904,-4.9961,-5.1607,-5.2929,-5.2754,-5.2126,-5.1272,-5.1272,-5.0594,-4.964,-5.0042,-4.9841,-4.9289,0.0,0.0,0.0,0.0,0.0,0.0,0.0,0.0,0.0,0.0,0.0,0.0,0.0,0.0,0.0,0.0,0.0,0.0,0.0,-4.6718,-4.9629,-5.3352,-5.3556,-5.4582,-5.6825,-5.7634,-5.767,-5.6912,-5.8397,-5.8731,-5.796,-5.7877,-5.7473,-5.684,-5.7521,-5.7007,-5.5603,-5.484,-5.453,-5.4157,-5.0984,-4.964,-4.9297,-4.6874,-4.4929,-4.3497,-4.3534,0.0,0.0,0.0,-3.9296,-3.8679,-3.9319,-3.9589,0.0,-4.0144,-3.822,-3.558,-3.3686,0.0,-3.0159,-3.1129,-2.9728,-2.8345,-2.9451,-2.915,-2.8925,-2.9889,-3.0421,-3.0866,-3.1443,-3.1584,-3.1799,-3.2667,-3.3125,-3.3867,-3.5176,-3.5371,-3.5371,-3.5371,-3.5,-3.5098,0.0,-3.7187,-3.8476,-3.9805,-3.9902,-4.0293,-4.1133,-4.1562,-4.1992,-4.2402,-4.2422,-4.2617,-4.3047,-4.2246,-4.1816,-4.1777,-4.1387,-4.1191,-4.1327,-4.5127,-4.7904,-4.9961,-5.2025,-5.2792,-5.2879,-5.2352,-5.18,-5.1272,-5.1272,-5.0594,-4.959,-4.9615,-4.9264,-4.8711,0.0,0.0,0.0,0.0,0.0,0.0,0.0,0.0,0.0,0.0,0.0,0.0,0.0,0.0,0.0,0.0,0.0,0.0,0.0,-4.621,-4.8401,-5.1144,-5.2184,-5.3334,-5.4634,-5.5384,-5.5864,-5.6114,-5.7165,-5.7556,-5.7302,-5.7774,-5.7904,-5.7631,-5.7904,-5.769,-5.7193,-5.6368,-5.6025,-5.5696,-5.1937,-5.0419,-4.9958,-4.5847,-4.3314,-4.1846,0.0,0.0,0.0,0.0,0.0,0.0,-3.6916,0.0,-3.7309,-3.7513,-3.5988,-3.422,-3.4186,-3.2557,-3.1193,-3.1998,-3.0906,-2.9748,-3.0105,-2.9958,-2.9824,-3.0068,-3.0348,-3.07,-3.088,-3.0832,-3.1162,-3.217,-3.271,-3.3457,-3.4746,-3.543,-3.5586,-3.5,-3.5566,0.0,0.0,0.0,0.0,-3.9336,-3.998,-4.0739,-4.1542,-4.2033,-4.2226,-4.2386,-4.4018,-4.4652,-4.4181,-4.5384,-4.5834,-4.5213,-4.5063,-4.4998,-4.5148,-4.7781,-4.9391,-5.0127,-5.205,-5.2729,-5.2377,-5.2176,-5.1548,-5.072,-5.072,-5.0017,-4.9063,-4.9063,-4.846,-4.7657,0.0,0.0,0.0,0.0,0.0,0.0,0.0,0.0,0.0,0.0,0.0,0.0,0.0,0.0,0.0,0.0,0.0,0.0,0.0,0.0,-4.6578,-4.8806,-4.9861,-5.1026,-5.2247,-5.3077,-5.357,-5.3817,-5.4813,-5.5215,-5.5014,-5.5703,-5.6139,-5.6364,-5.6692,-5.6932,-5.7079,-5.5978,-5.531,-5.4723,-5.1316,-4.9551,-4.8598,-4.4599,-4.2249,0.0,0.0,0.0,0.0,0.0,0.0,0.0,0.0,-3.6215,-3.6417,-3.6388,-3.5346,-3.4462,-3.5617,-3.404,-3.2461,-3.3798,-3.2898,-3.1695,-3.1889,-3.1765,-3.1551,-3.1435,-3.1391,-3.1435,-3.1233,-3.0629,-3.0643,-3.1656,-3.1898,-3.2578,-3.4668,-3.5293,-3.5625,-3.582,-3.6328,-3.668,0.0,0.0,0.0,-3.9375,-4.0117,-4.0896,-4.1561,-4.2013,-4.2447,-4.3215,-4.4679,-4.5687,-4.5836,-4.7153,-4.7507,-4.7029,-4.7029,-4.7321,-4.8072,-4.9391,-5.041,-5.1138,-5.2128,-5.2427,-5.2076,-5.1674,-5.1071,-5.0393,-5.0193,-4.969,-4.9012,-4.8611,-4.8008,-4.738,0.0,0.0,0.0,0.0,0.0,0.0,0.0,0.0,0.0,0.0,0.0,0.0,0.0,0.0,0.0,0.0,0.0,0.0,0.0,0.0,0.0,-4.65,-4.6635,-4.7704,-4.9756,-5.0702,-5.0828,-5.0223,-5.1599,-5.1932,-5.1322,-5.1967,-5.2595,-5.3218,-5.4002,-5.4687,-5.52,-5.3622,-5.248,-5.148,-4.9072,-4.7203,-4.5589,-4.3098,0.0,0.0,0.0,0.0,0.0,0.0,0.0,0.0,0.0,-3.7165,-3.7182,-3.6898,-3.6389,-3.6206,-3.7954,-3.5984,-3.4053,-3.6546,-3.5489,-3.4073,-3.4575,-3.4274,-3.3872,-3.3822,-3.3395,-3.2884,0.0,0.0,-3.0395,-3.1511,-3.101,-3.1504,-3.4922,-3.5117,-3.5684,0.0,0.0,0.0,0.0,0.0,0.0,-4.0014,0.0,-4.0857,-4.1483,-4.1876,-4.2973,-4.4858,-4.4879,-4.5944,-4.7746,-4.7422,-4.7321,-4.7321,-4.7321,-4.8361,-5.0127,-5.0127,-5.1138,-5.2904,-5.2377,-5.2126,-5.2026,-5.0921,-5.0444,-5.0368,-4.9816,-4.9565,-4.9364,-4.8309,-4.7883,-4.7757,0.0,0.0,0.0,0.0,0.0,0.0,0.0,0.0,0.0,0.0,0.0,0.0,0.0,0.0,0.0,0.0,0.0,0.0,0.0,0.0,0.0,0.0,0.0,0.0,0.0,0.0,0.0,0.0,0.0,-4.8995,-4.882,-4.9699,-5.0151,0.0,-5.07,-5.0984,-5.1049,-5.0162,-5.0025,-5.0148,0.0,-4.5609,-4.5867,0.0,0.0,0.0,0.0,0.0,0.0,0.0,0.0,0.0,0.0,-3.7477,-3.7861,-3.8404,-3.8163,-3.8134,-3.9658,-3.815,-3.6408,-3.7593,-3.6181,-3.4449,-3.4173,-3.3997,-3.3671,-3.2817,-3.2372,-3.1882,0.0,0.0,0.0,-3.1206,-3.2231,0.0,-3.5455,-3.7053,0.0,-3.8379,0.0,-3.9023,-3.8887,-4.0545,0.0,0.0,-4.2617,-4.3652,-4.5988,-4.6096,-4.648,-4.6917,-4.8337,-4.9206,-4.9435,-5.0789,-5.1443,-5.1443,-5.1443,-5.1607,-5.2189,-5.2189,-5.2491,-5.2929,-5.2779,-5.2477,-5.2051,-5.1348,-5.082,-5.0368,-4.9816,-4.9088,-4.8309,-4.8008,-4.7405,-4.6702,0.0,0.0,0.0,0.0,0.0,0.0,0.0,0.0,0.0,0.0,0.0,0.0,0.0,0.0,0.0,0.0,0.0,0.0,0.0,0.0,0.0,0.0,0.0,0.0,0.0,0.0,0.0,0.0,0.0,0.0,0.0,-4.6325,-4.6695,-4.6671,-4.7475,-4.782,-4.7778,0.0,0.0,0.0,0.0,0.0,0.0,0.0,0.0,0.0,0.0,0.0,0.0,0.0,0.0,-3.9029,-3.8653,-3.9117,-3.9986,-4.0781,0.0,-4.0674,-4.217,-4.0636,-3.8891,-3.9526,-3.7738,-3.5655,-3.5102,-3.4424,-3.3571,-3.2441,-3.1755,0.0,0.0,0.0,0.0,0.0,0.0,0.0,-3.5416,-3.7249,-3.8711,0.0,-3.998,0.0,-4.1203,-4.258,-4.4144,0.0,-4.5456,-4.5718,-4.7329,-4.7329,-4.784,-4.8705,-4.9723,-5.0698,-5.1303,-5.2327,-5.2929,-5.2929,-5.2929,-5.2929,-5.2929,-5.2929,-5.2929,-5.2904,0.0,-5.2251,-5.1699,-5.1147,-5.0419,-4.9665,-4.9364,-4.8686,-4.7883,-4.7657,-4.7179,-4.6652,0.0,0.0,0.0,0.0,0.0,0.0,0.0,0.0,0.0,0.0,0.0,0.0,0.0,0.0,0.0,0.0,0.0,0.0,0.0,0.0,0.0,0.0,0.0,0.0,0.0,0.0,0.0,0.0,0.0,0.0,0.0,0.0,0.0,0.0,0.0,0.0,0.0,0.0,0.0,0.0,0.0,0.0,0.0,0.0,0.0,0.0,0.0,0.0,0.0,0.0,-4.0689,-4.1037,-4.0781,-4.1711,-4.3031,-4.3608,-4.3502,-4.3508,-4.4706,-4.3031,-4.1011,-4.157,-3.948,-3.7111,-3.6408,-3.4977,-3.347,-3.234,0.0,-3.0403,-3.0139,-2.9745,-2.9642,-3.0164,0.0,-3.3128,-3.5651,-3.6996,-3.8668,-4.1322,-4.1282,-4.1775,-4.3903,-4.4527,-4.6293,-4.9677,-4.865,-4.7781,-4.7781,-4.7781,-4.865,-5.0269,-5.041,-5.1163,-5.2929,-5.2929,-5.2929,-5.2929,-5.2929,-5.2929,-5.2929,-5.2929,-5.2929,-5.2904,-5.2427,0.0,-5.1348,-5.077,-4.9866,-4.8862,-4.8786,-4.8385,-4.7757,-4.7305,-4.7079,-4.6954,0.0,0.0,0.0,0.0,0.0,0.0,0.0,0.0,0.0,0.0,0.0,0.0,0.0,0.0,0.0,0.0,0.0,0.0,0.0,0.0,0.0,0.0,0.0,0.0,0.0,0.0,0.0,0.0,0.0,0.0,0.0,0.0,0.0,0.0,0.0,0.0,0.0,0.0,0.0,0.0,0.0,0.0,0.0,0.0,0.0,0.0,0.0,0.0,0.0,0.0,-4.243,-4.2672,-4.3566,-4.4823,-4.6026,-4.591,-4.5666,-4.5437,-4.5485,-4.3877,-4.2086,-4.1791,-3.9796,-3.7487,-3.6031,-3.4399,0.0,0.0,-3.0683,-2.9852,-2.9568,-2.9696,-3.0086,-3.0836,0.0,0.0,0.0,0.0,-4.0634,0.0,0.0,0.0,0.0,0.0,0.0,0.0,0.0,-5.1886,-5.1886,-5.1886,-5.205,-5.2327,-5.2352,-5.2491,-5.2929,-5.2929,-5.2929,-5.2929,-5.2929,-5.2929,-5.2929,-5.2929,-5.2929,-5.2929,-5.2829,0.0,-5.1925,-5.1348,-5.0469,-4.9414,-4.8962,-4.8159,-4.7255,-4.7154,-4.6853,-4.6451,0.0,0.0,0.0,0.0,0.0,0.0,0.0,0.0,0.0,0.0,-4.2625,0.0,0.0,0.0,0.0,0.0,0.0,0.0,0.0,0.0,0.0,0.0,0.0,0.0,0.0,0.0,0.0,0.0,0.0,0.0,0.0,0.0,0.0,0.0,0.0,0.0,0.0,0.0,0.0,0.0,0.0,0.0,0.0,0.0,0.0,0.0,0.0,0.0,0.0,0.0,-4.3042,-4.3864,-4.5587,-4.7267,-4.836,-4.7638,-4.7502,-4.7501,-4.6889,-4.5376,-4.378,-4.2868,-4.0298,-3.7563,-3.5931,0.0,0.0,0.0,-3.0357,-2.9779,-2.9599,0.0,0.0,0.0,0.0,0.0,0.0,0.0,0.0,0.0,0.0,0.0,0.0,0.0,0.0,0.0,0.0,-5.2929,-5.2929,-5.2929,-5.2929,-5.2929,-5.2929,-5.2929,-5.2929,-5.2929,-5.2929,-5.2929,-5.2929,-5.2929,-5.2929,-5.2929,-5.2929,-5.2904,-5.2628,0.0,-5.1624,-5.1071,-4.9992,-4.8686,-4.8435,-4.7657,-4.6702,-4.6702,-4.6552,-4.6301,0.0,0.0,0.0,0.0,0.0,0.0,0.0,-4.2692,-4.3775,-4.4113,-4.4823,-4.4823,-4.3639,-4.2422,0.0,0.0,0.0,0.0,0.0,0.0,0.0,0.0,0.0,0.0,0.0,0.0,0.0,0.0,0.0,0.0,0.0,0.0,0.0,0.0,0.0,0.0,0.0,0.0,0.0,0.0,0.0,0.0,0.0,0.0,0.0,0.0,0.0,0.0,0.0,0.0,-4.2836,-4.3989,-4.5918,-4.7943,-4.932,-4.8217,-4.8272,-4.8432,-4.7323,-4.6159,-4.4924,-4.3423,-4.0631,-3.7739,-3.5956,-3.3822,0.0,0.0,-3.0181,-2.9804,-2.9804,0.0,-3.0753,0.0,0.0,0.0,0.0,0.0,0.0,0.0,0.0,0.0,0.0,0.0,0.0,0.0,0.0,0.0,-5.2929,-5.2929,-5.2929,-5.2929,-5.2929,-5.2929,-5.2929,-5.2929,-5.2929,-5.2929,-5.2929,-5.2929,-5.2929,-5.2929,-5.2854,-5.2729,-5.2302,0.0,0.0,-5.0619,-4.9414,-4.7908,-4.7908,-4.7255,-4.6301,-4.6301,-4.6301,-4.6301,0.0,0.0,0.0,0.0,0.0,0.0,0.0,-4.347,-4.4959,-4.6312,-4.7124,-4.7564,-4.7428,-4.4891,0.0,0.0,0.0,0.0,0.0,0.0,0.0,0.0,0.0,0.0,0.0,0.0,0.0,0.0,0.0,0.0,0.0,0.0,0.0,0.0,0.0,0.0,0.0,0.0,0.0,0.0,0.0,0.0,0.0,0.0,0.0,0.0,0.0,0.0,0.0,0.0,0.0,-4.238,-4.2958,-4.5242,-4.7568,-4.678,0.0,0.0,-4.5196,-4.4865,-4.4628,-4.2377,-4.0279,-3.8216,-3.6081,0.0,0.0,-3.0834,-3.0181,-2.9804,-2.9804,-2.988,-3.0219,0.0,0.0,-3.543,0.0,0.0,0.0,0.0,0.0,0.0,0.0,0.0,0.0,0.0,0.0,0.0,-5.2929,-5.2929,-5.2929,-5.2929,-5.2929,-5.2929,-5.2929,-5.2929,-5.2929,-5.2929,-5.2929,-5.2929,-5.2929,-5.2929,-5.2653,-5.2176,-5.2126,0.0,0.0,-5.0444,-4.9414,-4.7908,-4.7908,-4.7255,-4.6301,-4.6301,-4.6301,-4.6301,0.0,0.0,0.0,0.0,0.0,0.0,0.0,-4.3978,-4.5635,-4.665,-4.7834,-4.8409,-4.797,-4.6447,0.0,0.0,0.0,0.0,0.0,0.0,0.0,0.0,0.0,0.0,0.0,0.0,0.0,0.0,0.0,0.0,0.0,0.0,0.0,0.0,0.0,0.0,0.0,0.0,0.0,0.0,0.0,0.0,0.0,0.0,0.0,0.0,0.0,0.0,0.0,0.0,0.0,0.0,-4.0511,-4.1278,0.0,0.0,-4.5141,-4.541,-4.5024,-4.4733,-4.4242,-4.2933,-4.0462,-3.7939,-3.6433,0.0,-3.1512,-3.0758,-3.0181,-2.9804,-2.9804,-2.9804,-3.0152,0.0,0.0,0.0,0.0,0.0,0.0,0.0,0.0,0.0,0.0,0.0,0.0,0.0,0.0,0.0,-5.2929,-5.2929,-5.2929,-5.2929,-5.2929,-5.2929,-5.2929,-5.2929,-5.2929,-5.2929,-5.2929,-5.2929,-5.2929,-5.2578,-5.2302,-5.2076,-5.1373,0.0,0.0,-4.969,-4.8837,-4.7883,-4.7556,-4.6979,-4.6301,-4.6301,-4.6301,-4.6301,0.0,0.0,0.0,0.0,0.0,0.0,-4.188,-4.391,-4.5635,-4.638,-4.7936,-4.8815,-4.8308,-4.7564,-4.6312,-4.4282,0.0,0.0,0.0,0.0,0.0,0.0,0.0,0.0,0.0,0.0,0.0,0.0,0.0,0.0,0.0,0.0,0.0,0.0,0.0,0.0,0.0,0.0,0.0,0.0,0.0,0.0,0.0,0.0,0.0,0.0,0.0,0.0,0.0,0.0,0.0,0.0,0.0,0.0,0.0,0.0,-4.2599,-4.3303,-4.3182,-4.3432,-4.3703,-4.2606,-4.0338,-3.7939,0.0,0.0,-3.1637,-3.0783,-3.0432,-3.0206,-3.0055,-3.0156,-3.0503,0.0,0.0,-3.4529,0.0,0.0,0.0,0.0,0.0,0.0,0.0,0.0,0.0,0.0,0.0,0.0,-5.3155,-5.3005,-5.2929,-5.2929,-5.2929,-5.2929,-5.2929,-5.2929,-5.2929,-5.2929,-5.2929,-5.2929,-5.2904,-5.2352,-5.2026,-5.18,-5.0845,0.0,0.0,-4.9163,-4.8435,-4.7857,-4.733,-4.6803,-4.6301,-4.6301,-4.6301,-4.6301,0.0,0.0,0.0,0.0,0.0,0.0,0.0,-4.3132,-4.4857,-4.5602,-4.7631,-4.9018,-4.8984,-4.8342,-4.7293,-4.5805,0.0,0.0,0.0,0.0,0.0,0.0,0.0,0.0,0.0,0.0,0.0,0.0,0.0,0.0,0.0,0.0,0.0,0.0,0.0,0.0,0.0,0.0,0.0,0.0,0.0,0.0,0.0,0.0,0.0,0.0,0.0,0.0,0.0,0.0,0.0,0.0,0.0,0.0,0.0,0.0,-3.8986,-4.0205,-3.8604,-4.0694,-4.2788,-4.0942,-3.9672,-3.8417,0.0,0.0,-3.2591,-3.0959,-3.1009,-3.121,-3.0708,-3.1035,-3.1562,-3.2114,-3.3169,0.0,0.0,0.0,0.0,0.0,0.0,0.0,0.0,0.0,0.0,0.0,0.0,0.0,-5.3683,-5.3206,-5.2929,-5.2929,-5.2929,-5.2929,-5.2929,-5.2929,-5.2929,-5.2929,-5.2929,-5.2929,-5.2904,-5.2352,-5.18,0.0,0.0,0.0,0.0,-4.9012,-4.8435,-4.7857,-4.733,-4.6803,-4.6301,-4.6301,-4.6301,-4.6301,0.0,0.0,0.0,0.0,0.0,0.0,0.0,0.0,-4.347,-4.4756,-4.6007,-4.6955,-4.7428,-4.6853,-4.621,-4.5737,0.0,0.0,0.0,0.0,0.0,0.0,0.0,0.0,0.0,0.0,0.0,0.0,0.0,0.0,0.0,0.0,0.0,0.0,0.0,0.0,0.0,0.0,0.0,0.0,0.0,0.0,0.0,0.0,0.0,0.0,0.0,0.0,0.0,0.0,0.0,0.0,0.0,0.0,0.0,0.0,0.0,0.0,-3.7967,-3.8647,-3.9188,-3.8844,-3.7688,-3.6458,-3.5931,0.0,-3.2424,-3.2086,-3.1807,-3.1661,-3.1803,-3.1851,-3.2306,-3.3658,-3.435,0.0,0.0,0.0,0.0,0.0,0.0,0.0,0.0,0.0,0.0,0.0,0.0,0.0,-5.3708,-5.3206,-5.2929,-5.2929,-5.2929,-5.2929,-5.2929,-5.2929,-5.2929,-5.2929,-5.2929,-5.2729,-5.2352,-5.18,-5.1222,0.0,0.0,0.0,0.0,-4.856,-4.8083,-4.7807,-4.6928,-4.6476,-4.6301,-4.6301,-4.6301,-4.625,0.0,0.0,0.0,0.0,0.0,0.0,0.0,0.0,-4.2219,-4.3166,-4.4215,-4.5128,-4.5872,-4.5568,-4.55,-4.6133,0.0,0.0,0.0,0.0,0.0,0.0,0.0,0.0,0.0,0.0,0.0,0.0,0.0,0.0,0.0,0.0,0.0,0.0,0.0,0.0,0.0,0.0,0.0,0.0,0.0,0.0,-4.117,0.0,0.0,0.0,0.0,0.0,0.0,0.0,0.0,0.0,0.0,0.0,0.0,0.0,-3.4685,0.0,0.0,-3.6444,-3.6919,-3.6985,-3.6157,0.0,0.0,0.0,-3.2172,-3.2016,-3.229,-3.2507,-3.238,-3.3115,-3.3897,-3.459,-3.5353,0.0,0.0,0.0,0.0,0.0,0.0,0.0,0.0,0.0,0.0,0.0,0.0,0.0,-5.4336,-5.3632,-5.3231,-5.3231,-5.303,-5.2929,-5.2929,-5.2929,-5.2929,-5.2929,-5.2929,-5.2628,-5.2076,-5.1523,-5.0971,0.0,0.0,0.0,0.0,-4.8385,-4.7908,-4.7807,-4.6728,-4.6175,-4.5999,-4.5999,-4.5849,-4.5623,0.0,0.0,0.0,0.0,0.0,0.0,0.0,0.0,0.0,0.0,-4.2388,-4.3572,-4.4418,-4.4485,-4.5151,0.0,0.0,0.0,0.0,0.0,0.0,0.0,0.0,0.0,0.0,0.0,0.0,0.0,-4.3504,-4.4248,-4.3673,0.0,0.0,0.0,0.0,0.0,0.0,0.0,0.0,0.0,0.0,0.0,0.0,0.0,0.0,0.0,0.0,0.0,0.0,0.0,0.0,0.0,0.0,0.0,0.0,0.0,0.0,0.0,0.0,-3.4392,0.0,0.0,0.0,0.0,0.0,0.0,0.0,-3.1179,-3.2406,-3.3487,-3.2748,-3.4521,-3.5911,-3.5297,-3.6315,0.0,0.0,0.0,0.0,0.0,0.0,0.0,0.0,0.0,0.0,0.0,0.0,0.0,-5.534,-5.4285,-5.3683,-5.3658,-5.3319,-5.3042,-5.2929,-5.2929,-5.2929,-5.2929,-5.2879,-5.2578,-5.2026,-5.1473,-5.0896,0.0,0.0,0.0,0.0,-4.8309,-4.7857,-4.7757,-4.6677,-4.5949,-4.5472,-4.5447,-4.507,-4.4618,0.0,0.0,0.0,0.0,0.0,0.0,0.0,0.0,0.0,0.0,0.0,-4.2219,-4.3538,-4.3673,0.0,0.0,0.0,0.0,0.0,0.0,0.0,0.0,0.0,0.0,0.0,0.0,0.0,-4.2895,-4.4012,-4.506,-4.6007,-4.6177,0.0,0.0,0.0,0.0,0.0,0.0,0.0,0.0,0.0,0.0,0.0,0.0,0.0,0.0,-3.8843,-3.8286,0.0,0.0,0.0,0.0,0.0,0.0,0.0,0.0,-3.5654,-3.5029,-3.4208,0.0,-3.37,-3.3275,-3.333,-3.3319,0.0,0.0,0.0,0.0,0.0,0.0,0.0,-3.502,-3.6068,-3.7768,-3.8054,-3.8923,0.0,0.0,0.0,0.0,0.0,0.0,0.0,0.0,0.0,0.0,0.0,-5.4762,-5.4762,-5.4084,-5.3507,-5.313,-5.4241,-5.4164,-5.2929,-5.2929,-5.2929,-5.2929,-5.2503,-5.2,-5.1448,-5.087,-5.0318,0.0,0.0,0.0,-4.8887,-4.7782,-4.7305,-4.7205,-4.61,-4.5598,-4.5422,-4.4995,-4.4744,-4.4568,0.0,0.0,0.0,0.0,0.0,0.0,0.0,0.0,0.0,0.0,0.0,0.0,0.0,0.0,0.0,0.0,0.0,0.0,0.0,0.0,0.0,0.0,0.0,0.0,0.0,0.0,0.0,0.0,0.0,-4.6346,0.0,0.0,0.0,0.0,0.0,0.0,0.0,0.0,0.0,0.0,-4.3037,0.0,0.0,0.0,0.0,0.0,-3.8455,-3.7943,0.0,-3.7058,-3.697,-3.6975,0.0,0.0,0.0,0.0,-3.6357,-3.5812,-3.5461,-3.4353,-3.3169,-3.2577,-3.2644,-3.2631,0.0,0.0,0.0,0.0,0.0,0.0,0.0,0.0,0.0,-3.8635,-3.9407,0.0,0.0,0.0,0.0,0.0,0.0,0.0,0.0,0.0,0.0,0.0,0.0,-5.4838,-5.4587,-5.4009,-5.3582,-5.3281,-5.3938,-5.381,-5.2929,-5.3674,-5.3547,-5.2553,-5.2251,-5.1674,-5.087,-5.0569,-4.9967,0.0,0.0,0.0,-4.8435,-4.8141,-4.7688,-4.7029,-4.6703,-4.5999,-4.502,-4.4443,-4.4091,-4.379,0.0,0.0,0.0,0.0,0.0,0.0,0.0,0.0,0.0,0.0,0.0,0.0,0.0,0.0,0.0,0.0,0.0,0.0,0.0,0.0,0.0,0.0,0.0,0.0,0.0,0.0,0.0,0.0,0.0,0.0,0.0,0.0,-4.7902,0.0,0.0,0.0,0.0,0.0,0.0,0.0,-4.3598,0.0,0.0,0.0,0.0,0.0,0.0,0.0,0.0,-3.6631,-3.6746,-3.6863,-3.6863,0.0,0.0,0.0,0.0,0.0,-3.6962,-3.5635,-3.4041,-3.3224,-3.3036,-3.282,-3.226,0.0,0.0,0.0,0.0,0.0,0.0,0.0,0.0,0.0,0.0,0.0,0.0,0.0,0.0,0.0,0.0,0.0,0.0,0.0,0.0,0.0,0.0,-5.5064,-5.4587,-5.4009,-5.3658,-5.3582,-5.3655,-5.3563,-5.3291,-5.4675,-5.4256,-5.2101,-5.2514,-5.2037,-5.0785,-5.0944,-5.0512,-4.9594,0.0,0.0,-4.8672,-4.9272,-4.8773,-4.7675,-4.7889,-4.6787,-4.5183,-4.4546,-4.3959,-4.3373,0.0,0.0,0.0,0.0,0.0,0.0,0.0,0.0,0.0,0.0,0.0,0.0,0.0,0.0,0.0,0.0,0.0,0.0,0.0,0.0,0.0,0.0,0.0,0.0,0.0,0.0,0.0,0.0,0.0,0.0,-4.9898,-4.9187,-4.7834,0.0,0.0,0.0,0.0,-4.3103,-4.3373,-4.393,-4.3443,0.0,0.0,0.0,0.0,0.0,0.0,0.0,0.0,-3.6258,-3.6858,-3.7556,-3.7556,0.0,0.0,0.0,0.0,0.0,-3.8743,-3.8322,-3.7484,-3.6089,-3.5717,-3.5312,-3.4037,0.0,0.0,0.0,0.0,0.0,0.0,0.0,0.0,0.0,0.0,0.0,0.0,0.0,0.0,0.0,0.0,0.0,0.0,0.0,0.0,0.0,0.0,-5.4662,-5.4561,-5.4009,-5.3507,-5.3055,-5.5762,-5.6466,-5.5049,-5.5287,-5.4256,-5.2101,-5.4485,-5.4504,-5.2455,-5.332,-5.3724,-5.3479,0.0,-5.1898,-5.1734,-5.0843,-5.0405,-5.0072,-4.9091,-4.8571,-4.8137,-4.7019,-4.6152,-4.5267,0.0,0.0,0.0,0.0,0.0,0.0,0.0,0.0,0.0,0.0,0.0,0.0,0.0,0.0,0.0,0.0,0.0,0.0,0.0,0.0,0.0,0.0,0.0,0.0,0.0,0.0,0.0,0.0,0.0,-4.8917,-5.0676,-4.9932,-4.8646,-4.6819,0.0,0.0,0.0,-4.3272,-4.328,-4.3772,0.0,0.0,0.0,0.0,0.0,0.0,0.0,0.0,0.0,0.0,-3.6959,-3.7631,-3.7961,0.0,0.0,0.0,0.0,0.0,-3.9959,-3.9838,-3.947,-3.9703,-3.8663,-3.731,-3.632,0.0,0.0,0.0,0.0,0.0,0.0,0.0,0.0,0.0,0.0,0.0,0.0,0.0,0.0,0.0,0.0,0.0,0.0,0.0,0.0,0.0,0.0,0.0,-5.5538,-5.4087,-5.3544,-5.4164,-5.5814,-5.6699,-5.6828,-5.7394,-5.6549,-5.4383,-5.5251,-5.5017,-5.3714,-5.4166,-5.4027,-5.3337,0.0,-5.2121,-5.1598,-5.1843,-5.1176,-5.0133,-5.0101,-4.933,-4.831,-4.7426,-4.6708,-4.6027,0.0,0.0,0.0,0.0,0.0,0.0,0.0,0.0,0.0,0.0,0.0,0.0,0.0,0.0,0.0,0.0,0.0,0.0,0.0,0.0,0.0,0.0,0.0,0.0,0.0,0.0,0.0,-4.6481,-4.8342,-4.983,-5.0947,-5.0541,-4.939,0.0,0.0,0.0,0.0,-4.3404,-4.3123,-4.3323,0.0,0.0,0.0,0.0,0.0,0.0,0.0,0.0,0.0,0.0,0.0,0.0,0.0,0.0,0.0,-3.9469,-3.9384,-3.9668,-4.0859,-4.0772,-4.0771,-4.2498,-4.1255,-3.9513,-3.889,0.0,0.0,0.0,0.0,0.0,0.0,0.0,0.0,0.0,0.0,0.0,0.0,0.0,0.0,0.0,0.0,0.0,0.0,0.0,0.0,0.0,0.0,0.0,-5.6957,-5.5121,-5.4701,-5.5945,-5.644,-5.7213,-5.8606,-5.9463,-5.8622,-5.6182,-5.6129,-5.5575,-5.4781,-5.5131,-5.4627,-5.3529,-5.3529,-5.2909,-5.2004,-5.2953,-5.234,-5.0819,-5.1222,-5.0226,-4.8658,-4.8038,-4.7715,-4.7377,0.0,0.0,0.0,0.0,0.0,0.0,0.0,0.0,0.0,0.0,0.0,0.0,0.0,0.0,0.0,0.0,0.0,0.0,0.0,0.0,0.0,0.0,0.0,0.0,0.0,-4.636,-4.7327,-4.8748,-4.9593,-5.0067,-5.0168,-5.0845,-4.9593,-4.6853,0.0,0.0,0.0,-4.3881,-4.341,-4.2772,-4.198,0.0,0.0,0.0,0.0,0.0,0.0,0.0,0.0,0.0,0.0,0.0,0.0,0.0,-4.0217,-3.9589,-3.9858,-4.0487,-4.1175,-4.1232,-4.1477,-4.3434,-4.2912,0.0,-4.2038,-4.2351,0.0,-4.2709,0.0,0.0,0.0,0.0,0.0,0.0,0.0,0.0,0.0,0.0,0.0,0.0,0.0,0.0,0.0,0.0,0.0,0.0,0.0,0.0,-5.8686,-5.7953,-5.7751,-5.7878,-5.9352,-6.0237,-6.0359,-6.0789,-5.9306,-5.6182,-5.7997,-5.7651,-5.5619,-5.7143,-5.7434,-5.675,-5.675,-5.6363,-5.5781,-5.4559,-5.4022,-5.3744,-5.2562,-5.1667,-5.0887,-5.0232,-5.0351,-5.0461,0.0,0.0,0.0,0.0,0.0,0.0,0.0,0.0,0.0,0.0,0.0,0.0,0.0,0.0,0.0,0.0,0.0,0.0,0.0,0.0,0.0,0.0,0.0,-4.5038,-4.5727,-4.6472,-4.753,-4.9018,-5.0676,-5.1454,-5.1454,-5.1285,0.0,0.0,0.0,0.0,0.0,-4.4271,-4.3629,-4.2585,-4.1491,-4.0696,0.0,0.0,0.0,0.0,0.0,0.0,0.0,0.0,-3.7225,-3.7674,0.0,-3.9978,-4.0427,-4.0606,-4.0816,-4.1145,-4.1803,-4.2127,-4.2743,-4.4763,0.0,0.0,0.0,0.0,-4.6316,-4.5885,-4.7118,0.0,0.0,0.0,0.0,0.0,0.0,0.0,0.0,0.0,0.0,0.0,0.0,0.0,0.0,0.0,0.0,0.0,0.0,0.0,-6.1033,-5.9164,-5.8509,-5.9475,-6.0237,-6.0816,-6.1438,-6.1184,-6.0096,-5.8056,-5.8347,-5.7999,-5.7163,-5.7451,-5.7124,-5.6526,-5.6526,-5.6166,-5.5508,-5.4581,-5.3952,-5.3443,-5.2097,-5.1439,-5.1139,-5.0481,-5.0661,-5.0986,0.0,0.0,0.0,0.0,0.0,0.0,0.0,0.0,0.0,0.0,0.0,0.0,0.0,0.0,0.0,0.0,0.0,0.0,0.0,0.0,0.0,0.0,0.0,-4.4688,-4.5703,-4.6413,-4.7631,-4.9357,-5.1319,-5.2198,-5.1961,0.0,0.0,0.0,0.0,0.0,0.0,0.0,-4.3518,-4.2238,-4.1341,-4.0747,0.0,0.0,0.0,0.0,0.0,0.0,0.0,0.0,-3.7584,0.0,0.0,0.0,0.0,0.0,-4.1534,-4.1803,-4.2252,-4.2742,-4.3596,0.0,0.0,0.0,0.0,0.0,0.0,0.0,-5.2305,0.0,0.0,0.0,0.0,0.0,0.0,0.0,0.0,0.0,0.0,0.0,0.0,0.0,0.0,0.0,0.0,0.0,0.0,0.0,0.0,-6.084,-6.0144,-6.1258,-6.1377,-6.1586,-6.2091,-6.1433,-6.0446,-5.9099,-5.8231,-5.7693,-5.7483,-5.7034,-5.6466,-5.5867,-5.6077,-5.5807,-5.5149,-5.4491,-5.3683,-5.2755,-5.1648,-5.1079,-5.084,-5.0421,-5.0391,-5.0541,0.0,0.0,0.0,0.0,0.0,0.0,0.0,0.0,0.0,0.0,0.0,0.0,0.0,0.0,0.0,0.0,0.0,0.0,0.0,0.0,0.0,0.0,0.0,-4.4113,-4.5635,-4.6413,-4.7868,-5.0101,-5.1555,-5.1928,-5.1183,-5.0439,0.0,0.0,0.0,0.0,0.0,0.0,-4.3041,-4.1586,-4.1527,-4.1199,-4.0631,0.0,0.0,0.0,0.0,0.0,0.0,0.0,-3.7973,-3.7764,0.0,0.0,0.0,0.0,-4.1863,-4.2372,-4.2372,-4.2851,-4.3988,0.0,0.0,0.0,0.0,0.0,0.0,0.0,0.0,0.0,-5.8485,0.0,0.0,0.0,0.0,0.0,0.0,0.0,0.0,0.0,0.0,0.0,0.0,0.0,0.0,0.0,0.0,0.0,0.0,-6.3408,-6.3079,-6.3079,-6.3079,-6.275,-6.2091,-6.1433,-6.0416,-5.9069,-5.7723,-5.6765,-5.6166,-5.6166,-5.5807,-5.5239,-5.5867,-5.5777,-5.5149,-5.4461,-5.3414,-5.2127,-5.1468,-5.081,-5.0242,-5.0242,-4.9823,-4.9254,0.0,0.0,0.0,0.0,0.0,0.0,0.0,0.0,0.0,0.0,0.0,0.0,0.0,0.0,0.0,0.0,0.0,0.0,0.0,0.0,0.0,0.0,0.0,0.0,0.0,0.0,-4.8409,-5.0101,-5.1048,-5.115,0.0,0.0,0.0,-4.8433,0.0,0.0,0.0,0.0,-4.3741,-4.2705,-4.1688,-4.1298,-4.1384,0.0,0.0,0.0,0.0,0.0,0.0,0.0,0.0,0.0,0.0,0.0,0.0,-4.2491,-4.288,-4.303,-4.303,-4.3539,0.0,0.0,0.0,0.0,0.0,0.0,0.0,0.0,0.0,0.0,0.0,0.0,0.0,0.0,0.0,0.0,0.0,0.0,0.0,0.0,0.0,0.0,0.0,0.0,0.0,0.0,0.0,0.0,0.0,-6.3408,-6.3079,-6.3079,-6.263,-6.2061,-6.1403,-6.0266,-5.9009,-5.7693,-5.6855,-5.6346,-5.6166,-5.5688,-5.5388,-5.5179,-5.491,-5.494,-5.5089,-5.3952,-5.2695,-5.1439,-5.078,-5.0421,-5.0122,-4.9194,-4.9045,-4.9194,0.0,0.0,0.0,0.0,0.0,0.0,0.0,0.0,0.0,0.0,0.0,0.0,0.0,0.0,0.0,0.0,0.0,0.0,0.0,0.0,0.0,0.0,0.0,0.0,0.0,-4.6549,-4.7902,0.0,0.0,0.0,0.0,0.0,0.0,-4.8547,0.0,-4.7342,0.0,0.0,-4.3453,-4.2505,-4.1698,-4.1624,-4.1926,0.0,0.0,0.0,0.0,0.0,0.0,0.0,0.0,0.0,0.0,0.0,0.0,-4.288,-4.315,-4.312,-4.3898,0.0,0.0,0.0,0.0,0.0,0.0,0.0,0.0,0.0,0.0,0.0,0.0,0.0,0.0,0.0,0.0,0.0,0.0,0.0,0.0,0.0,0.0,0.0,0.0,0.0,0.0,0.0,0.0,0.0,0.0,-6.3408,-6.2959,-6.269,-6.2301,-6.1523,-6.0326,-5.9518,-5.8291,-5.6705,-5.6077,-5.5658,-5.5388,-5.497,-5.494,-5.5149,-5.4491,-5.4281,-5.4311,-5.3234,-5.2336,-5.1498,-5.0601,-5.0062,-4.9733,-4.8686,-4.8386,-4.8446,0.0,0.0,0.0,0.0,0.0,0.0,0.0,0.0,0.0,0.0,0.0,0.0,0.0,0.0,0.0,0.0,0.0,0.0,0.0,0.0,0.0,0.0,0.0,0.0,0.0,0.0,0.0,0.0,0.0,0.0,0.0,0.0,-4.7972,-4.8523,0.0,-4.7043,0.0,0.0,-4.2864,-4.1792,-4.1863,-4.2198,-4.2617,-4.2617,0.0,0.0,0.0,0.0,0.0,0.0,0.0,0.0,0.0,0.0,-4.0846,-4.2701,-4.288,-4.288,0.0,0.0,0.0,0.0,0.0,0.0,0.0,0.0,0.0,0.0,0.0,0.0,0.0,0.0,0.0,0.0,0.0,0.0,0.0,0.0,0.0,0.0,0.0,0.0,0.0,0.0,0.0,0.0,0.0,0.0,0.0,-6.3288,-6.269,-6.2032,-6.1882,-6.0954,-5.9129,-5.886,-5.7842,-5.6077,-5.5359,-5.47,-5.4132,-5.4132,-5.4401,-5.488,-5.4341,-5.3683,-5.2965,-5.2426,-5.2157,-5.1977,-5.0661,-4.9793,-4.9164,-4.8446,-4.7818,-4.7309,0.0,0.0,0.0,0.0,0.0,0.0,0.0,0.0,0.0,0.0,0.0,0.0,0.0,0.0,0.0,0.0,0.0,0.0,0.0,0.0,0.0,0.0,0.0,0.0,0.0,0.0,0.0,0.0,0.0,0.0,0.0,0.0,0.0,-4.9926,0.0,-4.741,0.0,0.0,-4.4071,-4.4118,-4.3451,-4.3547,-4.4129,-4.3976,-4.3594,0.0,0.0,0.0,0.0,0.0,0.0,0.0,-4.1115,-4.1175,-4.1354,-4.2282,-4.2851,-4.3449,0.0,0.0,0.0,0.0,0.0,0.0,0.0,0.0,0.0,0.0,0.0,0.0,0.0,0.0,0.0,0.0,0.0,0.0,0.0,0.0,0.0,0.0,0.0,0.0,0.0,0.0,0.0,0.0,0.0,0.0,-6.254,-6.2391,-6.2002,-6.1343,-6.0296,-5.9548,-5.9099,-5.7064,-5.5807,0.0,-5.4192,-5.3533,-5.3414,-5.3414,-5.3204,-5.2875,-5.3234,-5.2725,-5.1678,-5.2037,-5.1887,-5.1289,-5.0002,-4.9374,-4.9134,-4.7967,-4.7429,-4.7309,0.0,0.0,0.0,0.0,0.0,0.0,0.0,0.0,0.0,0.0,0.0,0.0,0.0,0.0,0.0,0.0,0.0,0.0,0.0,0.0,0.0,0.0,0.0,0.0,0.0,0.0,0.0,0.0,0.0,0.0,0.0,0.0,0.0,-4.9691,0.0,-4.7394,0.0,0.0,-4.3934,-4.3998,-4.351,-4.3758,-4.4304,-4.4154,-4.3605,-4.2904,-4.2864,0.0,0.0,0.0,0.0,0.0,0.0,0.0,-4.1564,-4.2551,-4.309,-4.3718,0.0,0.0,0.0,0.0,0.0,0.0,0.0,0.0,0.0,0.0,0.0,0.0,0.0,0.0,0.0,0.0,0.0,0.0,0.0,0.0,0.0,0.0,0.0,0.0,0.0,0.0,0.0,0.0,0.0,-6.2331,-6.1672,-6.1613,-6.1164,-6.0176,-5.9458,-5.865,-5.7723,-5.6017,-5.5029,-5.47,-5.3354,-5.2546,-5.2247,-5.2905,-5.2665,-5.1768,-5.2426,-5.1977,-5.078,-5.1109,-5.087,-5.0182,-4.9194,-4.8805,-4.8686,-4.7668,-4.7309,-4.7309,0.0,0.0,0.0,0.0,0.0,0.0,0.0,0.0,0.0,0.0,0.0,0.0,0.0,0.0,0.0,0.0,0.0,0.0,0.0,0.0,0.0,0.0,0.0,0.0,0.0,0.0,0.0,0.0,0.0,0.0,0.0,0.0,0.0,-4.9192,0.0,0.0,0.0,0.0,-4.3623,-4.3553,-4.3553,-4.3835,-4.4315,-4.4153,-4.3562,-4.2819,-4.286,-4.2834,-4.265,-4.2496,0.0,0.0,0.0,0.0,-4.1773,-4.2851,-4.3269,-4.3778,0.0,0.0,0.0,0.0,0.0,0.0,0.0,0.0,0.0,0.0,0.0,0.0,0.0,0.0,0.0,0.0,0.0,0.0,0.0,0.0,0.0,0.0,0.0,0.0,0.0,0.0,0.0,0.0,0.0,-6.1642,-6.0984,-6.0835,-6.0206,-5.8949,-5.871,-5.7752,-5.6017,-5.5239,-5.4521,-5.3832,-5.2606,-5.1678,-5.1079,-5.2187,-5.2067,-5.1079,-5.1498,-5.1079,-5.0062,-5.0062,-4.9763,-4.9194,-4.8536,-4.8297,-4.8207,-4.7549,-4.7309,-4.7309,0.0,0.0,0.0,0.0,0.0,0.0,0.0,0.0,0.0,0.0,0.0,0.0,0.0,0.0,0.0,0.0,0.0,0.0,-4.0138,0.0,0.0,-4.4654,-4.5432,0.0,0.0,0.0,0.0,0.0,0.0,0.0,0.0,0.0,0.0,-5.0124,0.0,0.0,0.0,0.0,-4.5085,-4.5359,-4.5459,-4.5271,-4.5081,-4.543,-4.4866,-4.3817,-4.3216,-4.3033,-4.3031,-4.2727,-4.2887,0.0,0.0,0.0,-4.2252,-4.2432,-4.291,-4.3658,0.0,0.0,0.0,0.0,0.0,0.0,0.0,0.0,0.0,0.0,0.0,0.0,0.0,0.0,0.0,0.0,0.0,0.0,0.0,0.0,0.0,0.0,0.0,0.0,0.0,0.0,0.0,0.0,-6.1246,-6.0984,-6.0275,-5.9727,-5.8979,-5.8248,-5.7124,-5.6166,-5.5329,-5.4072,-5.3114,-5.2456,-5.1708,-5.102,-5.0361,-5.0541,-5.0541,-5.0331,-4.9883,-4.9553,-4.9404,-4.9404,-4.9344,-4.9194,-4.8536,-4.8297,-4.8207,-4.7549,-4.7309,-4.7309,0.0,0.0,0.0,0.0,0.0,0.0,0.0,0.0,0.0,0.0,0.0,0.0,0.0,0.0,0.0,-4.1526,-4.0871,-4.0387,-4.0138,-4.1068,-4.2354,-4.3876,-4.4654,-4.5263,0.0,0.0,0.0,0.0,0.0,0.0,0.0,-4.845,-4.9816,0.0,0.0,0.0,0.0,0.0,0.0,-4.5636,-4.616,-4.6027,-4.5596,-4.5996,-4.5471,-4.4391,-4.3504,-4.3304,-4.3302,-4.2773,-4.2917,-4.3269,-4.3,0.0,0.0,0.0,-4.3359,0.0,0.0,0.0,0.0,0.0,0.0,0.0,0.0,0.0,0.0,0.0,0.0,0.0,0.0,0.0,0.0,0.0,0.0,0.0,0.0,0.0,0.0,0.0,0.0,0.0,0.0,0.0,0.0,0.0,-6.0296,-5.9937,-5.856,-5.853,-5.8082,-5.7109,-5.6077,-5.5299,-5.464,-5.3294,-5.2127,-5.1109,-5.081,-5.0331,-4.9673,-4.9314,-4.9344,-4.9673,-4.9404,-4.9075,-4.8716,-4.8716,-4.8506,-4.8147,-4.7848,-4.7728,-4.7698,-4.7429,-4.7309,-4.7309,0.0,0.0,0.0,0.0,0.0,0.0,0.0,0.0,0.0,0.0,0.0,0.0,0.0,0.0,0.0,0.0,-4.1181,-4.0534,-4.0138,-4.0798,-4.1779,-4.3064,-4.3876,-4.4654,-4.5399,0.0,0.0,0.0,0.0,0.0,-4.8748,-4.9323,-5.1425,0.0,-5.3432,0.0,0.0,0.0,0.0,0.0,-4.6832,-4.6562,-4.5863,-4.651,-4.619,-4.5245,-4.405,-4.3787,-4.3963,-4.2986,-4.3025,-4.3488,-4.3488,-4.3488,0.0,0.0,0.0,0.0,0.0,0.0,0.0,0.0,0.0,0.0,0.0,0.0,0.0,0.0,0.0,0.0,0.0,0.0,0.0,0.0,0.0,0.0,0.0,0.0,0.0,0.0,0.0,0.0,0.0,0.0,0.0,0.0,-5.9159,-5.868,-5.7139,-5.7453,-5.7064,-5.6011,-5.534,-5.4461,-5.3473,-5.2127,-5.096,-5.0002,-5.0002,-4.9643,-4.9015,-4.8506,-4.8446,-4.8775,-4.8775,-4.8506,-4.8027,-4.8027,-4.7758,-4.7309,-4.7309,-4.7309,-4.7309,-4.7309,-4.7309,-4.7309,0.0,0.0,0.0,0.0,0.0,0.0,0.0,0.0,0.0,0.0,0.0,0.0,-4.3883,-4.4049,-4.3437,-4.1429,-4.0918,-4.0534,-4.0138,-4.0798,-4.1542,-4.232,-4.3064,0.0,-4.4621,0.0,0.0,0.0,0.0,0.0,-4.8037,-5.0135,-5.3112,-5.6558,-5.4932,-5.3646,-5.2566,0.0,0.0,0.0,0.0,0.0,0.0,0.0,-4.7378,-4.6772,-4.4784,-4.4744,-4.5425,-4.3622,-4.3441,-4.3988,-4.3988,-4.3988,-4.3988,0.0,0.0,0.0,0.0,0.0,0.0,0.0,0.0,0.0,0.0,0.0,0.0,0.0,0.0,0.0,0.0,0.0,0.0,0.0,0.0,0.0,0.0,0.0,0.0,0.0,0.0,0.0,0.0,0.0,0.0,0.0,-5.7603,-5.7169,-5.7153,-5.6571,-5.6011,-5.5258,-5.463,-5.3324,-5.1409,-5.0062,-4.9374,-4.9314,-4.9314,-4.8985,-4.8327,-4.8297,-4.7967,-4.7399,-4.7399,-4.7399,-4.7369,-4.7369,-4.7339,-4.7309,-4.7309,-4.7309,-4.7309,-4.7309,-4.7309,-4.7309,0.0,0.0,0.0,0.0,0.0,0.0,0.0,0.0,0.0,0.0,0.0,0.0,0.0,-4.5378,-4.4349,-4.3296,-4.1801,-4.081,-4.0485,-4.0759,-4.1341,-4.2411,-4.2664,-4.341,-4.4553,0.0,0.0,0.0,0.0,-4.4485,-4.7936,-4.9221,-5.2063,-5.6122,-5.595,-5.5171,-5.3887,-5.2606,0.0,0.0,0.0,0.0,0.0,0.0,0.0,-4.9191,-4.7144,-4.6957,-4.7444,-4.5939,-4.5428,-4.5417,-4.5295,-4.4987,-4.4692,-4.4692,-4.4692,0.0,0.0,0.0,0.0,0.0,0.0,0.0,0.0,0.0,0.0,0.0,0.0,0.0,0.0,0.0,0.0,0.0,0.0,0.0,0.0,0.0,0.0,0.0,0.0,0.0,0.0,0.0,0.0,0.0,0.0,-5.6585,-5.5317,-5.5478,-5.507,-5.3939,-5.3301,-5.2157,-5.0601,-4.9703,-4.9045,-4.8626,-4.8626,-4.8297,-4.7668,-4.7668,-4.7519,-4.7309,-4.7309,-4.7309,-4.7309,-4.7309,-4.7309,-4.7309,-4.7309,-4.7309,-4.7309,-4.7309,-4.7309,-4.7309,0.0,0.0,0.0,0.0,0.0,0.0,0.0,0.0,0.0,0.0,0.0,0.0,0.0,0.0,-4.5107,-4.4289,-4.259,-4.1522,-4.1202,-4.0913,-4.1283,-4.2516,-4.2532,-4.3192,-4.4553,0.0,0.0,0.0,0.0,0.0,0.0,-4.8071,-5.0507,-5.3856,-5.4871,-5.4905,0.0,0.0,0.0,-4.9052,0.0,0.0,-4.9086,0.0,0.0,0.0,-4.9559,-4.9571,-5.0269,-4.8381,-4.7553,-4.7253,-4.6881,-4.619,-4.5478,-4.5478,-4.5478,0.0,0.0,0.0,0.0,0.0,0.0,0.0,0.0,0.0,0.0,0.0,0.0,0.0,0.0,0.0,0.0,0.0,0.0,0.0,0.0,0.0,0.0,0.0,0.0,0.0,0.0,0.0,0.0,0.0,0.0,0.0,-5.3922,-5.4281,-5.3892,-5.2576,-5.1468,-5.0451,-4.9583,-4.8925,-4.8386,-4.7967,-4.7967,-4.7728,-4.7309,-4.7309,-4.7309,-4.7309,-4.7309,-4.7309,-4.7309,-4.7309,-4.7309,-4.7309,-4.7309,-4.7309,-4.7309,-4.7309,-4.7309,-4.7309,0.0,0.0,0.0,0.0,0.0,0.0,0.0,0.0,0.0,-4.6067,0.0,0.0,0.0,0.0,0.0,-4.4279,-4.33,-4.2568,-4.2263,-4.1345,-4.1429,-4.2638,-4.2584,-4.3192,-4.4553,0.0,0.0,0.0,0.0,0.0,0.0,0.0,-4.8578,0.0,-5.1522,-5.2604,-5.3281,0.0,-5.1048,-4.9086,0.0,-4.9729,-4.9323,0.0,0.0,0.0,-5.1988,-5.2528,-5.3964,-5.0801,-4.9748,-4.962,-4.8817,-4.7525,-4.6372,-4.6372,-4.6372,0.0,0.0,0.0,0.0,0.0,0.0,0.0,0.0,0.0,0.0,0.0,0.0,0.0,0.0,0.0,0.0,0.0,0.0,0.0,0.0,0.0,0.0,0.0,0.0,0.0,0.0,0.0,0.0,0.0,-5.3922,-5.3174,-5.3114,-5.3084,-5.2486,-5.1199,-4.9284,-4.8297,-4.8297,-4.7638,-4.7309,-4.7309,-4.7309,-4.7309,-4.7309,-4.7309,-4.7309,-4.7309,-4.7309,-4.7309,-4.7309,-4.7309,-4.7309,-4.7309,-4.7309,-4.7309,-4.7309,-4.7309,-4.7309,-4.7309,0.0,0.0,0.0,0.0,0.0,0.0,0.0,0.0,0.0,0.0,0.0,0.0,-4.9168,-4.8592,-4.7542,-4.5917,-4.5423,-4.4599,-4.3112,-4.2661,-4.2649,-4.2978,-4.2894,-4.3352,-4.4553,0.0,0.0,0.0,0.0,0.0,0.0,0.0,0.0,0.0,-4.8477,-4.8951,-4.8815,-5.1251,0.0,0.0,-5.0608,-5.1082,0.0,0.0,0.0,0.0,0.0,-5.6895,-5.7863,-5.6316,-5.4995,-5.3494,-5.0626,-4.9082,-4.8228,-4.7668,-4.7504,-4.747,-4.7293,0.0,0.0,0.0,0.0,0.0,0.0,0.0,0.0,0.0,0.0,0.0,0.0,0.0,0.0,0.0,0.0,0.0,0.0,0.0,0.0,0.0,0.0,0.0,0.0,0.0,0.0,0.0,-5.3683,-5.2755,-5.1828,-5.087,-5.0182,-4.9823,-4.8805,-4.8297,-4.8297,-4.7638,-4.7309,-4.7309,-4.7309,-4.7309,-4.7309,-4.7309,-4.7309,-4.7309,-4.7309,-4.7309,-4.7309,-4.7309,-4.7309,-4.7309,-4.7309,-4.7309,-4.7309,-4.7309,-4.7309,-4.7309,0.0,0.0,0.0,0.0,0.0,0.0,0.0,0.0,-4.882,0.0,0.0,0.0,0.0,-4.9956,-4.9089,-4.8104,-4.7211,-4.6061,-4.4543,-4.3571,-4.2903,-4.2694,-4.2739,-4.3234,-4.4079,0.0,0.0,0.0,0.0,0.0,0.0,0.0,0.0,0.0,0.0,0.0,0.0,0.0,0.0,0.0,-5.1014,0.0,0.0,-5.504,-5.7273,0.0,0.0,0.0,-6.177,-6.0315,-5.8318,-5.5896,-5.2757,-5.1092,-5.0026,-4.8928,-4.8662,-4.8563,-4.8266,-4.8956,0.0,0.0,0.0,0.0,-5.0308,-4.939,0.0,0.0,0.0,0.0,0.0,0.0,0.0,0.0,0.0,0.0,0.0,0.0,0.0,0.0,0.0,0.0,0.0,0.0,0.0,-5.3414,-5.2486,-5.1498,-5.0451,-4.9434,-4.8865,-4.8865,-4.7967,-4.7608,-4.7878,-4.7219,-4.689,-4.689,-4.689,-4.689,-4.689,-4.689,-4.704,-4.7309,-4.7309,-4.7309,-4.7309,-4.7309,-4.7309,-4.7309,-4.7309,-4.7309,-4.7309,-4.7309,-4.7309,-4.7309,0.0,0.0,0.0,0.0,0.0,0.0,0.0,0.0,-5.1206,0.0,0.0,0.0,0.0,-5.0873,-5.0714,-5.0605,-4.8901,-4.7306,-4.6227,-4.4254,-4.2833,-4.2272,-4.2533,-4.2925,-4.3403,-4.4181,0.0,0.0,0.0,0.0,0.0,0.0,0.0,0.0,0.0,0.0,0.0,0.0,0.0,-4.8071,-5.1082,-5.2942,0.0,0.0,-6.0182,-6.1772,-6.2482,-6.4025,-6.5345,-6.3222,-6.0404,-5.7398,-5.5118,-5.3308,-5.1698,-5.0324,-4.9854,-4.9722,-4.9558,-5.0026,-5.0624,-5.073,-5.0582,0.0,-4.9384,-4.8009,-4.6719,0.0,0.0,0.0,0.0,0.0,0.0,0.0,0.0,0.0,0.0,0.0,0.0,0.0,0.0,0.0,0.0,-5.3743,-5.2695,-5.2037,-5.075,-4.9763,-4.9194,-4.8536,-4.8147,-4.8057,-4.692,-4.6561,-4.707,-4.6501,-4.6202,-4.6202,-4.6292,-4.6292,-4.6202,-4.6352,-4.6711,-4.7189,-4.7422,-4.7366,-4.7309,-4.7452,-4.7366,-4.7309,-4.7309,-4.7309,-4.7309,-4.7309,-4.7309,-4.7309,-5.0399,0.0,0.0,0.0,0.0,0.0,0.0,0.0,0.0,0.0,0.0,0.0,0.0,0.0,-5.3193,-5.2535,-5.0787,-4.8931,-4.714,-4.5213,-4.387,-4.3103,-4.2943,-4.303,-4.3403,-4.4181,-4.4485,0.0,0.0,0.0,0.0,0.0,0.0,0.0,0.0,0.0,0.0,0.0,0.0,-4.7327,-5.0879,0.0,-5.6427,-5.893,-6.1569,-6.4038,-6.4783,-6.6068,-6.7133,-6.5512,-6.3012,-6.0173,0.0,0.0,-5.2944,-5.2032,-5.1324,0.0,-5.069,-5.1228,-5.1698,-5.1422,-5.0852,0.0,-4.9834,-4.7744,-4.5998,0.0,0.0,0.0,0.0,0.0,0.0,0.0,0.0,0.0,0.0,0.0,0.0,0.0,0.0,0.0,0.0,-5.2366,-5.1319,-5.0661,-4.9404,-4.8626,-4.8476,-4.7848,-4.7249,-4.6741,-4.6471,-4.6112,-4.5693,-4.5574,-4.5514,-4.5514,-4.6052,-4.6022,-4.5544,-4.6621,-4.689,-4.6531,-4.7912,-4.8072,-4.7396,-4.8126,-4.8072,-4.7309,-4.7309,-4.7309,-4.7309,-4.7309,-4.7309,-4.7309,-5.0483,0.0,0.0,0.0,0.0,0.0,0.0,0.0,0.0,0.0,0.0,0.0,0.0,0.0,-5.4436,-5.3551,-5.2081,-5.0209,-4.7833,-4.6163,-4.4646,-4.3247,-4.3237,-4.3299,-4.3403,-4.4181,-4.4587,0.0,0.0,0.0,0.0,0.0,0.0,0.0,0.0,0.0,0.0,0.0,-4.6549,-4.8173,-5.1555,0.0,-5.6596,-5.9573,-6.2313,-6.4749,-6.5865,-6.6948,-6.7557,-6.5358,-6.3632,0.0,-5.8423,-5.6596,-5.548,0.0,-5.3213,-5.2435,0.0,0.0,0.0,-5.2771,-5.2066,0.0,0.0,-4.8332,-4.6585,0.0,0.0,0.0,0.0,0.0,0.0,0.0,0.0,0.0,0.0,0.0,0.0,0.0,0.0,0.0,0.0,-5.1109,-5.0331,-4.9344,-4.8656,-4.7997,-4.7339,-4.698,-4.6725,-4.6498,-4.6164,-4.5981,-4.6031,-4.5647,-4.5253,-4.4796,-4.5155,-4.5155,-4.4855,-4.5843,-4.6629,-4.7098,-4.8317,-4.8841,-4.8841,-4.8841,-4.8512,-4.7988,-4.7538,-4.7309,-4.7309,-4.7309,-4.7309,-4.7309,-5.0309,0.0,0.0,0.0,0.0,0.0,0.0,0.0,0.0,0.0,0.0,0.0,0.0,0.0,0.0,-5.5441,-5.3241,-5.1275,-4.9758,-4.7301,-4.5076,-4.3322,-4.361,-4.3613,-4.32,-4.4113,-4.4587,-4.4587,0.0,0.0,0.0,0.0,0.0,0.0,0.0,0.0,0.0,0.0,0.0,-4.9255,0.0,-5.4431,-5.6494,-5.981,-6.255,-6.4816,-6.644,-6.732,-6.732,-6.4952,-6.3869,-6.2854,-5.9066,-5.7881,0.0,0.0,0.0,0.0,0.0,0.0,0.0,0.0,0.0,-5.1866,0.0,0.0,0.0,0.0,0.0,0.0,0.0,0.0,0.0,0.0,0.0,0.0,0.0,0.0,0.0,0.0,0.0,0.0,0.0,-4.9942,-4.9249,-4.8278,-4.8188,-4.7704,-4.6645,-4.6584,-4.6712,-4.6765,-4.6282,-4.6188,-4.6593,-4.5911,-4.5156,-4.4429,-4.4458,-4.4436,-4.4347,-4.5341,-4.6458,-4.7632,-4.859,-4.9206,-4.9596,-4.8968,-4.85,-4.8275,-4.7563,-4.7309,-4.7309,-4.7309,-4.7309,-4.7309,-4.9248,-5.0354,0.0,0.0,0.0,0.0,0.0,0.0,0.0,0.0,0.0,0.0,0.0,0.0,0.0,0.0,0.0,0.0,-5.5187,-4.9153,-4.4992,-4.3852,-4.4286,-4.3885,-4.2455,-4.3842,-4.4587,-4.4587,0.0,0.0,0.0,0.0,0.0,0.0,-4.2557,0.0,0.0,0.0,-4.6989,0.0,-5.1522,-5.4532,0.0,-5.9573,-6.2042,-6.4884,-6.7015,-6.7421,-6.688,0.0,-6.5121,-6.3328,0.0,-5.9979,-5.7848,-5.7679,0.0,0.0,0.0,0.0,0.0,0.0,-5.345,0.0,0.0,0.0,-4.7659,-4.7502,0.0,0.0,0.0,0.0,0.0,0.0,0.0,0.0,0.0,0.0,0.0,0.0,0.0,0.0,0.0,0.0,-4.784,-4.7683,-4.7683,-4.762,-4.7464,-4.7707,-4.7616,-4.7171,-4.7075,-4.6789,-4.6287,-4.5383,-4.4861,-4.4709,-4.4992,-4.4885,-4.4347,-4.6498,-4.7256,-4.6888,-4.8771,-4.8657,-4.7169,-4.7985,-4.7621,-4.6641,-4.707,-4.7309,-4.7309,-4.7309,-4.7309,-4.7309,-4.8449,-4.9478,0.0,0.0,0.0,0.0,0.0,0.0,0.0,0.0,0.0,0.0,0.0,0.0,0.0,0.0,0.0,-5.5632,0.0,0.0,-4.823,-4.6453,-4.652,-4.5862,-4.4316,-4.4891,-4.5026,-4.4587,-4.4587,0.0,0.0,0.0,0.0,0.0,-4.4012,0.0,-4.4722,0.0,0.0,0.0,0.0,0.0,0.0,-5.8084,-6.0689,-6.3565,-6.5324,-6.5797,-6.5256,0.0,-6.2888,0.0,0.0,0.0,0.0,-5.8558,0.0,0.0,0.0,0.0,0.0,0.0,0.0,0.0,-5.1488,0.0,-4.9092,0.0,0.0,0.0,0.0,0.0,0.0,0.0,-4.905,0.0,0.0,0.0,0.0,0.0,0.0,0.0,0.0,0.0,0.0,0.0,-4.6856,-4.6443,-4.6031,-4.6598,-4.6859,-4.677,-4.7196,-4.7261,-4.7036,-4.6064,-4.5374,-4.4812,-4.4346,-4.4018,-4.3778,-4.566,-4.6764,-4.7193,-4.892,-4.9224,-4.8505,-4.8807,-4.8168,-4.721,-4.7267,-4.7309,-4.7309,-4.7309,-4.7309,-4.7309,-4.7388,-4.8343,0.0,0.0,0.0,0.0,0.0,0.0,0.0,0.0,0.0,0.0,-6.1704,-6.2375,0.0,0.0,-6.2335,-5.9574,0.0,0.0,-5.1264,-4.8489,-4.847,-4.7894,-4.6404,-4.6428,-4.6112,-4.5365,-4.5365,0.0,0.0,0.0,0.0,0.0,0.0,-4.594,-4.594,0.0,0.0,-5.0101,-5.23,-5.3754,-5.4871,-5.7509,-5.9979,-6.2245,-6.3531,-6.3869,-6.3362,-6.1163,-6.1028,0.0,-5.9201,0.0,0.0,0.0,0.0,0.0,-5.7509,0.0,0.0,0.0,0.0,0.0,0.0,0.0,0.0,0.0,0.0,0.0,0.0,0.0,0.0,-4.9135,0.0,-4.8591,0.0,0.0,0.0,0.0,0.0,0.0,0.0,0.0,0.0,-4.6856,-4.6302,-4.5818,-4.5301,-4.605,-4.6616,-4.6905,-4.7568,-4.7998,-4.7998,-4.7069,-4.6095,-4.5153,-4.4325,-4.3848,-4.3599,-4.5326,-4.6528,-4.7333,-4.8885,-4.9222,-4.8809,-4.8546,-4.7946,-4.7119,-4.687,-4.7121,-4.7679,-4.7679,-4.7538,-4.7309,-4.581,-4.6654,0.0,0.0,0.0,0.0,0.0,0.0,0.0,0.0,0.0,0.0,0.0,0.0,0.0,0.0,0.0,-6.3066,-6.393,0.0,-5.2841,0.0,-4.9882,-4.9637,-4.8141,-4.825,-4.7957,-4.7238,-4.7238,0.0,0.0,0.0,0.0,0.0,0.0,-4.753,-4.8883,-4.8951,-5.0236,-5.2198,-5.23,-5.3247,-5.5006,0.0,-6.0588,-6.1434,-6.2178,0.0,0.0,-6.1298,-6.0791,0.0,0.0,0.0,0.0,0.0,0.0,0.0,0.0,0.0,0.0,-5.6055,0.0,0.0,0.0,0.0,-5.0304,0.0,0.0,0.0,0.0,-5.0574,-5.0067,-5.0067,-4.8883,0.0,0.0,0.0,0.0,0.0,0.0,0.0,0.0,0.0,0.0,-4.638,-4.6313,-4.628,-4.6246,-4.7289,-4.7815,-4.7841,-4.8551,-4.8923,-4.8923,-4.8001,-4.7095,-4.6134,-4.5773,-4.5122,-4.4368,-4.6304,-4.7189,-4.7301,-4.8462,-4.8,-4.6308,-4.6269,-4.5921,-4.5417,-4.5364,-4.675,-4.8759,-4.8759,-4.8157,-4.7452,-4.5847,0.0,0.0,0.0,0.0,0.0,0.0,-5.6712,0.0,0.0,0.0,0.0,0.0,-7.0183,-7.1908,0.0,0.0,-6.8958,-6.8228,-6.3512,0.0,0.0,-5.6038,-5.4471,-5.2914,-5.1882,-5.0657,-4.9205,-4.8743,0.0,0.0,0.0,0.0,0.0,0.0,-4.8071,0.0,0.0,0.0,0.0,0.0,-5.3991,-5.5513,0.0,0.0,-5.849,-5.9708,-5.9674,0.0,-5.9607,-5.9268,-5.8626,-5.8626,-5.8457,-5.822,-5.7949,-5.7881,0.0,0.0,0.0,-5.778,-5.7273,0.0,0.0,0.0,0.0,0.0,0.0,0.0,0.0,0.0,-5.0913,-5.0101,-5.0101,-4.8849,-4.7733,0.0,0.0,0.0,0.0,0.0,0.0,0.0,0.0,0.0,-4.5226,-4.4653,-4.4384,-4.4384,-4.5713,-4.6684,-4.7158,-4.8376,-4.9018,-4.9018,-4.8098,-4.7439,-4.7104,-4.5793,-4.5246,-4.5614,-4.6271,-4.691,-4.7531,-4.855,-4.7933,-4.6237,-4.7093,-4.6593,-4.5394,-4.6292,-4.7509,-4.8841,-4.8841,-4.9004,-4.9407,-4.7168,0.0,0.0,0.0,0.0,0.0,0.0,0.0,0.0,0.0,-6.5191,0.0,-7.2055,0.0,-7.5469,0.0,-7.5479,-7.3284,-7.0408,-6.7859,0.0,-6.2444,-6.0592,-5.8969,-5.773,-5.5789,-5.3879,-5.1941,0.0,-5.03,0.0,0.0,0.0,0.0,0.0,0.0,0.0,0.0,-5.098,0.0,0.0,-5.3653,0.0,0.0,-5.5716,-5.6528,0.0,-5.7543,-5.7205,-5.7679,-5.7509,-5.7171,-5.7408,-5.7509,-5.7509,-5.7509,-5.7679,-5.7949,-5.8152,-5.8051,0.0,-5.7577,-5.6427,0.0,-5.4126,0.0,-5.2469,0.0,0.0,0.0,0.0,0.0,-5.0473,-5.0473,-4.8815,-4.7158,0.0,-4.5838,0.0,0.0,0.0,0.0,0.0,0.0,-4.55,-4.4248,-4.3436,-4.3132,0.0,0.0,-4.6041,-4.6786,-4.824,-4.9018,-4.9018,-4.8386,-4.7933,-4.7605,-4.634,-4.5913,-4.6244,-4.6523,-4.7036,-4.7671,-4.8576,-4.7933,-4.634,-4.7734,-4.7303,-4.6022,-4.7497,-4.8786,-4.9821,-4.9536,-5.0009,-5.0855,0.0,0.0,0.0,0.0,-5.1169,0.0,0.0,0.0,-6.2218,0.0,-6.71,-7.0073,-7.2532,-7.4221,-7.613,-7.8516,-7.8426,-7.6068,-7.105,-7.1072,0.0,0.0,-6.3529,-6.3127,-6.2403,-5.9951,-5.7611,-5.5401,0.0,0.0,0.0,0.0,0.0,0.0,-4.9195,0.0,-5.0101,-5.0101,-5.0541,-5.1285,-5.1961,-5.2266,-5.2266,-5.2266,-5.3585,-5.5513,-5.5581,-5.5581,-5.5547,-5.5649,-5.5683,-5.5784,-5.6461,-5.6731,-5.6765,-5.6799,-5.7306,-5.7712,-5.707,-5.7374,-5.7712,-5.707,0.0,0.0,0.0,0.0,-5.4431,0.0,0.0,0.0,0.0,0.0,0.0,-5.1183,-4.8748,-4.6346,-4.4891,0.0,-4.6075,0.0,0.0,0.0,0.0,-4.5466,-4.4248,-4.3436,-4.2692,0.0,0.0,0.0,-4.6041,-4.6786,-4.824,-4.9018,-4.9018,-4.9018,-4.8576,-4.7671,-4.7603,-4.7163,-4.6384,-4.7172,-4.7605,-4.7737,-4.8576,-4.7933,-4.641,-4.8042,-4.8047,-4.7092,-4.8783,-5.0464,-5.1776,-5.0855,-5.1155,-5.1849,-5.0472,-5.1426,-5.238,0.0,-5.3041,-5.3812,0.0,0.0,0.0,0.0,-7.011,-7.3634,-7.668,-7.7928,-7.9029,-8.0277,-7.9242,0.0,0.0,0.0,0.0,-7.1891,-6.9264,-6.768,-6.751,-6.3285,-6.1043,-6.0952,0.0,0.0,-5.3885,0.0,0.0,0.0,0.0,0.0,-5.0323,-5.0164,-5.0541,-5.1251,-5.142,-5.1488,0.0,0.0,-5.186,-5.2536,-5.3653,-5.3687,-5.3348,-5.4499,-5.4871,-5.4905,-5.5108,-5.5547,-5.6089,-5.663,-5.6934,-5.7273,-5.8186,-5.8186,-5.7983,-5.8355,-5.7611,-5.6697,0.0,0.0,0.0,0.0,0.0,0.0,0.0,0.0,0.0,-5.0473,-4.8849,-4.7293,-4.6346,0.0,0.0,-4.7597,0.0,-4.6786,-4.6786,-4.5466,-4.4012,-4.2692,-4.2388,0.0,0.0,0.0,0.0,-4.6786,-4.824,-4.9018,-4.9018,-4.9018,-4.8861,-4.8639,-4.7969,-4.7803,-4.8289,-4.7836,-4.7968,-4.8639,-4.8861,-4.8289,-4.7337,-4.8817,-4.8842,-4.8115,-4.9585,-5.0843,-5.1993,-5.2487,-5.287,-5.3041,-5.2307,0.0,0.0,-5.5317,0.0,0.0,-5.851,0.0,0.0,-6.7724,-7.1431,0.0,-7.5763,-7.8222,-7.9837,-7.9947,-7.9433,0.0,-7.8222,0.0,0.0,-7.4895,-7.2558,-7.0981,-7.0245,-6.5332,-6.2639,-6.2294,0.0,0.0,-5.4203,0.0,0.0,0.0,0.0,-4.8796,0.0,-4.946,-4.9746,-5.0299,-5.0299,0.0,0.0,-5.071,-5.0541,-5.0439,-5.1961,-5.2401,-5.2503,-5.3721,-5.4126,-5.416,-5.4499,-5.4871,-5.5378,-5.6122,-5.6325,-5.6494,-5.734,-5.7273,-5.7036,-5.7476,-5.7171,-5.663,-5.5987,-5.5784,-5.5412,0.0,0.0,-5.3754,0.0,0.0,0.0,-4.9357,-4.8443,-4.7665,-4.6887,0.0,0.0,0.0,-4.753,-4.7158,-4.6819,-4.5128,-4.3707,-4.2861,-4.2489,0.0,0.0,0.0,0.0,-4.6786,-4.8545,-4.9323,-4.9018,-4.9323,-4.9323,-4.8984,-4.8487,-4.8487,-4.9018,-4.8423,-4.8487,-4.9018,-4.9018,-4.8617,-4.8232,-4.9725,-5.001,-4.9588,-5.1132,-5.2098,-5.2627,-5.328,-5.3518,-5.3518,0.0,0.0,0.0,0.0,0.0,0.0,0.0,-6.4494,0.0,-6.9009,0.0,-7.3891,-7.323,-7.69,-7.925,-7.8662,0.0,-7.8589,-7.657,-7.7671,-7.7414,-7.5175,-7.4294,-7.3083,-7.1505,-6.6589,-6.3298,0.0,0.0,0.0,0.0,0.0,0.0,0.0,0.0,0.0,0.0,-4.8357,-4.8523,0.0,-4.8965,-4.9345,-4.983,-4.9898,-4.956,-4.9187,-5.0574,-5.1522,-5.23,-5.3213,-5.3518,-5.3619,-5.4262,-5.4465,-5.46,-5.5344,-5.5581,-5.5581,-5.5683,-5.5716,-5.5716,-5.5716,-5.619,-5.6325,-5.504,-5.5243,-5.531,-5.3923,-5.3653,-5.3382,0.0,0.0,0.0,0.0,0.0,0.0,0.0,0.0,0.0,0.0,0.0,0.0,-4.6853,-4.4823,-4.3538,-4.3436,0.0,0.0,0.0,0.0,0.0,-4.6786,-4.8748,-4.956,-4.9018,0.0,-4.9627,-4.9018,-4.9018,-4.9018,-4.9018,-4.912,-4.9154,-4.9154,-4.9154,-4.9083,-4.916,-5.0558,-5.1229,-5.1371,-5.2908,-5.3518,-5.3518,-5.3518,-5.3518,-5.3518,0.0,0.0,0.0,0.0,0.0,-6.5448,-6.8385,-6.9522,-7.0477,-7.1725,-7.4698,-7.6644,-7.6497,-7.7231,-7.7965,-7.8552,-7.8075,0.0,0.0,0.0,0.0,-7.5946,-7.5139,-7.3964,-7.2312,-6.7523,-6.4882,0.0,0.0,0.0,0.0,0.0,0.0,0.0,0.0,0.0,-4.7893,-4.767,0.0,-4.7602,-4.7954,-4.8173,-4.8376,-4.8951,-4.912,-4.912,-4.9965,-5.0777,-5.1623,-5.3044,-5.3518,-5.3518,-5.3653,-5.3687,-5.3856,-5.4566,-5.4769,-5.4938,-5.5547,-5.5716,-5.5716,-5.5716,-5.5818,-5.5852,-5.5581,-5.5615,-5.548,-5.46,-5.4397,-5.3957,-5.257,0.0,0.0,0.0,0.0,0.0,0.0,0.0,0.0,0.0,0.0,-4.7631,-4.6853,-4.5331,0.0,0.0,0.0,0.0,0.0,0.0,0.0,0.0,-4.7767,0.0,0.0,0.0,-4.912,-4.9018,-4.9018,-4.9018,-4.9018,-4.9632,-4.9873,-4.9936,-4.9932,-5.024,-5.0755,-5.1054,-5.1931,-5.3044,-5.3382,-5.3518,-5.3518,-5.3518,-5.3518,-5.3518,0.0,0.0,0.0,0.0,0.0,0.0,0.0,-7.3377,0.0,-7.2679,-7.3854,-7.4808,-7.4808,-7.6313,-7.7488,-7.7892,-7.7561,-7.7488,-7.7892,-7.7157,-7.6497,-7.613,-7.4551,-7.312,-7.1908,-6.6696,-6.3796,-6.3392,0.0,-5.4064,-5.309,0.0,0.0,0.0,0.0,-4.7442,0.0,0.0,0.0,-4.7004,-4.7724,-4.8199,-4.8511,-4.8883,-4.9018,-4.9086,-4.983,-5.0338,-5.0811,-5.1928,-5.257,-5.2875,-5.2875,-5.3179,-5.3585,-5.3923,-5.4025,-5.4126,-5.4465,-5.4566,-5.4566,-5.4566,-5.4566,-5.4566,-5.4566,-5.4566,-5.4465,-5.4093,-5.4025,-5.3687,-5.2503,-5.1082,0.0,0.0,0.0,0.0,0.0,0.0,-4.8849,0.0,-4.8139,-4.7462,0.0,0.0,0.0,0.0,0.0,0.0,0.0,0.0,0.0,0.0,0.0,0.0,0.0,0.0,0.0,-4.9018,-4.9018,-4.9018,-4.9018,-4.9362,-4.9767,-5.0075,-5.0135,-5.0764,-5.1804,-5.2227,-5.2841,-5.3518,-5.3518,-5.3518,-5.3518,-5.3518,-5.3518,-5.3518,0.0,-6.1263,0.0,0.0,-6.8715,0.0,-7.3634,-7.5873,-7.6423,-7.3854,-7.3523,-7.345,-7.3266,-7.5542,-7.7011,-7.6827,-7.6827,-7.6827,-7.6827,-7.6056,-7.5506,-7.5359,-7.334,-7.1725,-7.0587,-6.5632,-6.2328,0.0,0.0,0.0,-5.1005,-4.9567,0.0,0.0,0.0,0.0,0.0,0.0,-4.7369,-4.709,-4.7935,-4.8447,-4.8781,-4.9101,-4.9107,-4.9086,-4.9661,-4.9864,-4.9932,-5.0541,-5.1352,-5.2097,-5.2266,-5.2739,-5.3281,-5.345,-5.3518,-5.345,-5.3281,-5.3382,-5.345,-5.3281,-5.3382,-5.3518,-5.3518,-5.3518,-5.3518,-5.3518,-5.3518,-5.3247,-5.2469,-5.1352,0.0,0.0,0.0,0.0,0.0,0.0,-4.9086,0.0,0.0,-4.7496,-4.5872,0.0,0.0,0.0,0.0,0.0,0.0,0.0,0.0,0.0,0.0,-4.868,-4.9018,0.0,-4.956,-4.9018,-4.9018,-4.9018,-4.9018,-4.9154,-4.9598,-5.0312,-5.0371,-5.1065,-5.2398,-5.3175,-5.3518,-5.3518,-5.3518,-5.3518,-5.3518,-5.3518,-5.3518,-5.3518,0.0,0.0,0.0,0.0,0.0,0.0,0.0,-7.624,-7.7194,-7.69,-7.6864,-7.657,-7.5836,-7.6019,-7.5909,-7.5212,-7.5139,-7.5139,-7.5139,-7.4368,-7.3597,-7.2863,-7.1945,-7.0367,-6.8091,-6.5375,-6.2108,0.0,0.0,-5.2615,-4.9574,-4.9268,0.0,0.0,0.0,0.0,0.0,-4.6517,-4.693,-4.8085,-4.8598,-4.8483,-4.8132,-4.9423,-4.9521,-4.9018,-4.9086,-4.912,-4.912,-4.9187,-5.0135,-5.142,-5.2097,-5.2367,-5.257,-5.3281,-5.3518,-5.3348,-5.2604,-5.2942,-5.3315,-5.2604,-5.2976,-5.3518,-5.3518,-5.3518,-5.3518,-5.3518,-5.3518,-5.3247,-5.2469,-5.2198,-5.1657,0.0,0.0,0.0,0.0,0.0,-5.0236,-4.8173,0.0,0.0,-4.5906,-4.5703,0.0,0.0,0.0,0.0,0.0,0.0,0.0,-4.6752,0.0,-4.7631,-4.8984,-4.9086,-4.9086,-4.9018,-4.9018,-4.9018,-4.9018,-4.9695,-5.0405,-5.1116,-5.1116,-5.1553,-5.2363,-5.3212,-5.3518,-5.3518,-5.3518,-5.3518,-5.3518,-5.3518,-5.3518,-5.3518,0.0,0.0,0.0,0.0,0.0,0.0,0.0,-7.5469,-7.5873,-7.5873,-7.6276,-7.6276,-7.5469,-7.5395,-7.5065,-7.4258,-7.4184,-7.3964,-7.3487,-7.2716,-7.1908,-7.1101,-6.9816,-6.8458,-6.699,-6.409,-6.1337,0.0,0.0,-5.336,-5.009,-4.9655,0.0,0.0,0.0,-4.7579,-4.7979,-4.8575,-4.8971,-4.9185,-4.9924,-4.9771,-4.9193,-4.9815,-4.9546,-4.9046,-4.9462,-4.9376,-4.9046,-4.9462,-4.9998,-5.0574,-5.0879,-5.1285,-5.1725,-5.2029,-5.2435,-5.2604,-5.186,-5.2198,-5.2604,-5.1826,-5.1894,-5.2232,-5.2672,-5.2773,-5.2909,-5.3416,-5.3518,-5.3416,-5.3078,-5.2638,-5.2097,0.0,0.0,0.0,0.0,0.0,0.0,-4.7462,0.0,-4.6989,-4.5196,0.0,0.0,0.0,0.0,0.0,0.0,0.0,0.0,-4.6752,0.0,-4.7496,-4.8984,-4.9018,-4.9018,-4.9018,-4.9018,-4.9018,-4.9018,-4.9763,-5.0744,-5.1894,-5.2367,-5.2739,-5.301,-5.3348,-5.3518,-5.3518,-5.3518,-5.3518,-5.3518,-5.3518,-5.3518,-5.3518,-6.6549,0.0,-6.8752,0.0,-7.1982,-7.2899,-7.4037,-7.4184,-7.4111,-7.3891,-7.4331,-7.4551,-7.4258,-7.4001,-7.3523,-7.2716,-7.2642,-7.2312,-7.1505,-7.0697,-6.9889,-6.9082,-6.7724,0.0,-6.5448,-6.2915,-6.0566,-5.851,-5.6528,-5.3879,-5.0643,0.0,0.0,0.0,-4.7636,-4.7892,-4.8297,-4.9567,-5.0109,-5.0154,-5.1057,-5.084,-5.0021,-5.0204,-4.9548,-4.8669,-4.939,-4.9238,-4.8775,-4.9512,-4.9778,-4.9796,-5.0033,-5.0473,-5.0913,-5.115,-5.1589,-5.1826,-5.1082,-5.1589,-5.2063,-5.1116,-5.1386,-5.1961,-5.2232,-5.23,-5.2469,-5.3044,-5.3348,-5.3518,-5.3518,-5.2841,-5.2232,-5.2029,0.0,0.0,0.0,-4.9526,0.0,-4.6989,-4.6786,-4.621,-4.4722,-4.4587,0.0,0.0,0.0,0.0,0.0,0.0,0.0,0.0,0.0,0.0,0.0,-4.9018,-4.9018,-4.9018,-4.9221,-4.9323,-4.9357,-5.0304,-5.1319,-5.2334,-5.3145,-5.3518,-5.3518,-5.3518,-5.3518,-5.3518,-5.3518,-5.3518,-5.3518,-5.3518,-5.3518,-5.3518,-6.7026,-6.8311,-6.9412,-7.1027,-7.1982,-7.2496,-7.2532,-7.2532,-7.2239,-7.1468,-7.1358,-7.1688,-7.2459,-7.1835,-7.1027,-7.022,-7.0146,-6.9816,-6.9009,-6.8201,-6.7357,0.0,0.0,-6.4567,-6.2879,-6.2034,-6.0015,-5.6822,0.0,0.0,-5.0765,0.0,-4.8306,-4.8269,-4.7462,-4.7572,-4.8304,-4.846,-4.9433,-5.0958,-5.1788,-5.1178,-4.9953,-5.0641,-4.9607,-4.7775,-4.8592,-4.8391,-4.8037,-4.8748,-4.9018,-4.9154,-4.9864,-5.0101,-5.0236,-5.1014,-5.1217,-5.1082,-5.0304,-5.1183,-5.1961,-5.0473,-5.1792,-5.3281,-5.2469,-5.23,-5.23,-5.23,-5.2942,-5.3518,-5.3518,-5.2841,-5.2063,-5.1352,0.0,0.0,0.0,-4.9627,0.0,-4.7056,-4.6786,-4.621,-4.4722,-4.4587,0.0,0.0,0.0,0.0,0.0,0.0,0.0,-4.6752,-4.6786,0.0,-4.8984,-4.9018,-4.9018,-4.9018,-4.9729,-5.0067,-5.0135,-5.1589,-5.2266,-5.2332,-5.3145,-5.3518,-5.3518,-5.3518,-5.3518,-5.3518,-5.3518,-5.3518,-5.3518,-5.3518,-5.3518,-5.3518,-6.7393,-6.8348,-6.9229,-7.0293,-7.0697,-7.0844,-7.0844,-7.0844,-7.077,-7.0513,-7.0,-6.9559,-6.9265,-6.9963,-6.9926,0.0,-6.8458,-6.7871,0.0,-6.6219,-6.5448,-6.4053,-6.3723,-6.2842,-6.119,-6.0382,-5.9208,-5.7629,0.0,0.0,0.0,-5.0215,-4.9481,-4.9994,-4.9738,-5.0068,-5.0875,-5.1438,-5.1974,-5.2455,-5.2163,-5.1765,-5.1323,-5.0433,-4.971,-4.917,-4.8889,-4.8657,-4.8564,-4.8862,-4.8992,-4.9052,-4.9289,-4.9357,-4.939,-4.9627,-5.0067,-5.0304,-4.956,-5.0439,-5.1319,-5.0338,-5.0642,-5.1251,-5.1488,-5.1961,-5.23,-5.23,-5.2942,-5.3179,-5.2131,-5.2131,-5.2063,-5.1352,-5.0777,0.0,-4.9154,0.0,-4.797,-4.6244,-4.6041,-4.5669,-4.4688,-4.4587,0.0,0.0,0.0,0.0,0.0,0.0,0.0,0.0,-4.6786,0.0,-4.8984,-4.9018,-4.9018,-4.9018,-4.9729,-5.0608,-5.1623,-5.2097,-5.2604,-5.3112,-5.3382,-5.3518,-5.3518,-5.3518,-5.3518,-5.3518,-5.3518,-5.3518,-5.3518,-5.3518,-5.3518,-5.3518,-6.6623,-6.721,-6.7797,-6.8605,-6.8752,-6.8862,-6.9155,-6.9192,-6.9192,-6.9192,-6.8752,-6.8128,-6.732,-6.8128,0.0,-6.6916,-6.6806,-6.6219,-6.4934,-6.4861,-6.409,-6.2438,-6.2365,-6.1594,-5.9979,-5.9465,0.0,-5.7997,-5.6602,-5.5133,-5.3592,-5.1169,-5.0472,-5.1242,-5.0949,-5.1096,-5.161,-5.2417,-5.2747,-5.2747,-5.2527,-5.2279,-5.1891,-5.062,-5.001,-4.9804,-4.9305,-4.923,-4.9253,-4.9313,-4.9538,-4.9698,-4.9168,-4.9168,-4.9316,-4.9046,-4.9323,-4.9593,-4.912,-4.9864,-5.0608,-4.9864,-5.0101,-5.0642,-5.1116,-5.1792,-5.2232,-5.1961,-5.23,-5.2367,-5.1386,-5.1352,-5.1319,-5.0879,-5.0168,-4.9424,-4.8714,0.0,-4.7056,0.0,0.0,0.0,0.0,-4.4587,-4.4587,0.0,0.0,0.0,0.0,0.0,0.0,-4.6752,-4.7056,0.0,-4.8984,-4.9018,-4.9154,-4.9424,-5.0439,-5.1555,-5.2739,-5.2739,-5.301,-5.3518,-5.3518,-5.3518,-5.3518,-5.3518,-5.3518,-5.3518,-5.3518,-5.3518,-5.3518,-5.3518,-5.3518,-5.3518,-6.5081,-6.5264,0.0,0.0,-6.6402,0.0,-6.7393,-6.7504,-6.7504,-6.7504,-6.7504,-6.721,-6.6402,-6.6329,-6.5999,-6.5191,0.0,0.0,0.0,-6.3906,-6.3172,-6.152,-6.141,-6.0713,-5.9171,-5.9134,-5.8731,-5.7923,-5.5611,-5.4436,-5.4363,-5.205,-5.1353,-5.205,-5.1316,-5.0986,-5.1022,-5.1756,-5.2087,-5.2123,-5.2858,-5.2711,-5.1977,-5.1132,-5.0477,-4.9928,-4.9767,-4.9818,-5.0008,-4.9966,-5.041,-5.0716,-4.9462,-4.9462,-4.9838,-4.9135,-4.9018,-4.9018,-4.9018,-4.9593,-4.9999,-4.9255,-5.0168,-5.1217,-5.1285,-5.1826,-5.2097,-5.142,-5.1352,-5.1319,-5.1183,-5.0608,-5.0135,-5.0033,-4.939,-4.868,-4.7936,-4.7192,-4.6481,0.0,0.0,0.0,0.0,-4.4621,-4.4587,0.0,0.0,0.0,0.0,0.0,-4.6143,-4.6786,-4.7564,-4.8308,-4.8984,-4.912,-4.9526,-5.027,-5.1623,-5.2739,-5.3518,-5.3518,-5.3518,-5.3518,-5.3518,-5.3518,-5.3518,-5.3518,-5.3518,-5.3518,-5.3518,-5.3518,-5.3518,-5.3518,-5.3518,-5.3518,0.0,0.0,-6.5375,-6.5558,-6.5595,-6.5668,-6.5852,-6.5888,-6.5888,-6.5888,-6.5888,-6.5558,-6.4751,-6.4677,-6.431,-6.3466,-6.4016,-6.3759,-6.2291,-6.2181,-6.1484,-5.9832,-5.9795,-5.9318,-5.8327,-5.829,-5.7886,-5.7079,-5.5904,-5.4987,-5.4363,-5.3188,-5.2747,-5.2931,-5.2747,-5.2637,-5.2637,-5.2858,-5.2931,-5.2894,-5.2454,-5.2527,-5.2747,-5.1353,-5.1087,-5.1323,-5.0162,-4.9818,-4.9937,-5.0011,-4.9771,-4.9521,-4.9722,-4.9521,-4.9229,-4.9046,-4.9018,-4.9018,-4.9018,-4.9965,-5.0777,-4.9999,-5.0541,-5.1352,-5.1928,-5.2164,-5.2266,-5.2097,-5.2536,-5.2435,-5.0676,-5.0676,-5.0574,-4.9458,-4.8646,-4.7902,-4.7158,-4.6447,-4.5906,0.0,-4.5026,-4.479,-4.5365,-4.4925,-4.4823,0.0,0.0,0.0,0.0,-4.6684,-4.7192,-4.6819,-4.8071,-4.8815,-4.9018,-5.0135,-5.1048,-5.1792,-5.2131,-5.2739,-5.3518,-5.3518,-5.3518,-5.3518,-5.3518,-5.3518,-5.3518,-5.3518,-5.3518,-5.3518,-5.3518,-5.3518,-5.3518,-5.3518,-5.3518,-5.3518,-6.3503,-6.387,-6.4273,-6.4677,-6.4751,-6.4897,-6.5264,-6.5301,-6.5301,-6.5301,-6.5301,-6.5007,-6.42,-6.409,-6.3576,-6.2365,-6.2658,-6.2548,-6.1667,-6.1263,-6.0493,-5.9281,-5.9208,-5.8841,-5.8033,-5.7997,-5.7593,-5.6822,-5.5978,-5.517,-5.4363,-5.3592,-5.3225,-5.3225,-5.3225,-5.3225,-5.3225,-5.3225,-5.3225,-5.3188,-5.2711,-5.2821,-5.3078,-5.183,-5.1867,-5.2375,-5.1201,-5.0859,-5.0887,-5.0586,-5.0293,-4.9896,-4.9605,-4.9521,-4.9436,-4.9107,-4.9018,-4.9018,-4.9018,-4.983,-5.0676,-5.0608,-5.115,-5.1826,-5.2198,-5.23,-5.23,-5.23,-5.2097,-5.1555,-5.0304,-5.0168,-4.983,-4.868,-4.8173,-4.753,-4.6447,-4.594,0.0,-4.5703,-4.5365,-4.5399,-4.6143,-4.5838,-4.5771,-4.6177,-4.6515,0.0,-4.621,-4.7597,-4.7902,-4.6819,-4.824,-4.9018,-4.9018,-5.0473,-5.1589,-5.23,-5.2672,-5.3078,-5.3518,-5.3518,-5.3518,-5.3518,-5.3518,-5.3518,-5.3518,-5.3518,-5.3518,-5.3518,-5.3518,-5.3518,-5.3518,-5.3518,-5.3518,-5.3518,-6.2622,-6.2732,-6.3025,-6.3759,-6.3906,-6.4127,-6.4824,-6.4934,-6.4934,-6.4934,-6.4934,-6.4677,-6.398,-6.3906,-6.3282,-6.1741,-6.1484,-6.1374,-6.1263,-6.0603,-5.9869,-5.9061,-5.9024,-5.8694,-5.7997,-5.7886,-5.7409,-5.6638,-5.5794,-5.4987,-5.4216,-5.3518,-5.3225,-5.3225,-5.3225,-5.3225,-5.3225,-5.3225,-5.3225,-5.3225,-5.3225,-5.3225,-5.3151,-5.2454,-5.2601,-5.3115,-5.2417,-5.2142,-5.2018,-5.1444,-5.1086,-5.0716,-4.9521,-4.9462,-4.978,-4.9316,-4.9046,-4.9018,-4.9018,-4.9526,-5.0338,-5.1319,-5.1928,-5.2334,-5.2469,-5.2469,-5.2469,-5.2469,-5.1488,-5.0541,-5.0304,-4.9661,-4.8917,-4.8206,-4.78,-4.7192,-4.6041,0.0,-4.5737,-4.5838,-4.5872,-4.6143,-4.6887,-4.6853,-4.6853,-4.6955,-4.7564,-4.7631,-4.6989,-4.8274,-4.8376,-4.6989,-4.8409,-4.9255,-4.9492,-5.0642,-5.1657,-5.2503,-5.3179,-5.3518,-5.3518,-5.3518,-5.3518,-5.3518,-5.3518,-5.3518,-5.3518,-5.3518,-5.3518,-5.3518,-5.3518,-5.3518,-5.3518,-5.3518,-5.3518,-5.3518,-6.1777,-6.2328,-6.2842,-6.2989,-6.3025,-6.3062,-6.3172,-6.3209,-6.3209,-6.3209,-6.3209,-6.3135,-6.3025,-6.3025,-6.2622,-6.1667,-6.097,-6.0309,-5.9648,-5.9465,-5.9024,-5.8217,-5.818,-5.8143,-5.7997,-5.7336,-5.6602,-5.5794,-5.4987,-5.4179,-5.3408,-5.3261,-5.3225,-5.3225,-5.3225,-5.3225,-5.3225,-5.3225,-5.3225,-5.3225,-5.3225,-5.3225,-5.3188,-5.3078,-5.3115,-5.3188,-5.3078,-5.2615,-5.2112,-5.2018,-5.1189,-5.0146,-4.9919,-4.9521,-4.9256,-4.9722,-4.9462,-4.9018,-4.9018,-4.9526,-5.0574,-5.2638,-5.2739,-5.2469,-5.3179,-5.3315,-5.3315,-5.3315,-5.3145,-5.257,-5.1285,-5.0439,-4.9695,-4.8951,-4.7259,-4.6177,-4.6583,0.0,-4.594,-4.6549,-4.6616,-4.6921,-4.7665,-4.7158,-4.7056,-4.7699,-4.7868,-4.7868,-4.7767,-4.8545,-4.8612,-4.7767,-4.9154,-5.0541,-5.1792,-5.142,-5.1928,-5.3315,-5.345,-5.3518,-5.3518,-5.3518,-5.3518,-5.3518,-5.3518,-5.3518,-5.3518,-5.3518,-5.3518,-5.3518,-5.3518,-5.3518,-5.3518,-5.3518,-5.3518,-5.3518,-6.0933,-6.1263,-6.163,-6.2071,-6.1814,-6.1667,-6.2108,-6.1814,-6.1667,-6.2108,-6.1777,-6.1667,-6.2108,-6.1777,-6.119,-6.0382,-5.9979,-5.9428,-5.8621,-5.8547,-5.84,-5.8033,-5.7997,-5.7813,-5.7373,-5.7005,-5.6198,-5.495,-5.4583,-5.3995,-5.3225,-5.3225,-5.3225,-5.3225,-5.3225,-5.3225,-5.3225,-5.3225,-5.3225,-5.3225,-5.3225,-5.3225,-5.3225,-5.3225,-5.3225,-5.3225,-5.3225,-5.2509,-5.1544,-5.1544,-5.0608,-4.9462,-4.9462,-4.9256,-4.9046,-4.9342,-4.9829,-5.018,-5.0193,-5.071,-5.1623,-5.3145,-5.3213,-5.3044,-5.3416,-5.3518,-5.3518,-5.3518,-5.3179,-5.2503,-5.142,-5.0608,-4.9864,-4.912,-4.7462,0.0,0.0,-4.6413,-4.6109,-4.7259,-4.7394,-4.7834,-4.8984,-4.8781,-4.8883,-4.9627,-4.9695,-4.9526,-4.912,-4.939,-4.9255,-4.8545,-4.9526,-5.0608,-5.1725,-5.1758,-5.2367,-5.3518,-5.3518,-5.3518,-5.3518,-5.3518,-5.3518,-5.3518,-5.3518,-5.3518,-5.3518,-5.3518,-5.3518,-5.3518,-5.3518,-5.3518,-5.3518,-5.3518,-5.3518,-5.3518,-6.0126,-6.0272,-6.0603,-6.119,-6.0823,-6.0603,-6.1227,-6.0786,-6.0639,-6.1227,-6.0786,-6.0639,-6.1263,-6.0786,-6.0089,-5.9281,-5.9208,-5.8877,-5.8033,-5.7997,-5.7997,-5.7997,-5.7813,-5.7446,-5.6822,-5.6455,-5.5647,-5.4399,-5.4216,-5.3812,-5.3225,-5.3225,-5.3225,-5.3225,-5.3225,-5.3225,-5.3225,-5.3225,-5.3225,-5.3225,-5.3225,-5.3225,-5.3225,-5.3225,-5.3225,-5.3182,-5.3017,-5.2242,-5.1292,-5.0929,-5.0146,-4.9229,-4.9046,-4.9018,-4.9046,-4.9229,-5.0292,-5.145,-5.124,-5.1758,-5.2503,-5.3315,-5.3518,-5.3518,-5.3518,-5.3518,-5.3518,-5.3518,-5.301,-5.2367,-5.1589,-5.0845,-5.0101,-4.939,0.0,0.0,0.0,-4.7192,-4.6955,-4.8274,-4.8578,-4.912,-5.0236,-5.0338,-5.0574,-5.1183,-5.1217,-5.0947,-5.0371,-5.0338,-5.0101,-4.9526,-4.9898,-5.0541,-5.1454,-5.2029,-5.2706,-5.3518,-5.3518,-5.3518,-5.3518,-5.3518,-5.3518,-5.3518,-5.3518,-5.3518,-5.3518,-5.3518,-5.3518,-5.3518,-5.3518,-5.3518,-5.3518,-5.3518,-5.3518,-5.3518,-5.9318,-5.9905,-6.0419,-6.0493,-6.0456,-6.0419,-6.0493,-6.0456,-6.0419,-6.0493,-6.0456,-6.0419,-6.0493,-6.0456,-6.0089,-5.9281,-5.9208,-5.8877,-5.8033,-5.7997,-5.7997,-5.7997,-5.7299,-5.6859,-5.6822,-5.5354,-5.4509,-5.4399,-5.3665,-5.3261,-5.3225,-5.3225,-5.3225,-5.3225,-5.3225,-5.3225,-5.3225,-5.3225,-5.3225,-5.3225,-5.3225,-5.3225,-5.3225,-5.3225,-5.3225,-5.3103,-5.2427,-5.2112,-5.1838,-5.05,-5.0033,-4.9838,-4.9229,-4.9018,-4.9107,-4.9722,-5.1014,-5.2106,-5.1376,-5.1758,-5.2503,-5.3315,-5.3518,-5.3518,-5.3518,-5.3518,-5.3518,-5.3518,-5.345,-5.3179,-5.2367,-5.1623,-5.0879,-5.0135,0.0,0.0,-4.8815,-4.8849,-4.9052,-4.983,-5.0541,-5.1014,-5.1116,-5.115,-5.115,-5.1217,-5.1217,-5.1183,-5.115,-5.115,-5.1116,-5.1048,-5.0439,-5.0777,-5.2198,-5.2266,-5.2706,-5.3518,-5.3518,-5.3518,-5.3518,-5.3518,-5.3518,-5.3518,-5.3518,-5.3518,-5.3518,-5.3518,-5.3518,-5.3518,-5.3518,-5.3518,-5.3518,-5.3518,-5.3518,-5.3518,-5.8474,-5.8694,-5.9061,-5.9575,-5.9245,-5.9098,-5.9575,-5.9245,-5.9098,-5.9612,-5.9208,-5.9098,-5.9612,-5.9208,-5.8804,-5.8474,-5.8474,-5.8327,-5.8033,-5.7997,-5.7997,-5.7997,-5.7226,-5.6565,-5.6051,-5.495,-5.4179,-5.3665,-5.3371,-5.3225,-5.3225,-5.3225,-5.3225,-5.3225,-5.3225,-5.3225,-5.3225,-5.3225,-5.3225,-5.3225,-5.3225,-5.3225,-5.3225,-5.3225,-5.3225,-5.3103,-5.2381,-5.1838,-5.1343,-5.0335,-4.9722,-4.9376,-4.9107,-4.9323,-4.9723,-4.9998,-5.1117,-5.2111,-5.1383,-5.2097,-5.3112,-5.3416,-5.3518,-5.3518,-5.3518,-5.3518,-5.3518,-5.3518,-5.3518,-5.3247,-5.2469,-5.2063,-5.1792,-5.1522,0.0,-4.9695,-5.0879,-5.027,-4.9965,-5.071,-5.1048,-5.1386,-5.186,-5.1894,-5.2097,-5.2604,-5.2638,-5.2435,-5.1928,-5.1454,-5.142,-5.186,-5.1623,-5.1725,-5.23,-5.2807,-5.3213,-5.3518,-5.3518,-5.3518,-5.3518,-5.3518,-5.3518,-5.3518,-5.3518,-5.3518,-5.3518,-5.3518,-5.3518,-5.3518,-5.3518,-5.3518,-5.3518,-5.3518,-5.3518,-5.3518,-5.7997,-5.7997,-5.818,-5.8731,-5.8364,-5.818,-5.8767,-5.8364,-5.8217,-5.8767,-5.8327,-5.8217,-5.8767,-5.8327,-5.7997,-5.7997,-5.7997,-5.7997,-5.7997,-5.7997,-5.7997,-5.7997,-5.7226,-5.6418,-5.5611,-5.4803,-5.3995,-5.3225,-5.3225,-5.3225,-5.3225,-5.3225,-5.3225,-5.3225,-5.3225,-5.3225,-5.3225,-5.3225,-5.3225,-5.3225,-5.3225,-5.3225,-5.3225,-5.3225,-5.306,-5.2769,-5.2018,-5.1343,-5.0662,-4.9919,-4.9342,-4.9018,-4.9018,-4.9492,-5.0135,-5.0371,-5.1319,-5.2232,-5.1995,-5.2706,-5.3518,-5.3518,-5.3518,-5.3518,-5.3518,-5.3518,-5.3518,-5.3518,-5.3518,-5.3348,-5.2773,-5.2672,-5.2604,-5.2334,-5.1454,-5.115,-5.2164,-5.142,-5.1082,-5.1826,-5.1928,-5.2131,-5.2638,-5.2672,-5.2909,-5.345,-5.3518,-5.3281,-5.2706,-5.2198,-5.2164,-5.2672,-5.2672,-5.2672,-5.2672,-5.3213,-5.3518,-5.3518,-5.3518,-5.3518,-5.3518,-5.3518,-5.3518,-5.3518,-5.3518,-5.3518,-5.3518,-5.3518,-5.3518,-5.3518,-5.3518,-5.3518,-5.3518,-5.3518,-5.3518,-5.3518,-5.7997,-5.7997,-5.7997,-5.7997,-5.7997,-5.7997,-5.7997,-5.7997,-5.7997,-5.7997,-5.7997,-5.7997,-5.7997,-5.7997,-5.7997,-5.7997,-5.7997,-5.7997,-5.7997,-5.7997,-5.7997,-5.7997,-5.7226,-5.6418,-5.5611,-5.4803,-5.3995,-5.3225,-5.3225,-5.3225,-5.3225,-5.3225,-5.3225,-5.3225,-5.3225,-5.3225,-5.3225,-5.3225,-5.3225,-5.3225,-5.3225,-5.3225,-5.3225,-5.3225,-5.2725,-5.2018,-5.1343,-5.0608,-4.9861,-4.9195,-4.9018,-4.9018,-4.9018,-4.9526,-5.0236,-5.1014,-5.1725,-5.2469,-5.3281,-5.3518,-5.3518,-5.3518,-5.3518,-5.3518,-5.3518,-5.3518,-5.3518,-5.3518,-5.3518,-5.3518,-5.3518,-5.3518,-5.3247,-5.2435,-5.23,-5.23,-5.23,-5.23,-5.2604,-5.3416,-5.3518,-5.3518,-5.3518,-5.3518,-5.3518,-5.3518,-5.3518,-5.3518,-5.3518,-5.3518,-5.3518,-5.3518,-5.3518,-5.3518,-5.3518,-5.3518,-5.3518,-5.3518,-5.3518,-5.3518,-5.3518,-5.3518,-5.3518,-5.3518,-5.3518,-5.3518,-5.3518,-5.3518,-5.3518,-5.3518,-5.3518,-5.3518,-5.3518,-5.3518,-5.3518,-5.3518,-5.7997,-5.7997,-5.7997,-5.7997,-5.7997,-5.7997,-5.7997,-5.7997,-5.7997,-5.7997,-5.7997,-5.7997,-5.7997,-5.7997,-5.7997,-5.7997,-5.7997,-5.7997,-5.7997,-5.7997,-5.7997,-5.7997,-5.7226,-5.6418,-5.5611,-5.4803,-5.3995,-5.3225,-5.3225,-5.3225,-5.3225,-5.3225,-5.3225,-5.3225,-5.3225,-5.3225,-5.3225,-5.3225,-5.3225,-5.3225,-5.3225,-5.2893,-5.2427,-5.2427,-5.2018,-5.1292,-5.0608,-5.0202,-4.9861,-4.9195,-4.9357,-4.9932,-5.098,-5.1116,-5.1014,-5.1758,-5.2536,-5.3078,-5.2739,-5.3078,-5.3518,-5.3518,-5.3518,-5.3518,-5.3518,-5.3518,-5.3518,-5.3518,-5.3518,-5.3518,-5.3518,-5.3518,-5.3416,-5.3179,-5.3145,-5.3145,-5.3145,-5.3145,-5.3247,-5.3484,-5.3518,-5.3518,-5.3518,-5.3518,-5.3518,-5.3518,-5.3518,-5.3518,-5.3518,-5.3518,-5.3518,-5.3518,-5.3518,-5.3518,-5.3518,-5.3518,-5.3518,-5.3518,-5.3518,-5.3518,-5.3518,-5.3518,-5.3518,-5.3518,-5.3518,-5.3518,-5.3518,-5.3518,-5.3518,-5.3518,-5.3518,-5.3518,-5.3518,-5.3518,-5.3518,-5.3518,-5.7997,-5.7997,-5.7997,-5.7997,-5.7997,-5.7997,-5.7997,-5.7997,-5.7997,-5.7997,-5.7997,-5.7997,-5.7997,-5.7997,-5.7997,-5.7997,-5.7703,-5.7519,-5.7519,-5.7519,-5.7666,-5.7997,-5.7226,-5.6418,-5.5611,-5.5097,-5.4326,-5.3225,-5.3225,-5.3225,-5.3225,-5.3225,-5.3225,-5.3225,-5.3225,-5.3225,-5.3225,-5.3225,-5.3225,-5.3225,-5.3225,-5.2937,-5.2509,-5.2206,-5.1692,-5.0981,-5.0223,-4.9804,-4.9615,-4.9474,-4.9932,-5.0642,-5.1251,-5.1522,-5.1725,-5.2164,-5.2875,-5.3382,-5.2909,-5.3145,-5.3518,-5.3518,-5.3518,-5.3518,-5.3518,-5.3518,-5.3518,-5.3518,-5.3518,-5.3518,-5.3518,-5.3518,-5.3518,-5.3518,-5.3518,-5.3518,-5.3518,-5.3518,-5.3518,-5.3518,-5.3518,-5.3518,-5.3518,-5.3518,-5.3518,-5.3518,-5.3518,-5.3518,-5.3518,-5.3518,-5.3518,-5.3518,-5.3518,-5.3518,-5.3518,-5.3518,-5.3518,-5.3518,-5.3518,-5.3518,-5.3518,-5.3518,-5.3518,-5.3518,-5.3518,-5.3518,-5.3518,-5.3518,-5.3518,-5.3518,-5.3518,-5.3518,-5.3518,-5.3518,-5.3518,-5.3518,-5.7997,-5.7997,-5.7997,-5.7997,-5.7997,-5.7997,-5.7997,-5.7997,-5.7997,-5.7997,-5.7997,-5.7997,-5.7997,-5.7997,-5.7997,-5.7997,-5.7336,-5.6932,-5.6932,-5.6859,-5.7152,-5.796,-5.7152,-5.6345,-5.5611,-5.5537,-5.473,-5.3225,-5.3225,-5.3182,-5.3103,-5.3146,-5.3146,-5.3103,-5.3146,-5.3225,-5.3225,-5.3225,-5.3225,-5.3225,-5.3225,-5.3146,-5.3017,-5.2289,-5.1593,-5.0929,-5.0202,-4.958,-4.9243,-5.0023,-5.0701,-5.1078,-5.0541,-5.1285,-5.23,-5.2401,-5.2942,-5.3518,-5.3518,-5.3518,-5.3518,-5.3518,-5.3518,-5.3518,-5.3518,-5.3518,-5.3518,-5.3518,-5.3518,-5.3518,-5.3518,-5.3518,-5.3518,-5.3518,-5.3518,-5.3518,-5.3518,-5.3518,-5.3518,-5.3518,-5.3518,-5.3518,-5.3518,-5.3518,-5.3518,-5.3518,-5.3518,-5.3518,-5.3518,-5.3518,-5.3518,-5.3518,-5.3518,-5.3518,-5.3518,-5.3518,-5.3518,-5.3518,-5.3518,-5.3518,-5.3518,-5.3518,-5.3518,-5.3518,-5.3518,-5.3518,-5.3518,-5.3518,-5.3518,-5.3518,-5.3518,-5.3518,-5.3518,-5.3518,-5.3518,-5.3518,-5.7997,-5.7997,-5.7997,-5.7997,-5.7997,-5.7997,-5.7997,-5.7997,-5.7997,-5.7997,-5.7997,-5.7997,-5.7997,-5.7997,-5.7997,-5.7997,-5.785,-5.774,-5.774,-5.7152,-5.7152,-5.796,-5.6638,-5.5757,-5.5574,-5.4987,-5.4179,-5.3225,-5.3225,-5.2893,-5.2335,-5.2937,-5.2893,-5.2381,-5.2937,-5.3225,-5.3225,-5.3225,-5.3225,-5.3225,-5.3225,-5.2813,-5.2289,-5.1593,-5.0876,-5.0146,-4.9462,-4.9462,-4.9987,-5.133,-5.1537,-5.1348,-5.2428,-5.2536,-5.2435,-5.3044,-5.3382,-5.3518,-5.3518,-5.3518,-5.3518,-5.3518,-5.3518,-5.3518,-5.3518,-5.3518,-5.3518,-5.3518,-5.3518,-5.3518,-5.3518,-5.3518,-5.3518,-5.3518,-5.3518,-5.3518,-5.3518,-5.3518,-5.3518,-5.3518,-5.3518,-5.3518,-5.3518,-5.3518,-5.3518,-5.3518,-5.3518,-5.3518,-5.3518,-5.3518,-5.3518,-5.3518,-5.3518,-5.3518,-5.3518,-5.3518,-5.3518,-5.3518,-5.3518,-5.3518,-5.3518,-5.3518,-5.3518,-5.3518,-5.3518,-5.3518,-5.3518,-5.3518,-5.3518,-5.3518,-5.3518,-5.3518,-5.3518,-5.3518,-5.3518,-5.3518,-5.7997,-5.7997,-5.7997,-5.7997,-5.7997,-5.7997,-5.7997,-5.7997,-5.7997,-5.7997,-5.7997,-5.7997,-5.7997,-5.7997,-5.785,-5.7446,-5.7446,-5.7446,-5.7446,-5.6675,-5.6602,-5.7409,-5.5904,-5.5023,-5.5023,-5.4252,-5.3628,-5.3225,-5.3225,-5.298,-5.2644,-5.3017,-5.298,-5.2644,-5.306,-5.3225,-5.3225,-5.3225,-5.3225,-5.3225,-5.3225,-5.2769,-5.2018,-5.1343,-5.0662,-4.9919,-4.9256,-4.9671,-5.0651,-5.1097,-5.1713,-5.2404,-5.2804,-5.2909,-5.2976,-5.3382,-5.3518,-5.3518,-5.3518,-5.3518,-5.3518,-5.3518,-5.3518,-5.3518,-5.3518,-5.3518,-5.3518,-5.3518,-5.3518,-5.3518,-5.3518,-5.3518,-5.3518,-5.3518,-5.3518,-5.3518,-5.3518,-5.3518,-5.3518,-5.3518,-5.3518,-5.3518,-5.3518,-5.3518,-5.3518,-5.3518,-5.3518,-5.3518,-5.3518,-5.3518,-5.3518,-5.3518,-5.3815,-5.3815,-5.3518,-5.3815,-5.3815,-5.3518,-5.3518,-5.3518,-5.3518,-5.3518,-5.3518,-5.3518,-5.3518,-5.3518,-5.3518,-5.3518,-5.3518,-5.3518,-5.3518,-5.3518,-5.3518,-5.3518,-5.3518,-5.3518,-5.796,-5.7997,-5.7997,-5.7997,-5.7997,-5.7997,-5.7997,-5.7997,-5.7997,-5.7997,-5.7997,-5.7997,-5.7997,-5.7997,-5.774,-5.7079,-5.6895,-5.6822,-5.6822,-5.6051,-5.5941,-5.6785,-5.528,-5.4393,-5.4452,-5.3622,-5.3225,-5.3225,-5.3225,-5.3146,-5.298,-5.3146,-5.3146,-5.3017,-5.3146,-5.3225,-5.3225,-5.3225,-5.3225,-5.3225,-5.3225,-5.2769,-5.2018,-5.1343,-5.0662,-4.9953,-4.9392,-5.013,-5.1308,-5.0798,-5.1885,-5.3379,-5.2738,-5.2976,-5.3518,-5.3518,-5.3518,-5.3518,-5.3518,-5.3618,-5.3651,-5.3651,-5.3651,-5.3651,-5.3651,-5.3618,-5.3518,-5.3518,-5.3518,-5.3518,-5.3518,-5.3518,-5.3518,-5.3518,-5.3518,-5.3518,-5.3518,-5.3518,-5.3518,-5.3518,-5.3518,-5.3518,-5.3518,-5.3518,-5.3518,-5.3518,-5.3618,-5.3651,-5.3651,-5.3849,-5.3849,-5.3651,-5.4264,-5.4264,-5.3518,-5.4106,-5.4106,-5.3518,-5.3518,-5.3518,-5.3518,-5.3518,-5.3518,-5.3518,-5.3518,-5.3518,-5.3518,-5.3518,-5.3518,-5.3518,-5.3518,-5.3518,-5.3518,-5.3518,-5.3518,-5.3518,-5.785,-5.7997,-5.7997,-5.7997,-5.7997,-5.7997,-5.7997,-5.7997,-5.7997,-5.7997,-5.7997,-5.7997,-5.7997,-5.7997,-5.796,-5.785,-5.7189,-5.6822,-5.6822,-5.6051,-5.5941,-5.6785,-5.528,-5.4473,-5.4581,-5.3661,-5.3225,-5.3225,-5.3225,-5.2893,-5.2253,-5.2893,-5.2893,-5.2289,-5.2937,-5.3225,-5.3225,-5.3225,-5.3225,-5.3225,-5.3225,-5.2769,-5.2018,-5.1343,-5.0662,-5.0022,-4.9971,-5.0878,-5.2244,-5.2735,-5.3149,-5.3404,-5.3345,-5.3416,-5.3518,-5.3518,-5.3518,-5.3518,-5.3518,-5.3946,-5.4419,-5.4419,-5.4419,-5.4419,-5.4419,-5.3946,-5.3518,-5.3518,-5.3518,-5.3518,-5.3518,-5.3518,-5.3518,-5.3518,-5.3518,-5.3518,-5.3518,-5.3518,-5.3518,-5.3518,-5.3518,-5.3518,-5.3518,-5.3518,-5.3518,-5.3518,-5.4106,-5.4419,-5.4419,-5.5059,-5.5084,-5.4482,-5.4544,-5.4264,-5.3518,-5.3618,-5.3618,-5.3518,-5.3518,-5.3518,-5.3518,-5.3518,-5.3518,-5.3518,-5.3518,-5.3518,-5.3518,-5.3518,-5.3518,-5.3518,-5.3518,-5.3518,-5.3518,-5.3518,-5.3518,-5.3518,-5.7262,-5.7703,-5.7997,-5.7997,-5.7997,-5.7997,-5.7997,-5.7997,-5.7997,-5.7997,-5.7997,-5.7997,-5.7997,-5.7593,-5.7336,-5.7336,-5.6602,-5.6492,-5.7409,-5.6308,-5.5941,-5.6785,-5.528,-5.4415,-5.452,-5.3646,-5.3225,-5.3225,-5.3225,-5.3023,-5.2725,-5.306,-5.306,-5.2725,-5.306,-5.3225,-5.3225,-5.3225,-5.3225,-5.3225,-5.3225,-5.2769,-5.2018,-5.1343,-5.0943,-5.0679,-5.072,-5.1719,-5.2952,-5.2838,-5.3341,-5.4005,-5.3615,-5.3518,-5.3518,-5.3518,-5.3518,-5.3618,-5.3977,-5.4391,-5.4695,-5.5084,-5.5203,-5.5084,-5.4695,-5.4668,-5.4745,-5.4785,-5.4789,-5.4789,-5.4789,-5.4789,-5.4651,-5.4175,-5.3783,-5.3685,-5.4042,-5.3783,-5.3518,-5.3518,-5.3518,-5.3518,-5.3518,-5.3881,-5.3946,-5.3484,-5.4136,-5.4419,-5.4011,-5.4264,-5.4328,-5.4011,-5.4391,-5.4264,-5.3518,-5.3881,-5.3881,-5.3518,-5.3518,-5.3518,-5.3518,-5.3518,-5.3518,-5.3518,-5.3518,-5.3518,-5.3518,-5.3518,-5.3518,-5.3518,-5.3518,-5.3518,-5.3518,-5.3518,-5.3518,-5.3518]}]]